<?xml version="1.0" encoding="UTF-8" standalone="no" ?>
<gpx xmlns="http://www.topografix.com/GPX/1/1" xmlns:xsi="http://www.w3.org/2001/XMLSchema-instance" xsi:schemaLocation="http://www.topografix.com/GPX/1/1 http://www.topografix.com/GPX/1/1/gpx.xsd" version="1.1" creator="VisuGPX - https://www.visugpx.com">
  <metadata>
    <name>Sortie_cyclo_05_05_2013 (Lannion - Beffou - Guerlesquin)</name>
    <desc><![CDATA[Très beau circuit dans la campagne trègoroise. 
]]></desc>
  </metadata>
  <trk>
    <name><![CDATA[05-MAI-13 12:23:15]]></name>
    <trkseg>
      <trkpt lat="48.7471" lon="-3.45512">
        <ele>-17.17</ele>
        <time>2013-05-05T07:12:58Z</time>
      </trkpt>
      <trkpt lat="48.7471" lon="-3.45512">
        <ele>-17.17</ele>
        <time>2013-05-05T07:12:59Z</time>
      </trkpt>
      <trkpt lat="48.747" lon="-3.45506">
        <ele>-13.8</ele>
        <time>2013-05-05T07:13:18Z</time>
      </trkpt>
      <trkpt lat="48.747" lon="-3.45505">
        <ele>-10.44</ele>
        <time>2013-05-05T07:13:19Z</time>
      </trkpt>
      <trkpt lat="48.747" lon="-3.45505">
        <ele>-4.67</ele>
        <time>2013-05-05T07:13:21Z</time>
      </trkpt>
      <trkpt lat="48.747" lon="-3.45505">
        <ele>1.1</ele>
        <time>2013-05-05T07:13:23Z</time>
      </trkpt>
      <trkpt lat="48.74699" lon="-3.45504">
        <ele>6.39</ele>
        <time>2013-05-05T07:13:25Z</time>
      </trkpt>
      <trkpt lat="48.74699" lon="-3.45504">
        <ele>11.19</ele>
        <time>2013-05-05T07:13:27Z</time>
      </trkpt>
      <trkpt lat="48.74698" lon="-3.45503">
        <ele>15.52</ele>
        <time>2013-05-05T07:13:29Z</time>
      </trkpt>
      <trkpt lat="48.74698" lon="-3.45502">
        <ele>19.36</ele>
        <time>2013-05-05T07:13:31Z</time>
      </trkpt>
      <trkpt lat="48.74697" lon="-3.45502">
        <ele>23.21</ele>
        <time>2013-05-05T07:13:33Z</time>
      </trkpt>
      <trkpt lat="48.74696" lon="-3.45501">
        <ele>27.05</ele>
        <time>2013-05-05T07:13:35Z</time>
      </trkpt>
      <trkpt lat="48.74696" lon="-3.45501">
        <ele>29.94</ele>
        <time>2013-05-05T07:13:37Z</time>
      </trkpt>
      <trkpt lat="48.74694" lon="-3.455">
        <ele>34.74</ele>
        <time>2013-05-05T07:13:40Z</time>
      </trkpt>
      <trkpt lat="48.74694" lon="-3.455">
        <ele>38.59</ele>
        <time>2013-05-05T07:13:43Z</time>
      </trkpt>
      <trkpt lat="48.74694" lon="-3.455">
        <ele>41.95</ele>
        <time>2013-05-05T07:13:46Z</time>
      </trkpt>
      <trkpt lat="48.74693" lon="-3.455">
        <ele>45.32</ele>
        <time>2013-05-05T07:13:49Z</time>
      </trkpt>
      <trkpt lat="48.74693" lon="-3.455">
        <ele>49.16</ele>
        <time>2013-05-05T07:13:53Z</time>
      </trkpt>
      <trkpt lat="48.74693" lon="-3.45501">
        <ele>52.05</ele>
        <time>2013-05-05T07:13:57Z</time>
      </trkpt>
      <trkpt lat="48.74693" lon="-3.45501">
        <ele>55.41</ele>
        <time>2013-05-05T07:14:02Z</time>
      </trkpt>
      <trkpt lat="48.74694" lon="-3.45497">
        <ele>58.78</ele>
        <time>2013-05-05T07:14:08Z</time>
      </trkpt>
      <trkpt lat="48.74694" lon="-3.45491">
        <ele>61.66</ele>
        <time>2013-05-05T07:14:18Z</time>
      </trkpt>
      <trkpt lat="48.74693" lon="-3.45496">
        <ele>65.03</ele>
        <time>2013-05-05T07:14:43Z</time>
      </trkpt>
      <trkpt lat="48.74694" lon="-3.45497">
        <ele>67.91</ele>
        <time>2013-05-05T07:15:08Z</time>
      </trkpt>
      <trkpt lat="48.74694" lon="-3.45497">
        <ele>68.87</ele>
        <time>2013-05-05T07:15:42Z</time>
      </trkpt>
      <trkpt lat="48.74694" lon="-3.45496">
        <ele>68.87</ele>
        <time>2013-05-05T07:16:13Z</time>
      </trkpt>
      <trkpt lat="48.74694" lon="-3.45495">
        <ele>68.87</ele>
        <time>2013-05-05T07:16:45Z</time>
      </trkpt>
      <trkpt lat="48.74694" lon="-3.45496">
        <ele>68.87</ele>
        <time>2013-05-05T07:17:15Z</time>
      </trkpt>
      <trkpt lat="48.74693" lon="-3.45495">
        <ele>68.87</ele>
        <time>2013-05-05T07:17:47Z</time>
      </trkpt>
      <trkpt lat="48.74693" lon="-3.45494">
        <ele>69.35</ele>
        <time>2013-05-05T07:18:15Z</time>
      </trkpt>
      <trkpt lat="48.74693" lon="-3.45494">
        <ele>69.35</ele>
        <time>2013-05-05T07:18:18Z</time>
      </trkpt>
      <trkpt lat="48.74693" lon="-3.45494">
        <ele>69.35</ele>
        <time>2013-05-05T07:18:36Z</time>
      </trkpt>
      <trkpt lat="48.74692" lon="-3.45494">
        <ele>69.35</ele>
        <time>2013-05-05T07:18:56Z</time>
      </trkpt>
      <trkpt lat="48.74692" lon="-3.45497">
        <ele>69.35</ele>
        <time>2013-05-05T07:18:59Z</time>
      </trkpt>
      <trkpt lat="48.7468" lon="-3.45522">
        <ele>68.87</ele>
        <time>2013-05-05T07:19:07Z</time>
      </trkpt>
      <trkpt lat="48.74676" lon="-3.4552">
        <ele>68.87</ele>
        <time>2013-05-05T07:19:08Z</time>
      </trkpt>
      <trkpt lat="48.74672" lon="-3.45517">
        <ele>68.87</ele>
        <time>2013-05-05T07:19:09Z</time>
      </trkpt>
      <trkpt lat="48.74668" lon="-3.45513">
        <ele>68.87</ele>
        <time>2013-05-05T07:19:10Z</time>
      </trkpt>
      <trkpt lat="48.74635" lon="-3.45477">
        <ele>66.47</ele>
        <time>2013-05-05T07:19:17Z</time>
      </trkpt>
      <trkpt lat="48.7463" lon="-3.45473">
        <ele>65.99</ele>
        <time>2013-05-05T07:19:18Z</time>
      </trkpt>
      <trkpt lat="48.74625" lon="-3.45472">
        <ele>65.51</ele>
        <time>2013-05-05T07:19:19Z</time>
      </trkpt>
      <trkpt lat="48.74619" lon="-3.45474">
        <ele>64.55</ele>
        <time>2013-05-05T07:19:20Z</time>
      </trkpt>
      <trkpt lat="48.74614" lon="-3.4548">
        <ele>64.55</ele>
        <time>2013-05-05T07:19:21Z</time>
      </trkpt>
      <trkpt lat="48.7461" lon="-3.45488">
        <ele>64.07</ele>
        <time>2013-05-05T07:19:22Z</time>
      </trkpt>
      <trkpt lat="48.74607" lon="-3.45496">
        <ele>63.58</ele>
        <time>2013-05-05T07:19:23Z</time>
      </trkpt>
      <trkpt lat="48.74601" lon="-3.45511">
        <ele>60.7</ele>
        <time>2013-05-05T07:19:26Z</time>
      </trkpt>
      <trkpt lat="48.74599" lon="-3.45513">
        <ele>60.22</ele>
        <time>2013-05-05T07:19:27Z</time>
      </trkpt>
      <trkpt lat="48.74598" lon="-3.45513">
        <ele>60.22</ele>
        <time>2013-05-05T07:19:28Z</time>
      </trkpt>
      <trkpt lat="48.74595" lon="-3.45512">
        <ele>60.22</ele>
        <time>2013-05-05T07:19:29Z</time>
      </trkpt>
      <trkpt lat="48.74592" lon="-3.45508">
        <ele>60.22</ele>
        <time>2013-05-05T07:19:30Z</time>
      </trkpt>
      <trkpt lat="48.74589" lon="-3.45504">
        <ele>60.22</ele>
        <time>2013-05-05T07:19:31Z</time>
      </trkpt>
      <trkpt lat="48.74556" lon="-3.45465">
        <ele>58.3</ele>
        <time>2013-05-05T07:19:38Z</time>
      </trkpt>
      <trkpt lat="48.7455" lon="-3.45457">
        <ele>58.3</ele>
        <time>2013-05-05T07:19:39Z</time>
      </trkpt>
      <trkpt lat="48.7454" lon="-3.45438">
        <ele>57.34</ele>
        <time>2013-05-05T07:19:41Z</time>
      </trkpt>
      <trkpt lat="48.74496" lon="-3.45368">
        <ele>56.86</ele>
        <time>2013-05-05T07:19:51Z</time>
      </trkpt>
      <trkpt lat="48.74484" lon="-3.45353">
        <ele>58.3</ele>
        <time>2013-05-05T07:19:55Z</time>
      </trkpt>
      <trkpt lat="48.74456" lon="-3.45317">
        <ele>61.18</ele>
        <time>2013-05-05T07:20:05Z</time>
      </trkpt>
      <trkpt lat="48.74426" lon="-3.45278">
        <ele>64.55</ele>
        <time>2013-05-05T07:20:15Z</time>
      </trkpt>
      <trkpt lat="48.74387" lon="-3.45237">
        <ele>66.47</ele>
        <time>2013-05-05T07:20:27Z</time>
      </trkpt>
      <trkpt lat="48.74383" lon="-3.45235">
        <ele>66.47</ele>
        <time>2013-05-05T07:20:28Z</time>
      </trkpt>
      <trkpt lat="48.74334" lon="-3.4521">
        <ele>65.03</ele>
        <time>2013-05-05T07:20:38Z</time>
      </trkpt>
      <trkpt lat="48.74329" lon="-3.45206">
        <ele>65.51</ele>
        <time>2013-05-05T07:20:39Z</time>
      </trkpt>
      <trkpt lat="48.74279" lon="-3.45128">
        <ele>62.14</ele>
        <time>2013-05-05T07:20:49Z</time>
      </trkpt>
      <trkpt lat="48.74272" lon="-3.45105">
        <ele>61.18</ele>
        <time>2013-05-05T07:20:51Z</time>
      </trkpt>
      <trkpt lat="48.74268" lon="-3.45013">
        <ele>58.3</ele>
        <time>2013-05-05T07:20:58Z</time>
      </trkpt>
      <trkpt lat="48.74268" lon="-3.44984">
        <ele>56.86</ele>
        <time>2013-05-05T07:21:00Z</time>
      </trkpt>
      <trkpt lat="48.74269" lon="-3.44912">
        <ele>53.97</ele>
        <time>2013-05-05T07:21:05Z</time>
      </trkpt>
      <trkpt lat="48.74269" lon="-3.44883">
        <ele>53.49</ele>
        <time>2013-05-05T07:21:07Z</time>
      </trkpt>
      <trkpt lat="48.7427" lon="-3.44781">
        <ele>50.13</ele>
        <time>2013-05-05T07:21:14Z</time>
      </trkpt>
      <trkpt lat="48.74267" lon="-3.44706">
        <ele>47.72</ele>
        <time>2013-05-05T07:21:19Z</time>
      </trkpt>
      <trkpt lat="48.74262" lon="-3.44664">
        <ele>45.8</ele>
        <time>2013-05-05T07:21:22Z</time>
      </trkpt>
      <trkpt lat="48.74258" lon="-3.44652">
        <ele>45.32</ele>
        <time>2013-05-05T07:21:23Z</time>
      </trkpt>
      <trkpt lat="48.74254" lon="-3.44641">
        <ele>44.36</ele>
        <time>2013-05-05T07:21:24Z</time>
      </trkpt>
      <trkpt lat="48.74249" lon="-3.44632">
        <ele>44.36</ele>
        <time>2013-05-05T07:21:25Z</time>
      </trkpt>
      <trkpt lat="48.74243" lon="-3.44623">
        <ele>43.88</ele>
        <time>2013-05-05T07:21:26Z</time>
      </trkpt>
      <trkpt lat="48.74238" lon="-3.44613">
        <ele>43.88</ele>
        <time>2013-05-05T07:21:27Z</time>
      </trkpt>
      <trkpt lat="48.74233" lon="-3.44604">
        <ele>42.92</ele>
        <time>2013-05-05T07:21:28Z</time>
      </trkpt>
      <trkpt lat="48.74226" lon="-3.44597">
        <ele>42.92</ele>
        <time>2013-05-05T07:21:29Z</time>
      </trkpt>
      <trkpt lat="48.74219" lon="-3.44591">
        <ele>42.92</ele>
        <time>2013-05-05T07:21:30Z</time>
      </trkpt>
      <trkpt lat="48.74211" lon="-3.44587">
        <ele>42.44</ele>
        <time>2013-05-05T07:21:31Z</time>
      </trkpt>
      <trkpt lat="48.74204" lon="-3.44583">
        <ele>41.95</ele>
        <time>2013-05-05T07:21:32Z</time>
      </trkpt>
      <trkpt lat="48.741" lon="-3.44535">
        <ele>38.59</ele>
        <time>2013-05-05T07:21:45Z</time>
      </trkpt>
      <trkpt lat="48.73998" lon="-3.44493">
        <ele>35.71</ele>
        <time>2013-05-05T07:21:58Z</time>
      </trkpt>
      <trkpt lat="48.7399" lon="-3.44493">
        <ele>35.23</ele>
        <time>2013-05-05T07:21:59Z</time>
      </trkpt>
      <trkpt lat="48.73983" lon="-3.44496">
        <ele>35.23</ele>
        <time>2013-05-05T07:22:00Z</time>
      </trkpt>
      <trkpt lat="48.73975" lon="-3.445">
        <ele>34.74</ele>
        <time>2013-05-05T07:22:01Z</time>
      </trkpt>
      <trkpt lat="48.73968" lon="-3.44501">
        <ele>34.74</ele>
        <time>2013-05-05T07:22:02Z</time>
      </trkpt>
      <trkpt lat="48.73961" lon="-3.44498">
        <ele>34.74</ele>
        <time>2013-05-05T07:22:03Z</time>
      </trkpt>
      <trkpt lat="48.73954" lon="-3.44494">
        <ele>34.74</ele>
        <time>2013-05-05T07:22:04Z</time>
      </trkpt>
      <trkpt lat="48.73948" lon="-3.44488">
        <ele>34.26</ele>
        <time>2013-05-05T07:22:05Z</time>
      </trkpt>
      <trkpt lat="48.73943" lon="-3.44481">
        <ele>34.26</ele>
        <time>2013-05-05T07:22:06Z</time>
      </trkpt>
      <trkpt lat="48.73937" lon="-3.44476">
        <ele>34.26</ele>
        <time>2013-05-05T07:22:07Z</time>
      </trkpt>
      <trkpt lat="48.7393" lon="-3.44473">
        <ele>33.78</ele>
        <time>2013-05-05T07:22:08Z</time>
      </trkpt>
      <trkpt lat="48.73842" lon="-3.44444">
        <ele>30.9</ele>
        <time>2013-05-05T07:22:19Z</time>
      </trkpt>
      <trkpt lat="48.73833" lon="-3.44444">
        <ele>30.9</ele>
        <time>2013-05-05T07:22:20Z</time>
      </trkpt>
      <trkpt lat="48.73823" lon="-3.44445">
        <ele>31.38</ele>
        <time>2013-05-05T07:22:21Z</time>
      </trkpt>
      <trkpt lat="48.73814" lon="-3.44448">
        <ele>29.46</ele>
        <time>2013-05-05T07:22:22Z</time>
      </trkpt>
      <trkpt lat="48.73805" lon="-3.44452">
        <ele>28.5</ele>
        <time>2013-05-05T07:22:23Z</time>
      </trkpt>
      <trkpt lat="48.73796" lon="-3.44458">
        <ele>28.02</ele>
        <time>2013-05-05T07:22:24Z</time>
      </trkpt>
      <trkpt lat="48.73787" lon="-3.44466">
        <ele>27.53</ele>
        <time>2013-05-05T07:22:25Z</time>
      </trkpt>
      <trkpt lat="48.73779" lon="-3.44474">
        <ele>27.05</ele>
        <time>2013-05-05T07:22:26Z</time>
      </trkpt>
      <trkpt lat="48.73761" lon="-3.44488">
        <ele>26.09</ele>
        <time>2013-05-05T07:22:28Z</time>
      </trkpt>
      <trkpt lat="48.73752" lon="-3.44492">
        <ele>25.61</ele>
        <time>2013-05-05T07:22:29Z</time>
      </trkpt>
      <trkpt lat="48.73742" lon="-3.44493">
        <ele>24.65</ele>
        <time>2013-05-05T07:22:30Z</time>
      </trkpt>
      <trkpt lat="48.73732" lon="-3.44492">
        <ele>24.65</ele>
        <time>2013-05-05T07:22:31Z</time>
      </trkpt>
      <trkpt lat="48.73723" lon="-3.44488">
        <ele>24.17</ele>
        <time>2013-05-05T07:22:32Z</time>
      </trkpt>
      <trkpt lat="48.73713" lon="-3.44482">
        <ele>23.21</ele>
        <time>2013-05-05T07:22:33Z</time>
      </trkpt>
      <trkpt lat="48.73705" lon="-3.44475">
        <ele>22.73</ele>
        <time>2013-05-05T07:22:34Z</time>
      </trkpt>
      <trkpt lat="48.73635" lon="-3.44423">
        <ele>22.73</ele>
        <time>2013-05-05T07:22:44Z</time>
      </trkpt>
      <trkpt lat="48.73591" lon="-3.44404">
        <ele>26.09</ele>
        <time>2013-05-05T07:22:55Z</time>
      </trkpt>
      <trkpt lat="48.73564" lon="-3.44401">
        <ele>27.53</ele>
        <time>2013-05-05T07:23:01Z</time>
      </trkpt>
      <trkpt lat="48.73547" lon="-3.44404">
        <ele>28.5</ele>
        <time>2013-05-05T07:23:05Z</time>
      </trkpt>
      <trkpt lat="48.73542" lon="-3.44405">
        <ele>28.02</ele>
        <time>2013-05-05T07:23:06Z</time>
      </trkpt>
      <trkpt lat="48.73506" lon="-3.44415">
        <ele>30.42</ele>
        <time>2013-05-05T07:23:15Z</time>
      </trkpt>
      <trkpt lat="48.73458" lon="-3.44462">
        <ele>33.3</ele>
        <time>2013-05-05T07:23:30Z</time>
      </trkpt>
      <trkpt lat="48.73453" lon="-3.44473">
        <ele>33.3</ele>
        <time>2013-05-05T07:23:32Z</time>
      </trkpt>
      <trkpt lat="48.73451" lon="-3.44478">
        <ele>33.3</ele>
        <time>2013-05-05T07:23:33Z</time>
      </trkpt>
      <trkpt lat="48.73447" lon="-3.44482">
        <ele>33.78</ele>
        <time>2013-05-05T07:23:34Z</time>
      </trkpt>
      <trkpt lat="48.73444" lon="-3.44485">
        <ele>33.78</ele>
        <time>2013-05-05T07:23:35Z</time>
      </trkpt>
      <trkpt lat="48.7344" lon="-3.44487">
        <ele>34.26</ele>
        <time>2013-05-05T07:23:36Z</time>
      </trkpt>
      <trkpt lat="48.73436" lon="-3.44487">
        <ele>34.26</ele>
        <time>2013-05-05T07:23:37Z</time>
      </trkpt>
      <trkpt lat="48.73432" lon="-3.44488">
        <ele>34.26</ele>
        <time>2013-05-05T07:23:38Z</time>
      </trkpt>
      <trkpt lat="48.73416" lon="-3.44488">
        <ele>34.74</ele>
        <time>2013-05-05T07:23:42Z</time>
      </trkpt>
      <trkpt lat="48.73412" lon="-3.4449">
        <ele>34.74</ele>
        <time>2013-05-05T07:23:43Z</time>
      </trkpt>
      <trkpt lat="48.73408" lon="-3.44493">
        <ele>35.23</ele>
        <time>2013-05-05T07:23:44Z</time>
      </trkpt>
      <trkpt lat="48.73381" lon="-3.44516">
        <ele>35.71</ele>
        <time>2013-05-05T07:23:51Z</time>
      </trkpt>
      <trkpt lat="48.73376" lon="-3.44517">
        <ele>35.71</ele>
        <time>2013-05-05T07:23:52Z</time>
      </trkpt>
      <trkpt lat="48.73358" lon="-3.4452">
        <ele>36.19</ele>
        <time>2013-05-05T07:23:56Z</time>
      </trkpt>
      <trkpt lat="48.73354" lon="-3.44519">
        <ele>36.19</ele>
        <time>2013-05-05T07:23:57Z</time>
      </trkpt>
      <trkpt lat="48.73336" lon="-3.44512">
        <ele>36.67</ele>
        <time>2013-05-05T07:24:01Z</time>
      </trkpt>
      <trkpt lat="48.73331" lon="-3.44509">
        <ele>36.67</ele>
        <time>2013-05-05T07:24:02Z</time>
      </trkpt>
      <trkpt lat="48.73315" lon="-3.44496">
        <ele>37.15</ele>
        <time>2013-05-05T07:24:06Z</time>
      </trkpt>
      <trkpt lat="48.73311" lon="-3.44492">
        <ele>37.63</ele>
        <time>2013-05-05T07:24:07Z</time>
      </trkpt>
      <trkpt lat="48.73281" lon="-3.44444">
        <ele>38.59</ele>
        <time>2013-05-05T07:24:17Z</time>
      </trkpt>
      <trkpt lat="48.73278" lon="-3.44438">
        <ele>38.59</ele>
        <time>2013-05-05T07:24:18Z</time>
      </trkpt>
      <trkpt lat="48.73262" lon="-3.44418">
        <ele>39.55</ele>
        <time>2013-05-05T07:24:23Z</time>
      </trkpt>
      <trkpt lat="48.73213" lon="-3.44383">
        <ele>41.95</ele>
        <time>2013-05-05T07:24:35Z</time>
      </trkpt>
      <trkpt lat="48.73209" lon="-3.44383">
        <ele>41.95</ele>
        <time>2013-05-05T07:24:36Z</time>
      </trkpt>
      <trkpt lat="48.73205" lon="-3.44384">
        <ele>41.95</ele>
        <time>2013-05-05T07:24:37Z</time>
      </trkpt>
      <trkpt lat="48.73201" lon="-3.44386">
        <ele>42.44</ele>
        <time>2013-05-05T07:24:38Z</time>
      </trkpt>
      <trkpt lat="48.73197" lon="-3.44387">
        <ele>41.95</ele>
        <time>2013-05-05T07:24:39Z</time>
      </trkpt>
      <trkpt lat="48.73193" lon="-3.44389">
        <ele>42.44</ele>
        <time>2013-05-05T07:24:40Z</time>
      </trkpt>
      <trkpt lat="48.73189" lon="-3.44392">
        <ele>42.44</ele>
        <time>2013-05-05T07:24:41Z</time>
      </trkpt>
      <trkpt lat="48.73186" lon="-3.44397">
        <ele>42.44</ele>
        <time>2013-05-05T07:24:42Z</time>
      </trkpt>
      <trkpt lat="48.73183" lon="-3.44402">
        <ele>42.44</ele>
        <time>2013-05-05T07:24:43Z</time>
      </trkpt>
      <trkpt lat="48.7318" lon="-3.44408">
        <ele>42.92</ele>
        <time>2013-05-05T07:24:44Z</time>
      </trkpt>
      <trkpt lat="48.73178" lon="-3.44414">
        <ele>42.44</ele>
        <time>2013-05-05T07:24:45Z</time>
      </trkpt>
      <trkpt lat="48.7315" lon="-3.44529">
        <ele>42.44</ele>
        <time>2013-05-05T07:25:00Z</time>
      </trkpt>
      <trkpt lat="48.73148" lon="-3.44537">
        <ele>42.44</ele>
        <time>2013-05-05T07:25:01Z</time>
      </trkpt>
      <trkpt lat="48.73109" lon="-3.44682">
        <ele>42.92</ele>
        <time>2013-05-05T07:25:20Z</time>
      </trkpt>
      <trkpt lat="48.73104" lon="-3.44696">
        <ele>42.92</ele>
        <time>2013-05-05T07:25:22Z</time>
      </trkpt>
      <trkpt lat="48.73103" lon="-3.44703">
        <ele>42.92</ele>
        <time>2013-05-05T07:25:23Z</time>
      </trkpt>
      <trkpt lat="48.73102" lon="-3.44711">
        <ele>42.92</ele>
        <time>2013-05-05T07:25:24Z</time>
      </trkpt>
      <trkpt lat="48.731" lon="-3.44727">
        <ele>43.4</ele>
        <time>2013-05-05T07:25:26Z</time>
      </trkpt>
      <trkpt lat="48.73098" lon="-3.44734">
        <ele>43.4</ele>
        <time>2013-05-05T07:25:27Z</time>
      </trkpt>
      <trkpt lat="48.73095" lon="-3.44742">
        <ele>42.92</ele>
        <time>2013-05-05T07:25:28Z</time>
      </trkpt>
      <trkpt lat="48.73048" lon="-3.4489">
        <ele>40.99</ele>
        <time>2013-05-05T07:25:45Z</time>
      </trkpt>
      <trkpt lat="48.73027" lon="-3.44952">
        <ele>39.55</ele>
        <time>2013-05-05T07:25:51Z</time>
      </trkpt>
      <trkpt lat="48.72975" lon="-3.45119">
        <ele>36.67</ele>
        <time>2013-05-05T07:26:07Z</time>
      </trkpt>
      <trkpt lat="48.72957" lon="-3.45159">
        <ele>34.74</ele>
        <time>2013-05-05T07:26:12Z</time>
      </trkpt>
      <trkpt lat="48.72956" lon="-3.45166">
        <ele>35.23</ele>
        <time>2013-05-05T07:26:13Z</time>
      </trkpt>
      <trkpt lat="48.72955" lon="-3.45174">
        <ele>34.74</ele>
        <time>2013-05-05T07:26:14Z</time>
      </trkpt>
      <trkpt lat="48.72954" lon="-3.45187">
        <ele>33.78</ele>
        <time>2013-05-05T07:26:16Z</time>
      </trkpt>
      <trkpt lat="48.72954" lon="-3.45194">
        <ele>33.3</ele>
        <time>2013-05-05T07:26:17Z</time>
      </trkpt>
      <trkpt lat="48.72954" lon="-3.45201">
        <ele>33.3</ele>
        <time>2013-05-05T07:26:18Z</time>
      </trkpt>
      <trkpt lat="48.72952" lon="-3.45208">
        <ele>33.3</ele>
        <time>2013-05-05T07:26:19Z</time>
      </trkpt>
      <trkpt lat="48.7295" lon="-3.45215">
        <ele>33.78</ele>
        <time>2013-05-05T07:26:20Z</time>
      </trkpt>
      <trkpt lat="48.72948" lon="-3.45223">
        <ele>34.74</ele>
        <time>2013-05-05T07:26:21Z</time>
      </trkpt>
      <trkpt lat="48.72945" lon="-3.45231">
        <ele>33.3</ele>
        <time>2013-05-05T07:26:22Z</time>
      </trkpt>
      <trkpt lat="48.72943" lon="-3.45239">
        <ele>33.3</ele>
        <time>2013-05-05T07:26:23Z</time>
      </trkpt>
      <trkpt lat="48.72941" lon="-3.45247">
        <ele>33.3</ele>
        <time>2013-05-05T07:26:24Z</time>
      </trkpt>
      <trkpt lat="48.7294" lon="-3.45257">
        <ele>32.82</ele>
        <time>2013-05-05T07:26:25Z</time>
      </trkpt>
      <trkpt lat="48.72938" lon="-3.45267">
        <ele>32.82</ele>
        <time>2013-05-05T07:26:26Z</time>
      </trkpt>
      <trkpt lat="48.72914" lon="-3.45406">
        <ele>29.94</ele>
        <time>2013-05-05T07:26:39Z</time>
      </trkpt>
      <trkpt lat="48.72898" lon="-3.4548">
        <ele>26.57</ele>
        <time>2013-05-05T07:26:45Z</time>
      </trkpt>
      <trkpt lat="48.72887" lon="-3.45545">
        <ele>23.21</ele>
        <time>2013-05-05T07:26:50Z</time>
      </trkpt>
      <trkpt lat="48.7288" lon="-3.45604">
        <ele>18.88</ele>
        <time>2013-05-05T07:26:54Z</time>
      </trkpt>
      <trkpt lat="48.72874" lon="-3.45644">
        <ele>15.52</ele>
        <time>2013-05-05T07:26:57Z</time>
      </trkpt>
      <trkpt lat="48.72871" lon="-3.45655">
        <ele>14.08</ele>
        <time>2013-05-05T07:26:58Z</time>
      </trkpt>
      <trkpt lat="48.72867" lon="-3.45665">
        <ele>11.67</ele>
        <time>2013-05-05T07:26:59Z</time>
      </trkpt>
      <trkpt lat="48.72861" lon="-3.45673">
        <ele>11.19</ele>
        <time>2013-05-05T07:27:00Z</time>
      </trkpt>
      <trkpt lat="48.72839" lon="-3.45695">
        <ele>9.27</ele>
        <time>2013-05-05T07:27:03Z</time>
      </trkpt>
      <trkpt lat="48.72832" lon="-3.45705">
        <ele>8.31</ele>
        <time>2013-05-05T07:27:04Z</time>
      </trkpt>
      <trkpt lat="48.72818" lon="-3.45729">
        <ele>6.39</ele>
        <time>2013-05-05T07:27:07Z</time>
      </trkpt>
      <trkpt lat="48.72815" lon="-3.45738">
        <ele>5.91</ele>
        <time>2013-05-05T07:27:08Z</time>
      </trkpt>
      <trkpt lat="48.72813" lon="-3.45746">
        <ele>5.42</ele>
        <time>2013-05-05T07:27:09Z</time>
      </trkpt>
      <trkpt lat="48.72811" lon="-3.45754">
        <ele>5.42</ele>
        <time>2013-05-05T07:27:10Z</time>
      </trkpt>
      <trkpt lat="48.72809" lon="-3.45762">
        <ele>5.42</ele>
        <time>2013-05-05T07:27:11Z</time>
      </trkpt>
      <trkpt lat="48.72781" lon="-3.45875">
        <ele>4.94</ele>
        <time>2013-05-05T07:27:25Z</time>
      </trkpt>
      <trkpt lat="48.72772" lon="-3.45909">
        <ele>5.42</ele>
        <time>2013-05-05T07:27:29Z</time>
      </trkpt>
      <trkpt lat="48.7277" lon="-3.45918">
        <ele>5.42</ele>
        <time>2013-05-05T07:27:30Z</time>
      </trkpt>
      <trkpt lat="48.7277" lon="-3.45926">
        <ele>5.42</ele>
        <time>2013-05-05T07:27:31Z</time>
      </trkpt>
      <trkpt lat="48.7277" lon="-3.45935">
        <ele>5.42</ele>
        <time>2013-05-05T07:27:32Z</time>
      </trkpt>
      <trkpt lat="48.72771" lon="-3.45944">
        <ele>5.42</ele>
        <time>2013-05-05T07:27:33Z</time>
      </trkpt>
      <trkpt lat="48.72772" lon="-3.4596">
        <ele>4.94</ele>
        <time>2013-05-05T07:27:35Z</time>
      </trkpt>
      <trkpt lat="48.72774" lon="-3.45966">
        <ele>4.46</ele>
        <time>2013-05-05T07:27:36Z</time>
      </trkpt>
      <trkpt lat="48.72776" lon="-3.4597">
        <ele>4.46</ele>
        <time>2013-05-05T07:27:37Z</time>
      </trkpt>
      <trkpt lat="48.72778" lon="-3.45976">
        <ele>4.46</ele>
        <time>2013-05-05T07:27:38Z</time>
      </trkpt>
      <trkpt lat="48.72779" lon="-3.45981">
        <ele>4.46</ele>
        <time>2013-05-05T07:27:39Z</time>
      </trkpt>
      <trkpt lat="48.72777" lon="-3.45985">
        <ele>4.94</ele>
        <time>2013-05-05T07:27:40Z</time>
      </trkpt>
      <trkpt lat="48.72774" lon="-3.45988">
        <ele>4.94</ele>
        <time>2013-05-05T07:27:41Z</time>
      </trkpt>
      <trkpt lat="48.72769" lon="-3.45988">
        <ele>4.94</ele>
        <time>2013-05-05T07:27:42Z</time>
      </trkpt>
      <trkpt lat="48.72765" lon="-3.45988">
        <ele>4.94</ele>
        <time>2013-05-05T07:27:43Z</time>
      </trkpt>
      <trkpt lat="48.7276" lon="-3.45989">
        <ele>4.94</ele>
        <time>2013-05-05T07:27:44Z</time>
      </trkpt>
      <trkpt lat="48.72678" lon="-3.46009">
        <ele>7.35</ele>
        <time>2013-05-05T07:28:02Z</time>
      </trkpt>
      <trkpt lat="48.72639" lon="-3.46018">
        <ele>9.27</ele>
        <time>2013-05-05T07:28:11Z</time>
      </trkpt>
      <trkpt lat="48.72635" lon="-3.46019">
        <ele>9.75</ele>
        <time>2013-05-05T07:28:12Z</time>
      </trkpt>
      <trkpt lat="48.7258" lon="-3.46032">
        <ele>12.15</ele>
        <time>2013-05-05T07:28:25Z</time>
      </trkpt>
      <trkpt lat="48.72517" lon="-3.46037">
        <ele>14.56</ele>
        <time>2013-05-05T07:28:39Z</time>
      </trkpt>
      <trkpt lat="48.72443" lon="-3.4601">
        <ele>17.44</ele>
        <time>2013-05-05T07:28:56Z</time>
      </trkpt>
      <trkpt lat="48.72404" lon="-3.45993">
        <ele>18.88</ele>
        <time>2013-05-05T07:29:05Z</time>
      </trkpt>
      <trkpt lat="48.72336" lon="-3.46011">
        <ele>21.77</ele>
        <time>2013-05-05T07:29:21Z</time>
      </trkpt>
      <trkpt lat="48.72272" lon="-3.46006">
        <ele>24.17</ele>
        <time>2013-05-05T07:29:36Z</time>
      </trkpt>
      <trkpt lat="48.72204" lon="-3.45972">
        <ele>27.53</ele>
        <time>2013-05-05T07:29:52Z</time>
      </trkpt>
      <trkpt lat="48.72156" lon="-3.45956">
        <ele>28.98</ele>
        <time>2013-05-05T07:30:03Z</time>
      </trkpt>
      <trkpt lat="48.72152" lon="-3.45957">
        <ele>29.46</ele>
        <time>2013-05-05T07:30:04Z</time>
      </trkpt>
      <trkpt lat="48.72148" lon="-3.45958">
        <ele>29.46</ele>
        <time>2013-05-05T07:30:05Z</time>
      </trkpt>
      <trkpt lat="48.72144" lon="-3.4596">
        <ele>29.46</ele>
        <time>2013-05-05T07:30:06Z</time>
      </trkpt>
      <trkpt lat="48.7214" lon="-3.45962">
        <ele>29.46</ele>
        <time>2013-05-05T07:30:07Z</time>
      </trkpt>
      <trkpt lat="48.7208" lon="-3.46004">
        <ele>32.82</ele>
        <time>2013-05-05T07:30:22Z</time>
      </trkpt>
      <trkpt lat="48.7206" lon="-3.46017">
        <ele>33.78</ele>
        <time>2013-05-05T07:30:27Z</time>
      </trkpt>
      <trkpt lat="48.72056" lon="-3.46019">
        <ele>33.78</ele>
        <time>2013-05-05T07:30:28Z</time>
      </trkpt>
      <trkpt lat="48.72052" lon="-3.46021">
        <ele>33.78</ele>
        <time>2013-05-05T07:30:29Z</time>
      </trkpt>
      <trkpt lat="48.72048" lon="-3.46022">
        <ele>34.26</ele>
        <time>2013-05-05T07:30:30Z</time>
      </trkpt>
      <trkpt lat="48.72043" lon="-3.46023">
        <ele>34.26</ele>
        <time>2013-05-05T07:30:31Z</time>
      </trkpt>
      <trkpt lat="48.71981" lon="-3.45998">
        <ele>36.67</ele>
        <time>2013-05-05T07:30:46Z</time>
      </trkpt>
      <trkpt lat="48.71943" lon="-3.45919">
        <ele>39.07</ele>
        <time>2013-05-05T07:31:01Z</time>
      </trkpt>
      <trkpt lat="48.71927" lon="-3.45848">
        <ele>40.99</ele>
        <time>2013-05-05T07:31:12Z</time>
      </trkpt>
      <trkpt lat="48.71925" lon="-3.45842">
        <ele>40.99</ele>
        <time>2013-05-05T07:31:13Z</time>
      </trkpt>
      <trkpt lat="48.71922" lon="-3.45836">
        <ele>40.99</ele>
        <time>2013-05-05T07:31:14Z</time>
      </trkpt>
      <trkpt lat="48.71919" lon="-3.4583">
        <ele>40.99</ele>
        <time>2013-05-05T07:31:15Z</time>
      </trkpt>
      <trkpt lat="48.71916" lon="-3.45825">
        <ele>40.99</ele>
        <time>2013-05-05T07:31:16Z</time>
      </trkpt>
      <trkpt lat="48.71913" lon="-3.4582">
        <ele>41.95</ele>
        <time>2013-05-05T07:31:17Z</time>
      </trkpt>
      <trkpt lat="48.71909" lon="-3.45815">
        <ele>41.47</ele>
        <time>2013-05-05T07:31:18Z</time>
      </trkpt>
      <trkpt lat="48.71905" lon="-3.45811">
        <ele>41.95</ele>
        <time>2013-05-05T07:31:19Z</time>
      </trkpt>
      <trkpt lat="48.71842" lon="-3.45745">
        <ele>44.84</ele>
        <time>2013-05-05T07:31:36Z</time>
      </trkpt>
      <trkpt lat="48.71786" lon="-3.4569">
        <ele>47.72</ele>
        <time>2013-05-05T07:31:51Z</time>
      </trkpt>
      <trkpt lat="48.71783" lon="-3.45686">
        <ele>47.72</ele>
        <time>2013-05-05T07:31:52Z</time>
      </trkpt>
      <trkpt lat="48.71722" lon="-3.45627">
        <ele>51.09</ele>
        <time>2013-05-05T07:32:08Z</time>
      </trkpt>
      <trkpt lat="48.71683" lon="-3.45553">
        <ele>54.45</ele>
        <time>2013-05-05T07:32:22Z</time>
      </trkpt>
      <trkpt lat="48.71644" lon="-3.45452">
        <ele>55.89</ele>
        <time>2013-05-05T07:32:39Z</time>
      </trkpt>
      <trkpt lat="48.71597" lon="-3.45331">
        <ele>58.78</ele>
        <time>2013-05-05T07:32:59Z</time>
      </trkpt>
      <trkpt lat="48.71569" lon="-3.45265">
        <ele>59.74</ele>
        <time>2013-05-05T07:33:10Z</time>
      </trkpt>
      <trkpt lat="48.71566" lon="-3.4526">
        <ele>59.74</ele>
        <time>2013-05-05T07:33:11Z</time>
      </trkpt>
      <trkpt lat="48.71543" lon="-3.45233">
        <ele>60.7</ele>
        <time>2013-05-05T07:33:17Z</time>
      </trkpt>
      <trkpt lat="48.71539" lon="-3.4523">
        <ele>60.7</ele>
        <time>2013-05-05T07:33:18Z</time>
      </trkpt>
      <trkpt lat="48.71517" lon="-3.45213">
        <ele>60.7</ele>
        <time>2013-05-05T07:33:23Z</time>
      </trkpt>
      <trkpt lat="48.71425" lon="-3.45145">
        <ele>61.18</ele>
        <time>2013-05-05T07:33:42Z</time>
      </trkpt>
      <trkpt lat="48.71343" lon="-3.45094">
        <ele>61.66</ele>
        <time>2013-05-05T07:33:57Z</time>
      </trkpt>
      <trkpt lat="48.71239" lon="-3.45041">
        <ele>62.14</ele>
        <time>2013-05-05T07:34:15Z</time>
      </trkpt>
      <trkpt lat="48.71133" lon="-3.45001">
        <ele>63.58</ele>
        <time>2013-05-05T07:34:34Z</time>
      </trkpt>
      <trkpt lat="48.71045" lon="-3.45002">
        <ele>64.07</ele>
        <time>2013-05-05T07:34:50Z</time>
      </trkpt>
      <trkpt lat="48.70968" lon="-3.44973">
        <ele>64.55</ele>
        <time>2013-05-05T07:35:05Z</time>
      </trkpt>
      <trkpt lat="48.70868" lon="-3.44891">
        <ele>65.51</ele>
        <time>2013-05-05T07:35:26Z</time>
      </trkpt>
      <trkpt lat="48.70779" lon="-3.44839">
        <ele>67.43</ele>
        <time>2013-05-05T07:35:44Z</time>
      </trkpt>
      <trkpt lat="48.70775" lon="-3.44836">
        <ele>67.43</ele>
        <time>2013-05-05T07:35:45Z</time>
      </trkpt>
      <trkpt lat="48.70729" lon="-3.44816">
        <ele>70.79</ele>
        <time>2013-05-05T07:35:56Z</time>
      </trkpt>
      <trkpt lat="48.70687" lon="-3.44806">
        <ele>74.16</ele>
        <time>2013-05-05T07:36:08Z</time>
      </trkpt>
      <trkpt lat="48.70661" lon="-3.44804">
        <ele>76.08</ele>
        <time>2013-05-05T07:36:15Z</time>
      </trkpt>
      <trkpt lat="48.70657" lon="-3.44803">
        <ele>77.04</ele>
        <time>2013-05-05T07:36:16Z</time>
      </trkpt>
      <trkpt lat="48.70653" lon="-3.44804">
        <ele>77.04</ele>
        <time>2013-05-05T07:36:17Z</time>
      </trkpt>
      <trkpt lat="48.70649" lon="-3.44804">
        <ele>77.52</ele>
        <time>2013-05-05T07:36:18Z</time>
      </trkpt>
      <trkpt lat="48.70645" lon="-3.44804">
        <ele>77.52</ele>
        <time>2013-05-05T07:36:19Z</time>
      </trkpt>
      <trkpt lat="48.70641" lon="-3.44804">
        <ele>77.52</ele>
        <time>2013-05-05T07:36:20Z</time>
      </trkpt>
      <trkpt lat="48.70638" lon="-3.44804">
        <ele>78</ele>
        <time>2013-05-05T07:36:21Z</time>
      </trkpt>
      <trkpt lat="48.70634" lon="-3.44804">
        <ele>78.97</ele>
        <time>2013-05-05T07:36:22Z</time>
      </trkpt>
      <trkpt lat="48.7063" lon="-3.44805">
        <ele>78.48</ele>
        <time>2013-05-05T07:36:23Z</time>
      </trkpt>
      <trkpt lat="48.70626" lon="-3.44805">
        <ele>78.48</ele>
        <time>2013-05-05T07:36:24Z</time>
      </trkpt>
      <trkpt lat="48.70542" lon="-3.4482">
        <ele>80.41</ele>
        <time>2013-05-05T07:36:43Z</time>
      </trkpt>
      <trkpt lat="48.70488" lon="-3.44817">
        <ele>79.93</ele>
        <time>2013-05-05T07:36:53Z</time>
      </trkpt>
      <trkpt lat="48.70404" lon="-3.4485">
        <ele>80.41</ele>
        <time>2013-05-05T07:37:09Z</time>
      </trkpt>
      <trkpt lat="48.70387" lon="-3.44851">
        <ele>80.41</ele>
        <time>2013-05-05T07:37:12Z</time>
      </trkpt>
      <trkpt lat="48.70336" lon="-3.44833">
        <ele>80.41</ele>
        <time>2013-05-05T07:37:21Z</time>
      </trkpt>
      <trkpt lat="48.70312" lon="-3.44826">
        <ele>79.93</ele>
        <time>2013-05-05T07:37:25Z</time>
      </trkpt>
      <trkpt lat="48.70213" lon="-3.44817">
        <ele>79.93</ele>
        <time>2013-05-05T07:37:42Z</time>
      </trkpt>
      <trkpt lat="48.70207" lon="-3.44818">
        <ele>80.41</ele>
        <time>2013-05-05T07:37:43Z</time>
      </trkpt>
      <trkpt lat="48.70121" lon="-3.44811">
        <ele>80.41</ele>
        <time>2013-05-05T07:37:58Z</time>
      </trkpt>
      <trkpt lat="48.70021" lon="-3.44796">
        <ele>80.41</ele>
        <time>2013-05-05T07:38:15Z</time>
      </trkpt>
      <trkpt lat="48.69921" lon="-3.44781">
        <ele>82.33</ele>
        <time>2013-05-05T07:38:33Z</time>
      </trkpt>
      <trkpt lat="48.69823" lon="-3.44755">
        <ele>83.77</ele>
        <time>2013-05-05T07:38:51Z</time>
      </trkpt>
      <trkpt lat="48.69801" lon="-3.4475">
        <ele>84.73</ele>
        <time>2013-05-05T07:38:55Z</time>
      </trkpt>
      <trkpt lat="48.69723" lon="-3.44721">
        <ele>85.21</ele>
        <time>2013-05-05T07:39:10Z</time>
      </trkpt>
      <trkpt lat="48.69632" lon="-3.44666">
        <ele>87.14</ele>
        <time>2013-05-05T07:39:29Z</time>
      </trkpt>
      <trkpt lat="48.69553" lon="-3.44613">
        <ele>89.54</ele>
        <time>2013-05-05T07:39:46Z</time>
      </trkpt>
      <trkpt lat="48.69489" lon="-3.44559">
        <ele>92.42</ele>
        <time>2013-05-05T07:40:01Z</time>
      </trkpt>
      <trkpt lat="48.69428" lon="-3.44522">
        <ele>94.83</ele>
        <time>2013-05-05T07:40:15Z</time>
      </trkpt>
      <trkpt lat="48.6934" lon="-3.44485">
        <ele>95.31</ele>
        <time>2013-05-05T07:40:33Z</time>
      </trkpt>
      <trkpt lat="48.69251" lon="-3.44482">
        <ele>93.39</ele>
        <time>2013-05-05T07:40:48Z</time>
      </trkpt>
      <trkpt lat="48.69114" lon="-3.44524">
        <ele>93.39</ele>
        <time>2013-05-05T07:41:10Z</time>
      </trkpt>
      <trkpt lat="48.69" lon="-3.44551">
        <ele>91.94</ele>
        <time>2013-05-05T07:41:27Z</time>
      </trkpt>
      <trkpt lat="48.68863" lon="-3.44581">
        <ele>89.54</ele>
        <time>2013-05-05T07:41:47Z</time>
      </trkpt>
      <trkpt lat="48.68746" lon="-3.44583">
        <ele>88.58</ele>
        <time>2013-05-05T07:42:05Z</time>
      </trkpt>
      <trkpt lat="48.68632" lon="-3.44558">
        <ele>90.02</ele>
        <time>2013-05-05T07:42:23Z</time>
      </trkpt>
      <trkpt lat="48.68516" lon="-3.44521">
        <ele>90.02</ele>
        <time>2013-05-05T07:42:42Z</time>
      </trkpt>
      <trkpt lat="48.68407" lon="-3.44509">
        <ele>90.98</ele>
        <time>2013-05-05T07:43:00Z</time>
      </trkpt>
      <trkpt lat="48.68309" lon="-3.44486">
        <ele>90.02</ele>
        <time>2013-05-05T07:43:16Z</time>
      </trkpt>
      <trkpt lat="48.6819" lon="-3.44447">
        <ele>90.02</ele>
        <time>2013-05-05T07:43:36Z</time>
      </trkpt>
      <trkpt lat="48.6809" lon="-3.44421">
        <ele>90.5</ele>
        <time>2013-05-05T07:43:53Z</time>
      </trkpt>
      <trkpt lat="48.67982" lon="-3.44387">
        <ele>92.42</ele>
        <time>2013-05-05T07:44:12Z</time>
      </trkpt>
      <trkpt lat="48.6789" lon="-3.44377">
        <ele>93.39</ele>
        <time>2013-05-05T07:44:28Z</time>
      </trkpt>
      <trkpt lat="48.67796" lon="-3.44412">
        <ele>92.9</ele>
        <time>2013-05-05T07:44:44Z</time>
      </trkpt>
      <trkpt lat="48.67707" lon="-3.44468">
        <ele>94.35</ele>
        <time>2013-05-05T07:45:00Z</time>
      </trkpt>
      <trkpt lat="48.67609" lon="-3.44506">
        <ele>94.35</ele>
        <time>2013-05-05T07:45:17Z</time>
      </trkpt>
      <trkpt lat="48.6749" lon="-3.44511">
        <ele>93.87</ele>
        <time>2013-05-05T07:45:36Z</time>
      </trkpt>
      <trkpt lat="48.67364" lon="-3.44485">
        <ele>93.87</ele>
        <time>2013-05-05T07:45:56Z</time>
      </trkpt>
      <trkpt lat="48.67236" lon="-3.44449">
        <ele>92.9</ele>
        <time>2013-05-05T07:46:16Z</time>
      </trkpt>
      <trkpt lat="48.67118" lon="-3.44445">
        <ele>92.42</ele>
        <time>2013-05-05T07:46:34Z</time>
      </trkpt>
      <trkpt lat="48.66998" lon="-3.44475">
        <ele>92.9</ele>
        <time>2013-05-05T07:46:54Z</time>
      </trkpt>
      <trkpt lat="48.66898" lon="-3.44477">
        <ele>94.83</ele>
        <time>2013-05-05T07:47:11Z</time>
      </trkpt>
      <trkpt lat="48.66761" lon="-3.44462">
        <ele>96.27</ele>
        <time>2013-05-05T07:47:34Z</time>
      </trkpt>
      <trkpt lat="48.66656" lon="-3.44451">
        <ele>97.71</ele>
        <time>2013-05-05T07:47:52Z</time>
      </trkpt>
      <trkpt lat="48.66546" lon="-3.44448">
        <ele>97.71</ele>
        <time>2013-05-05T07:48:10Z</time>
      </trkpt>
      <trkpt lat="48.66411" lon="-3.44453">
        <ele>97.71</ele>
        <time>2013-05-05T07:48:32Z</time>
      </trkpt>
      <trkpt lat="48.66288" lon="-3.44432">
        <ele>96.75</ele>
        <time>2013-05-05T07:48:51Z</time>
      </trkpt>
      <trkpt lat="48.66156" lon="-3.44399">
        <ele>93.39</ele>
        <time>2013-05-05T07:49:10Z</time>
      </trkpt>
      <trkpt lat="48.66018" lon="-3.44365">
        <ele>92.42</ele>
        <time>2013-05-05T07:49:30Z</time>
      </trkpt>
      <trkpt lat="48.65906" lon="-3.44352">
        <ele>94.35</ele>
        <time>2013-05-05T07:49:49Z</time>
      </trkpt>
      <trkpt lat="48.65814" lon="-3.44364">
        <ele>95.79</ele>
        <time>2013-05-05T07:50:06Z</time>
      </trkpt>
      <trkpt lat="48.65722" lon="-3.44396">
        <ele>99.15</ele>
        <time>2013-05-05T07:50:24Z</time>
      </trkpt>
      <trkpt lat="48.65619" lon="-3.44439">
        <ele>100.11</ele>
        <time>2013-05-05T07:50:44Z</time>
      </trkpt>
      <trkpt lat="48.65535" lon="-3.44472">
        <ele>102.04</ele>
        <time>2013-05-05T07:51:00Z</time>
      </trkpt>
      <trkpt lat="48.65459" lon="-3.44501">
        <ele>102.52</ele>
        <time>2013-05-05T07:51:17Z</time>
      </trkpt>
      <trkpt lat="48.65457" lon="-3.445">
        <ele>102.04</ele>
        <time>2013-05-05T07:51:28Z</time>
      </trkpt>
      <trkpt lat="48.65457" lon="-3.44501">
        <ele>102.04</ele>
        <time>2013-05-05T07:52:01Z</time>
      </trkpt>
      <trkpt lat="48.65458" lon="-3.44501">
        <ele>102.52</ele>
        <time>2013-05-05T07:52:36Z</time>
      </trkpt>
      <trkpt lat="48.65457" lon="-3.44501">
        <ele>102.52</ele>
        <time>2013-05-05T07:52:57Z</time>
      </trkpt>
      <trkpt lat="48.65456" lon="-3.44501">
        <ele>102.52</ele>
        <time>2013-05-05T07:52:58Z</time>
      </trkpt>
      <trkpt lat="48.65454" lon="-3.44501">
        <ele>102.52</ele>
        <time>2013-05-05T07:52:59Z</time>
      </trkpt>
      <trkpt lat="48.65427" lon="-3.44512">
        <ele>103</ele>
        <time>2013-05-05T07:53:08Z</time>
      </trkpt>
      <trkpt lat="48.65356" lon="-3.44547">
        <ele>104.44</ele>
        <time>2013-05-05T07:53:23Z</time>
      </trkpt>
      <trkpt lat="48.65239" lon="-3.44592">
        <ele>104.92</ele>
        <time>2013-05-05T07:53:44Z</time>
      </trkpt>
      <trkpt lat="48.65131" lon="-3.44622">
        <ele>104.92</ele>
        <time>2013-05-05T07:54:02Z</time>
      </trkpt>
      <trkpt lat="48.6499" lon="-3.44643">
        <ele>105.88</ele>
        <time>2013-05-05T07:54:25Z</time>
      </trkpt>
      <trkpt lat="48.64876" lon="-3.44633">
        <ele>103.96</ele>
        <time>2013-05-05T07:54:43Z</time>
      </trkpt>
      <trkpt lat="48.64745" lon="-3.44603">
        <ele>103.96</ele>
        <time>2013-05-05T07:55:04Z</time>
      </trkpt>
      <trkpt lat="48.64634" lon="-3.44591">
        <ele>105.4</ele>
        <time>2013-05-05T07:55:23Z</time>
      </trkpt>
      <trkpt lat="48.64535" lon="-3.44621">
        <ele>107.32</ele>
        <time>2013-05-05T07:55:41Z</time>
      </trkpt>
      <trkpt lat="48.64439" lon="-3.44691">
        <ele>108.77</ele>
        <time>2013-05-05T07:56:00Z</time>
      </trkpt>
      <trkpt lat="48.64354" lon="-3.44801">
        <ele>109.73</ele>
        <time>2013-05-05T07:56:19Z</time>
      </trkpt>
      <trkpt lat="48.64262" lon="-3.44936">
        <ele>109.25</ele>
        <time>2013-05-05T07:56:39Z</time>
      </trkpt>
      <trkpt lat="48.64158" lon="-3.4509">
        <ele>107.81</ele>
        <time>2013-05-05T07:57:00Z</time>
      </trkpt>
      <trkpt lat="48.64043" lon="-3.45259">
        <ele>106.84</ele>
        <time>2013-05-05T07:57:23Z</time>
      </trkpt>
      <trkpt lat="48.63945" lon="-3.45404">
        <ele>108.77</ele>
        <time>2013-05-05T07:57:44Z</time>
      </trkpt>
      <trkpt lat="48.63859" lon="-3.45534">
        <ele>110.69</ele>
        <time>2013-05-05T07:58:03Z</time>
      </trkpt>
      <trkpt lat="48.63767" lon="-3.45669">
        <ele>112.13</ele>
        <time>2013-05-05T07:58:23Z</time>
      </trkpt>
      <trkpt lat="48.63684" lon="-3.45781">
        <ele>112.61</ele>
        <time>2013-05-05T07:58:41Z</time>
      </trkpt>
      <trkpt lat="48.63593" lon="-3.4588">
        <ele>114.05</ele>
        <time>2013-05-05T07:59:00Z</time>
      </trkpt>
      <trkpt lat="48.63507" lon="-3.45971">
        <ele>115.98</ele>
        <time>2013-05-05T07:59:18Z</time>
      </trkpt>
      <trkpt lat="48.63431" lon="-3.46051">
        <ele>117.42</ele>
        <time>2013-05-05T07:59:34Z</time>
      </trkpt>
      <trkpt lat="48.63341" lon="-3.46147">
        <ele>118.86</ele>
        <time>2013-05-05T07:59:53Z</time>
      </trkpt>
      <trkpt lat="48.63244" lon="-3.46249">
        <ele>120.78</ele>
        <time>2013-05-05T08:00:13Z</time>
      </trkpt>
      <trkpt lat="48.63164" lon="-3.46333">
        <ele>122.22</ele>
        <time>2013-05-05T08:00:30Z</time>
      </trkpt>
      <trkpt lat="48.63093" lon="-3.46408">
        <ele>123.19</ele>
        <time>2013-05-05T08:00:45Z</time>
      </trkpt>
      <trkpt lat="48.62994" lon="-3.4651">
        <ele>125.11</ele>
        <time>2013-05-05T08:01:05Z</time>
      </trkpt>
      <trkpt lat="48.62908" lon="-3.4657">
        <ele>126.55</ele>
        <time>2013-05-05T08:01:21Z</time>
      </trkpt>
      <trkpt lat="48.62804" lon="-3.46601">
        <ele>127.51</ele>
        <time>2013-05-05T08:01:39Z</time>
      </trkpt>
      <trkpt lat="48.62694" lon="-3.4662">
        <ele>128.47</ele>
        <time>2013-05-05T08:01:58Z</time>
      </trkpt>
      <trkpt lat="48.62572" lon="-3.46635">
        <ele>130.4</ele>
        <time>2013-05-05T08:02:18Z</time>
      </trkpt>
      <trkpt lat="48.62462" lon="-3.46652">
        <ele>130.88</ele>
        <time>2013-05-05T08:02:36Z</time>
      </trkpt>
      <trkpt lat="48.62373" lon="-3.46693">
        <ele>130.88</ele>
        <time>2013-05-05T08:02:51Z</time>
      </trkpt>
      <trkpt lat="48.62264" lon="-3.46729">
        <ele>128.47</ele>
        <time>2013-05-05T08:03:07Z</time>
      </trkpt>
      <trkpt lat="48.62139" lon="-3.46773">
        <ele>126.07</ele>
        <time>2013-05-05T08:03:24Z</time>
      </trkpt>
      <trkpt lat="48.62027" lon="-3.46801">
        <ele>124.63</ele>
        <time>2013-05-05T08:03:40Z</time>
      </trkpt>
      <trkpt lat="48.61908" lon="-3.46822">
        <ele>123.19</ele>
        <time>2013-05-05T08:03:57Z</time>
      </trkpt>
      <trkpt lat="48.61892" lon="-3.46824">
        <ele>122.22</ele>
        <time>2013-05-05T08:03:59Z</time>
      </trkpt>
      <trkpt lat="48.61826" lon="-3.46808">
        <ele>119.34</ele>
        <time>2013-05-05T08:04:07Z</time>
      </trkpt>
      <trkpt lat="48.6181" lon="-3.46803">
        <ele>118.38</ele>
        <time>2013-05-05T08:04:09Z</time>
      </trkpt>
      <trkpt lat="48.61784" lon="-3.46799">
        <ele>117.42</ele>
        <time>2013-05-05T08:04:12Z</time>
      </trkpt>
      <trkpt lat="48.61775" lon="-3.46799">
        <ele>116.94</ele>
        <time>2013-05-05T08:04:13Z</time>
      </trkpt>
      <trkpt lat="48.61767" lon="-3.46801">
        <ele>116.94</ele>
        <time>2013-05-05T08:04:14Z</time>
      </trkpt>
      <trkpt lat="48.6175" lon="-3.46807">
        <ele>116.46</ele>
        <time>2013-05-05T08:04:16Z</time>
      </trkpt>
      <trkpt lat="48.61639" lon="-3.46889">
        <ele>114.05</ele>
        <time>2013-05-05T08:04:31Z</time>
      </trkpt>
      <trkpt lat="48.61549" lon="-3.46975">
        <ele>110.69</ele>
        <time>2013-05-05T08:04:44Z</time>
      </trkpt>
      <trkpt lat="48.61456" lon="-3.47054">
        <ele>109.25</ele>
        <time>2013-05-05T08:04:58Z</time>
      </trkpt>
      <trkpt lat="48.6142" lon="-3.47087">
        <ele>111.65</ele>
        <time>2013-05-05T08:05:06Z</time>
      </trkpt>
      <trkpt lat="48.61407" lon="-3.471">
        <ele>112.13</ele>
        <time>2013-05-05T08:05:09Z</time>
      </trkpt>
      <trkpt lat="48.61403" lon="-3.47103">
        <ele>112.13</ele>
        <time>2013-05-05T08:05:10Z</time>
      </trkpt>
      <trkpt lat="48.61373" lon="-3.47141">
        <ele>113.57</ele>
        <time>2013-05-05T08:05:18Z</time>
      </trkpt>
      <trkpt lat="48.61365" lon="-3.47158">
        <ele>115.01</ele>
        <time>2013-05-05T08:05:21Z</time>
      </trkpt>
      <trkpt lat="48.61362" lon="-3.47163">
        <ele>115.5</ele>
        <time>2013-05-05T08:05:22Z</time>
      </trkpt>
      <trkpt lat="48.61316" lon="-3.47237">
        <ele>118.86</ele>
        <time>2013-05-05T08:05:37Z</time>
      </trkpt>
      <trkpt lat="48.61306" lon="-3.47248">
        <ele>119.34</ele>
        <time>2013-05-05T08:05:40Z</time>
      </trkpt>
      <trkpt lat="48.61298" lon="-3.47255">
        <ele>119.82</ele>
        <time>2013-05-05T08:05:42Z</time>
      </trkpt>
      <trkpt lat="48.61291" lon="-3.47261">
        <ele>119.82</ele>
        <time>2013-05-05T08:05:44Z</time>
      </trkpt>
      <trkpt lat="48.61256" lon="-3.47277">
        <ele>121.26</ele>
        <time>2013-05-05T08:05:52Z</time>
      </trkpt>
      <trkpt lat="48.61234" lon="-3.47318">
        <ele>119.82</ele>
        <time>2013-05-05T08:06:00Z</time>
      </trkpt>
      <trkpt lat="48.61232" lon="-3.47324">
        <ele>119.34</ele>
        <time>2013-05-05T08:06:01Z</time>
      </trkpt>
      <trkpt lat="48.6123" lon="-3.4733">
        <ele>119.34</ele>
        <time>2013-05-05T08:06:02Z</time>
      </trkpt>
      <trkpt lat="48.61214" lon="-3.47359">
        <ele>119.34</ele>
        <time>2013-05-05T08:06:07Z</time>
      </trkpt>
      <trkpt lat="48.61209" lon="-3.47362">
        <ele>118.86</ele>
        <time>2013-05-05T08:06:08Z</time>
      </trkpt>
      <trkpt lat="48.61205" lon="-3.47363">
        <ele>118.86</ele>
        <time>2013-05-05T08:06:09Z</time>
      </trkpt>
      <trkpt lat="48.61202" lon="-3.47362">
        <ele>118.86</ele>
        <time>2013-05-05T08:06:10Z</time>
      </trkpt>
      <trkpt lat="48.612" lon="-3.47361">
        <ele>118.38</ele>
        <time>2013-05-05T08:06:11Z</time>
      </trkpt>
      <trkpt lat="48.61199" lon="-3.4736">
        <ele>118.38</ele>
        <time>2013-05-05T08:06:12Z</time>
      </trkpt>
      <trkpt lat="48.61197" lon="-3.47359">
        <ele>118.38</ele>
        <time>2013-05-05T08:06:13Z</time>
      </trkpt>
      <trkpt lat="48.61194" lon="-3.47356">
        <ele>118.38</ele>
        <time>2013-05-05T08:06:14Z</time>
      </trkpt>
      <trkpt lat="48.61192" lon="-3.47353">
        <ele>118.38</ele>
        <time>2013-05-05T08:06:15Z</time>
      </trkpt>
      <trkpt lat="48.61189" lon="-3.47351">
        <ele>118.38</ele>
        <time>2013-05-05T08:06:16Z</time>
      </trkpt>
      <trkpt lat="48.61185" lon="-3.4735">
        <ele>118.86</ele>
        <time>2013-05-05T08:06:17Z</time>
      </trkpt>
      <trkpt lat="48.61181" lon="-3.4735">
        <ele>117.9</ele>
        <time>2013-05-05T08:06:18Z</time>
      </trkpt>
      <trkpt lat="48.61177" lon="-3.47351">
        <ele>117.9</ele>
        <time>2013-05-05T08:06:19Z</time>
      </trkpt>
      <trkpt lat="48.61172" lon="-3.47354">
        <ele>117.9</ele>
        <time>2013-05-05T08:06:20Z</time>
      </trkpt>
      <trkpt lat="48.61169" lon="-3.47359">
        <ele>117.42</ele>
        <time>2013-05-05T08:06:21Z</time>
      </trkpt>
      <trkpt lat="48.61167" lon="-3.47366">
        <ele>117.42</ele>
        <time>2013-05-05T08:06:22Z</time>
      </trkpt>
      <trkpt lat="48.61165" lon="-3.47374">
        <ele>116.94</ele>
        <time>2013-05-05T08:06:23Z</time>
      </trkpt>
      <trkpt lat="48.6116" lon="-3.47399">
        <ele>117.9</ele>
        <time>2013-05-05T08:06:26Z</time>
      </trkpt>
      <trkpt lat="48.61158" lon="-3.47407">
        <ele>116.94</ele>
        <time>2013-05-05T08:06:27Z</time>
      </trkpt>
      <trkpt lat="48.61142" lon="-3.47454">
        <ele>116.46</ele>
        <time>2013-05-05T08:06:33Z</time>
      </trkpt>
      <trkpt lat="48.61079" lon="-3.47524">
        <ele>116.94</ele>
        <time>2013-05-05T08:06:46Z</time>
      </trkpt>
      <trkpt lat="48.60978" lon="-3.47623">
        <ele>117.42</ele>
        <time>2013-05-05T08:07:05Z</time>
      </trkpt>
      <trkpt lat="48.60888" lon="-3.4773">
        <ele>116.94</ele>
        <time>2013-05-05T08:07:23Z</time>
      </trkpt>
      <trkpt lat="48.60837" lon="-3.47793">
        <ele>119.82</ele>
        <time>2013-05-05T08:07:35Z</time>
      </trkpt>
      <trkpt lat="48.60794" lon="-3.47841">
        <ele>120.78</ele>
        <time>2013-05-05T08:07:45Z</time>
      </trkpt>
      <trkpt lat="48.60738" lon="-3.47877">
        <ele>122.22</ele>
        <time>2013-05-05T08:07:56Z</time>
      </trkpt>
      <trkpt lat="48.60734" lon="-3.47882">
        <ele>122.22</ele>
        <time>2013-05-05T08:07:57Z</time>
      </trkpt>
      <trkpt lat="48.60731" lon="-3.47888">
        <ele>122.71</ele>
        <time>2013-05-05T08:07:58Z</time>
      </trkpt>
      <trkpt lat="48.60728" lon="-3.47894">
        <ele>123.19</ele>
        <time>2013-05-05T08:07:59Z</time>
      </trkpt>
      <trkpt lat="48.60726" lon="-3.479">
        <ele>123.19</ele>
        <time>2013-05-05T08:08:00Z</time>
      </trkpt>
      <trkpt lat="48.60724" lon="-3.47906">
        <ele>123.67</ele>
        <time>2013-05-05T08:08:01Z</time>
      </trkpt>
      <trkpt lat="48.607" lon="-3.47979">
        <ele>127.03</ele>
        <time>2013-05-05T08:08:14Z</time>
      </trkpt>
      <trkpt lat="48.60676" lon="-3.48044">
        <ele>130.88</ele>
        <time>2013-05-05T08:08:26Z</time>
      </trkpt>
      <trkpt lat="48.60639" lon="-3.48153">
        <ele>133.28</ele>
        <time>2013-05-05T08:08:45Z</time>
      </trkpt>
      <trkpt lat="48.60636" lon="-3.48165">
        <ele>133.76</ele>
        <time>2013-05-05T08:08:47Z</time>
      </trkpt>
      <trkpt lat="48.6059" lon="-3.48255">
        <ele>136.64</ele>
        <time>2013-05-05T08:09:04Z</time>
      </trkpt>
      <trkpt lat="48.60547" lon="-3.48336">
        <ele>140.01</ele>
        <time>2013-05-05T08:09:19Z</time>
      </trkpt>
      <trkpt lat="48.60507" lon="-3.48429">
        <ele>143.37</ele>
        <time>2013-05-05T08:09:35Z</time>
      </trkpt>
      <trkpt lat="48.6048" lon="-3.48499">
        <ele>146.26</ele>
        <time>2013-05-05T08:09:47Z</time>
      </trkpt>
      <trkpt lat="48.60436" lon="-3.48562">
        <ele>149.62</ele>
        <time>2013-05-05T08:10:00Z</time>
      </trkpt>
      <trkpt lat="48.60366" lon="-3.48628">
        <ele>152.51</ele>
        <time>2013-05-05T08:10:17Z</time>
      </trkpt>
      <trkpt lat="48.60302" lon="-3.48684">
        <ele>155.87</ele>
        <time>2013-05-05T08:10:32Z</time>
      </trkpt>
      <trkpt lat="48.60251" lon="-3.48763">
        <ele>158.27</ele>
        <time>2013-05-05T08:10:47Z</time>
      </trkpt>
      <trkpt lat="48.60201" lon="-3.48845">
        <ele>161.64</ele>
        <time>2013-05-05T08:11:00Z</time>
      </trkpt>
      <trkpt lat="48.60109" lon="-3.48929">
        <ele>163.08</ele>
        <time>2013-05-05T08:11:16Z</time>
      </trkpt>
      <trkpt lat="48.60005" lon="-3.49019">
        <ele>165</ele>
        <time>2013-05-05T08:11:33Z</time>
      </trkpt>
      <trkpt lat="48.59887" lon="-3.49118">
        <ele>166.93</ele>
        <time>2013-05-05T08:11:53Z</time>
      </trkpt>
      <trkpt lat="48.59789" lon="-3.49171">
        <ele>168.37</ele>
        <time>2013-05-05T08:12:08Z</time>
      </trkpt>
      <trkpt lat="48.59666" lon="-3.49227">
        <ele>167.89</ele>
        <time>2013-05-05T08:12:25Z</time>
      </trkpt>
      <trkpt lat="48.59554" lon="-3.49305">
        <ele>167.89</ele>
        <time>2013-05-05T08:12:41Z</time>
      </trkpt>
      <trkpt lat="48.59436" lon="-3.49422">
        <ele>168.37</ele>
        <time>2013-05-05T08:12:58Z</time>
      </trkpt>
      <trkpt lat="48.59308" lon="-3.49512">
        <ele>166.93</ele>
        <time>2013-05-05T08:13:15Z</time>
      </trkpt>
      <trkpt lat="48.59177" lon="-3.49567">
        <ele>165.48</ele>
        <time>2013-05-05T08:13:32Z</time>
      </trkpt>
      <trkpt lat="48.59059" lon="-3.49597">
        <ele>165.48</ele>
        <time>2013-05-05T08:13:48Z</time>
      </trkpt>
      <trkpt lat="48.58949" lon="-3.49584">
        <ele>165.96</ele>
        <time>2013-05-05T08:14:03Z</time>
      </trkpt>
      <trkpt lat="48.58817" lon="-3.49553">
        <ele>165.96</ele>
        <time>2013-05-05T08:14:21Z</time>
      </trkpt>
      <trkpt lat="48.58647" lon="-3.49512">
        <ele>164.04</ele>
        <time>2013-05-05T08:14:43Z</time>
      </trkpt>
      <trkpt lat="48.58507" lon="-3.49486">
        <ele>160.2</ele>
        <time>2013-05-05T08:15:00Z</time>
      </trkpt>
      <trkpt lat="48.5841" lon="-3.49471">
        <ele>157.31</ele>
        <time>2013-05-05T08:15:11Z</time>
      </trkpt>
      <trkpt lat="48.58279" lon="-3.49454">
        <ele>154.43</ele>
        <time>2013-05-05T08:15:25Z</time>
      </trkpt>
      <trkpt lat="48.58162" lon="-3.49457">
        <ele>151.06</ele>
        <time>2013-05-05T08:15:38Z</time>
      </trkpt>
      <trkpt lat="48.58019" lon="-3.49466">
        <ele>149.62</ele>
        <time>2013-05-05T08:15:55Z</time>
      </trkpt>
      <trkpt lat="48.5788" lon="-3.49474">
        <ele>147.22</ele>
        <time>2013-05-05T08:16:12Z</time>
      </trkpt>
      <trkpt lat="48.5775" lon="-3.49481">
        <ele>147.7</ele>
        <time>2013-05-05T08:16:28Z</time>
      </trkpt>
      <trkpt lat="48.57637" lon="-3.49488">
        <ele>146.74</ele>
        <time>2013-05-05T08:16:43Z</time>
      </trkpt>
      <trkpt lat="48.57509" lon="-3.49494">
        <ele>148.18</ele>
        <time>2013-05-05T08:17:01Z</time>
      </trkpt>
      <trkpt lat="48.57398" lon="-3.49501">
        <ele>149.14</ele>
        <time>2013-05-05T08:17:17Z</time>
      </trkpt>
      <trkpt lat="48.57271" lon="-3.49508">
        <ele>150.58</ele>
        <time>2013-05-05T08:17:36Z</time>
      </trkpt>
      <trkpt lat="48.57177" lon="-3.49514">
        <ele>153.47</ele>
        <time>2013-05-05T08:17:51Z</time>
      </trkpt>
      <trkpt lat="48.57076" lon="-3.4952">
        <ele>156.83</ele>
        <time>2013-05-05T08:18:09Z</time>
      </trkpt>
      <trkpt lat="48.56971" lon="-3.49525">
        <ele>160.68</ele>
        <time>2013-05-05T08:18:28Z</time>
      </trkpt>
      <trkpt lat="48.56867" lon="-3.49534">
        <ele>162.6</ele>
        <time>2013-05-05T08:18:47Z</time>
      </trkpt>
      <trkpt lat="48.56796" lon="-3.49548">
        <ele>164.52</ele>
        <time>2013-05-05T08:19:01Z</time>
      </trkpt>
      <trkpt lat="48.56792" lon="-3.49549">
        <ele>164.52</ele>
        <time>2013-05-05T08:19:02Z</time>
      </trkpt>
      <trkpt lat="48.5674" lon="-3.49564">
        <ele>165.96</ele>
        <time>2013-05-05T08:19:16Z</time>
      </trkpt>
      <trkpt lat="48.56734" lon="-3.49567">
        <ele>165.96</ele>
        <time>2013-05-05T08:19:26Z</time>
      </trkpt>
      <trkpt lat="48.56734" lon="-3.49566">
        <ele>165.96</ele>
        <time>2013-05-05T08:19:50Z</time>
      </trkpt>
      <trkpt lat="48.56734" lon="-3.49565">
        <ele>165.96</ele>
        <time>2013-05-05T08:20:15Z</time>
      </trkpt>
      <trkpt lat="48.56734" lon="-3.49565">
        <ele>165.96</ele>
        <time>2013-05-05T08:20:42Z</time>
      </trkpt>
      <trkpt lat="48.56735" lon="-3.49565">
        <ele>165.96</ele>
        <time>2013-05-05T08:21:06Z</time>
      </trkpt>
      <trkpt lat="48.56731" lon="-3.49566">
        <ele>166.45</ele>
        <time>2013-05-05T08:21:09Z</time>
      </trkpt>
      <trkpt lat="48.56683" lon="-3.49586">
        <ele>168.37</ele>
        <time>2013-05-05T08:21:21Z</time>
      </trkpt>
      <trkpt lat="48.5662" lon="-3.49618">
        <ele>171.73</ele>
        <time>2013-05-05T08:21:36Z</time>
      </trkpt>
      <trkpt lat="48.5657" lon="-3.49648">
        <ele>174.62</ele>
        <time>2013-05-05T08:21:49Z</time>
      </trkpt>
      <trkpt lat="48.56551" lon="-3.4966">
        <ele>176.06</ele>
        <time>2013-05-05T08:21:54Z</time>
      </trkpt>
      <trkpt lat="48.56547" lon="-3.49663">
        <ele>176.54</ele>
        <time>2013-05-05T08:21:55Z</time>
      </trkpt>
      <trkpt lat="48.56535" lon="-3.49672">
        <ele>177.02</ele>
        <time>2013-05-05T08:21:58Z</time>
      </trkpt>
      <trkpt lat="48.56506" lon="-3.49692">
        <ele>178.94</ele>
        <time>2013-05-05T08:22:06Z</time>
      </trkpt>
      <trkpt lat="48.56502" lon="-3.49694">
        <ele>179.42</ele>
        <time>2013-05-05T08:22:07Z</time>
      </trkpt>
      <trkpt lat="48.56498" lon="-3.49697">
        <ele>179.42</ele>
        <time>2013-05-05T08:22:08Z</time>
      </trkpt>
      <trkpt lat="48.56475" lon="-3.49715">
        <ele>180.87</ele>
        <time>2013-05-05T08:22:14Z</time>
      </trkpt>
      <trkpt lat="48.5642" lon="-3.49754">
        <ele>184.71</ele>
        <time>2013-05-05T08:22:28Z</time>
      </trkpt>
      <trkpt lat="48.56373" lon="-3.49788">
        <ele>187.11</ele>
        <time>2013-05-05T08:22:41Z</time>
      </trkpt>
      <trkpt lat="48.56324" lon="-3.49823">
        <ele>190</ele>
        <time>2013-05-05T08:22:55Z</time>
      </trkpt>
      <trkpt lat="48.56269" lon="-3.49861">
        <ele>192.4</ele>
        <time>2013-05-05T08:23:11Z</time>
      </trkpt>
      <trkpt lat="48.56214" lon="-3.49901">
        <ele>193.84</ele>
        <time>2013-05-05T08:23:27Z</time>
      </trkpt>
      <trkpt lat="48.56179" lon="-3.49913">
        <ele>193.36</ele>
        <time>2013-05-05T08:23:40Z</time>
      </trkpt>
      <trkpt lat="48.56179" lon="-3.49912">
        <ele>193.36</ele>
        <time>2013-05-05T08:23:54Z</time>
      </trkpt>
      <trkpt lat="48.56178" lon="-3.49911">
        <ele>193.36</ele>
        <time>2013-05-05T08:24:07Z</time>
      </trkpt>
      <trkpt lat="48.56178" lon="-3.49912">
        <ele>193.36</ele>
        <time>2013-05-05T08:24:33Z</time>
      </trkpt>
      <trkpt lat="48.56178" lon="-3.49912">
        <ele>193.36</ele>
        <time>2013-05-05T08:25:04Z</time>
      </trkpt>
      <trkpt lat="48.56178" lon="-3.49912">
        <ele>193.36</ele>
        <time>2013-05-05T08:25:34Z</time>
      </trkpt>
      <trkpt lat="48.56177" lon="-3.49912">
        <ele>193.36</ele>
        <time>2013-05-05T08:25:57Z</time>
      </trkpt>
      <trkpt lat="48.56177" lon="-3.49912">
        <ele>193.36</ele>
        <time>2013-05-05T08:26:28Z</time>
      </trkpt>
      <trkpt lat="48.56177" lon="-3.49912">
        <ele>193.36</ele>
        <time>2013-05-05T08:27:02Z</time>
      </trkpt>
      <trkpt lat="48.56178" lon="-3.49912">
        <ele>193.36</ele>
        <time>2013-05-05T08:27:20Z</time>
      </trkpt>
      <trkpt lat="48.56179" lon="-3.49912">
        <ele>193.84</ele>
        <time>2013-05-05T08:27:21Z</time>
      </trkpt>
      <trkpt lat="48.56181" lon="-3.49912">
        <ele>193.84</ele>
        <time>2013-05-05T08:27:22Z</time>
      </trkpt>
      <trkpt lat="48.56182" lon="-3.49914">
        <ele>193.84</ele>
        <time>2013-05-05T08:27:24Z</time>
      </trkpt>
      <trkpt lat="48.56182" lon="-3.49915">
        <ele>193.84</ele>
        <time>2013-05-05T08:27:25Z</time>
      </trkpt>
      <trkpt lat="48.56183" lon="-3.49917">
        <ele>193.84</ele>
        <time>2013-05-05T08:27:26Z</time>
      </trkpt>
      <trkpt lat="48.56182" lon="-3.49919">
        <ele>193.84</ele>
        <time>2013-05-05T08:27:27Z</time>
      </trkpt>
      <trkpt lat="48.56181" lon="-3.49922">
        <ele>193.84</ele>
        <time>2013-05-05T08:27:28Z</time>
      </trkpt>
      <trkpt lat="48.5618" lon="-3.49925">
        <ele>193.84</ele>
        <time>2013-05-05T08:27:29Z</time>
      </trkpt>
      <trkpt lat="48.56178" lon="-3.49928">
        <ele>194.32</ele>
        <time>2013-05-05T08:27:30Z</time>
      </trkpt>
      <trkpt lat="48.56176" lon="-3.49932">
        <ele>194.32</ele>
        <time>2013-05-05T08:27:31Z</time>
      </trkpt>
      <trkpt lat="48.56173" lon="-3.49935">
        <ele>194.32</ele>
        <time>2013-05-05T08:27:32Z</time>
      </trkpt>
      <trkpt lat="48.56116" lon="-3.50008">
        <ele>193.84</ele>
        <time>2013-05-05T08:27:46Z</time>
      </trkpt>
      <trkpt lat="48.56019" lon="-3.50158">
        <ele>190.96</ele>
        <time>2013-05-05T08:28:06Z</time>
      </trkpt>
      <trkpt lat="48.55919" lon="-3.50269">
        <ele>189.52</ele>
        <time>2013-05-05T08:28:24Z</time>
      </trkpt>
      <trkpt lat="48.55827" lon="-3.50367">
        <ele>186.63</ele>
        <time>2013-05-05T08:28:39Z</time>
      </trkpt>
      <trkpt lat="48.55735" lon="-3.50461">
        <ele>183.27</ele>
        <time>2013-05-05T08:28:53Z</time>
      </trkpt>
      <trkpt lat="48.55613" lon="-3.50566">
        <ele>181.35</ele>
        <time>2013-05-05T08:29:12Z</time>
      </trkpt>
      <trkpt lat="48.55494" lon="-3.50648">
        <ele>177.98</ele>
        <time>2013-05-05T08:29:30Z</time>
      </trkpt>
      <trkpt lat="48.55381" lon="-3.50664">
        <ele>175.58</ele>
        <time>2013-05-05T08:29:45Z</time>
      </trkpt>
      <trkpt lat="48.55275" lon="-3.50627">
        <ele>172.69</ele>
        <time>2013-05-05T08:30:00Z</time>
      </trkpt>
      <trkpt lat="48.55191" lon="-3.50539">
        <ele>169.81</ele>
        <time>2013-05-05T08:30:14Z</time>
      </trkpt>
      <trkpt lat="48.55122" lon="-3.50468">
        <ele>166.45</ele>
        <time>2013-05-05T08:30:25Z</time>
      </trkpt>
      <trkpt lat="48.55069" lon="-3.50441">
        <ele>164.52</ele>
        <time>2013-05-05T08:30:32Z</time>
      </trkpt>
      <trkpt lat="48.55014" lon="-3.50416">
        <ele>162.6</ele>
        <time>2013-05-05T08:30:39Z</time>
      </trkpt>
      <trkpt lat="48.54943" lon="-3.50385">
        <ele>160.68</ele>
        <time>2013-05-05T08:30:49Z</time>
      </trkpt>
      <trkpt lat="48.5486" lon="-3.50355">
        <ele>162.6</ele>
        <time>2013-05-05T08:31:05Z</time>
      </trkpt>
      <trkpt lat="48.54752" lon="-3.50321">
        <ele>165</ele>
        <time>2013-05-05T08:31:26Z</time>
      </trkpt>
      <trkpt lat="48.54639" lon="-3.50272">
        <ele>162.12</ele>
        <time>2013-05-05T08:31:44Z</time>
      </trkpt>
      <trkpt lat="48.54532" lon="-3.50239">
        <ele>160.2</ele>
        <time>2013-05-05T08:32:00Z</time>
      </trkpt>
      <trkpt lat="48.54447" lon="-3.50213">
        <ele>162.12</ele>
        <time>2013-05-05T08:32:16Z</time>
      </trkpt>
      <trkpt lat="48.54393" lon="-3.50194">
        <ele>163.08</ele>
        <time>2013-05-05T08:32:28Z</time>
      </trkpt>
      <trkpt lat="48.54327" lon="-3.50157">
        <ele>164.04</ele>
        <time>2013-05-05T08:32:42Z</time>
      </trkpt>
      <trkpt lat="48.54267" lon="-3.50123">
        <ele>166.45</ele>
        <time>2013-05-05T08:32:55Z</time>
      </trkpt>
      <trkpt lat="48.54195" lon="-3.50091">
        <ele>169.33</ele>
        <time>2013-05-05T08:33:12Z</time>
      </trkpt>
      <trkpt lat="48.54146" lon="-3.50077">
        <ele>171.25</ele>
        <time>2013-05-05T08:33:24Z</time>
      </trkpt>
      <trkpt lat="48.5408" lon="-3.50059">
        <ele>174.14</ele>
        <time>2013-05-05T08:33:39Z</time>
      </trkpt>
      <trkpt lat="48.5399" lon="-3.50035">
        <ele>175.58</ele>
        <time>2013-05-05T08:33:58Z</time>
      </trkpt>
      <trkpt lat="48.53918" lon="-3.50038">
        <ele>176.54</ele>
        <time>2013-05-05T08:34:12Z</time>
      </trkpt>
      <trkpt lat="48.53901" lon="-3.50046">
        <ele>177.5</ele>
        <time>2013-05-05T08:34:16Z</time>
      </trkpt>
      <trkpt lat="48.53852" lon="-3.50099">
        <ele>180.87</ele>
        <time>2013-05-05T08:34:30Z</time>
      </trkpt>
      <trkpt lat="48.53836" lon="-3.50114">
        <ele>181.35</ele>
        <time>2013-05-05T08:34:34Z</time>
      </trkpt>
      <trkpt lat="48.53832" lon="-3.50117">
        <ele>181.35</ele>
        <time>2013-05-05T08:34:35Z</time>
      </trkpt>
      <trkpt lat="48.53761" lon="-3.50153">
        <ele>181.83</ele>
        <time>2013-05-05T08:34:49Z</time>
      </trkpt>
      <trkpt lat="48.53663" lon="-3.50182">
        <ele>181.35</ele>
        <time>2013-05-05T08:35:05Z</time>
      </trkpt>
      <trkpt lat="48.53534" lon="-3.50179">
        <ele>178.94</ele>
        <time>2013-05-05T08:35:24Z</time>
      </trkpt>
      <trkpt lat="48.53406" lon="-3.5016">
        <ele>176.54</ele>
        <time>2013-05-05T08:35:42Z</time>
      </trkpt>
      <trkpt lat="48.53386" lon="-3.50155">
        <ele>176.06</ele>
        <time>2013-05-05T08:35:45Z</time>
      </trkpt>
      <trkpt lat="48.53285" lon="-3.50135">
        <ele>173.17</ele>
        <time>2013-05-05T08:35:59Z</time>
      </trkpt>
      <trkpt lat="48.53186" lon="-3.50101">
        <ele>173.66</ele>
        <time>2013-05-05T08:36:14Z</time>
      </trkpt>
      <trkpt lat="48.53106" lon="-3.50031">
        <ele>172.21</ele>
        <time>2013-05-05T08:36:28Z</time>
      </trkpt>
      <trkpt lat="48.53053" lon="-3.49946">
        <ele>169.33</ele>
        <time>2013-05-05T08:36:38Z</time>
      </trkpt>
      <trkpt lat="48.52978" lon="-3.49844">
        <ele>166.93</ele>
        <time>2013-05-05T08:36:51Z</time>
      </trkpt>
      <trkpt lat="48.52874" lon="-3.49749">
        <ele>166.45</ele>
        <time>2013-05-05T08:37:07Z</time>
      </trkpt>
      <trkpt lat="48.52801" lon="-3.4973">
        <ele>165.96</ele>
        <time>2013-05-05T08:37:18Z</time>
      </trkpt>
      <trkpt lat="48.52741" lon="-3.49721">
        <ele>165.96</ele>
        <time>2013-05-05T08:37:27Z</time>
      </trkpt>
      <trkpt lat="48.52664" lon="-3.4966">
        <ele>165</ele>
        <time>2013-05-05T08:37:40Z</time>
      </trkpt>
      <trkpt lat="48.52622" lon="-3.49567">
        <ele>164.04</ele>
        <time>2013-05-05T08:37:51Z</time>
      </trkpt>
      <trkpt lat="48.52604" lon="-3.49392">
        <ele>161.16</ele>
        <time>2013-05-05T08:38:07Z</time>
      </trkpt>
      <trkpt lat="48.52591" lon="-3.49214">
        <ele>159.24</ele>
        <time>2013-05-05T08:38:23Z</time>
      </trkpt>
      <trkpt lat="48.52579" lon="-3.49073">
        <ele>159.72</ele>
        <time>2013-05-05T08:38:37Z</time>
      </trkpt>
      <trkpt lat="48.52577" lon="-3.49064">
        <ele>159.72</ele>
        <time>2013-05-05T08:38:38Z</time>
      </trkpt>
      <trkpt lat="48.52556" lon="-3.49016">
        <ele>159.72</ele>
        <time>2013-05-05T08:38:44Z</time>
      </trkpt>
      <trkpt lat="48.52485" lon="-3.48906">
        <ele>159.72</ele>
        <time>2013-05-05T08:39:00Z</time>
      </trkpt>
      <trkpt lat="48.52411" lon="-3.48808">
        <ele>156.83</ele>
        <time>2013-05-05T08:39:14Z</time>
      </trkpt>
      <trkpt lat="48.52312" lon="-3.48721">
        <ele>153.47</ele>
        <time>2013-05-05T08:39:29Z</time>
      </trkpt>
      <trkpt lat="48.52264" lon="-3.48694">
        <ele>152.03</ele>
        <time>2013-05-05T08:39:36Z</time>
      </trkpt>
      <trkpt lat="48.52257" lon="-3.48693">
        <ele>151.54</ele>
        <time>2013-05-05T08:39:37Z</time>
      </trkpt>
      <trkpt lat="48.5225" lon="-3.48692">
        <ele>151.06</ele>
        <time>2013-05-05T08:39:38Z</time>
      </trkpt>
      <trkpt lat="48.52243" lon="-3.48691">
        <ele>151.06</ele>
        <time>2013-05-05T08:39:39Z</time>
      </trkpt>
      <trkpt lat="48.52236" lon="-3.48692">
        <ele>151.06</ele>
        <time>2013-05-05T08:39:40Z</time>
      </trkpt>
      <trkpt lat="48.52229" lon="-3.48693">
        <ele>150.58</ele>
        <time>2013-05-05T08:39:41Z</time>
      </trkpt>
      <trkpt lat="48.52222" lon="-3.48695">
        <ele>150.58</ele>
        <time>2013-05-05T08:39:42Z</time>
      </trkpt>
      <trkpt lat="48.52216" lon="-3.48699">
        <ele>150.1</ele>
        <time>2013-05-05T08:39:43Z</time>
      </trkpt>
      <trkpt lat="48.52211" lon="-3.48703">
        <ele>150.1</ele>
        <time>2013-05-05T08:39:44Z</time>
      </trkpt>
      <trkpt lat="48.52206" lon="-3.48708">
        <ele>150.58</ele>
        <time>2013-05-05T08:39:45Z</time>
      </trkpt>
      <trkpt lat="48.52202" lon="-3.48713">
        <ele>150.1</ele>
        <time>2013-05-05T08:39:46Z</time>
      </trkpt>
      <trkpt lat="48.52198" lon="-3.4872">
        <ele>150.58</ele>
        <time>2013-05-05T08:39:47Z</time>
      </trkpt>
      <trkpt lat="48.52195" lon="-3.48727">
        <ele>150.58</ele>
        <time>2013-05-05T08:39:48Z</time>
      </trkpt>
      <trkpt lat="48.52192" lon="-3.48734">
        <ele>150.58</ele>
        <time>2013-05-05T08:39:49Z</time>
      </trkpt>
      <trkpt lat="48.52173" lon="-3.48777">
        <ele>151.06</ele>
        <time>2013-05-05T08:39:55Z</time>
      </trkpt>
      <trkpt lat="48.52169" lon="-3.48783">
        <ele>151.06</ele>
        <time>2013-05-05T08:39:56Z</time>
      </trkpt>
      <trkpt lat="48.52164" lon="-3.48787">
        <ele>151.06</ele>
        <time>2013-05-05T08:39:57Z</time>
      </trkpt>
      <trkpt lat="48.52159" lon="-3.48788">
        <ele>151.06</ele>
        <time>2013-05-05T08:39:58Z</time>
      </trkpt>
      <trkpt lat="48.52153" lon="-3.48788">
        <ele>151.06</ele>
        <time>2013-05-05T08:39:59Z</time>
      </trkpt>
      <trkpt lat="48.52147" lon="-3.48786">
        <ele>151.54</ele>
        <time>2013-05-05T08:40:00Z</time>
      </trkpt>
      <trkpt lat="48.52117" lon="-3.48776">
        <ele>152.03</ele>
        <time>2013-05-05T08:40:05Z</time>
      </trkpt>
      <trkpt lat="48.52074" lon="-3.48762">
        <ele>153.47</ele>
        <time>2013-05-05T08:40:14Z</time>
      </trkpt>
      <trkpt lat="48.5207" lon="-3.4876">
        <ele>153.95</ele>
        <time>2013-05-05T08:40:15Z</time>
      </trkpt>
      <trkpt lat="48.52066" lon="-3.4876">
        <ele>153.95</ele>
        <time>2013-05-05T08:40:16Z</time>
      </trkpt>
      <trkpt lat="48.52062" lon="-3.48762">
        <ele>154.43</ele>
        <time>2013-05-05T08:40:17Z</time>
      </trkpt>
      <trkpt lat="48.52058" lon="-3.48765">
        <ele>154.43</ele>
        <time>2013-05-05T08:40:18Z</time>
      </trkpt>
      <trkpt lat="48.52055" lon="-3.48769">
        <ele>154.91</ele>
        <time>2013-05-05T08:40:19Z</time>
      </trkpt>
      <trkpt lat="48.52051" lon="-3.48773">
        <ele>154.91</ele>
        <time>2013-05-05T08:40:20Z</time>
      </trkpt>
      <trkpt lat="48.52048" lon="-3.48778">
        <ele>154.91</ele>
        <time>2013-05-05T08:40:21Z</time>
      </trkpt>
      <trkpt lat="48.52037" lon="-3.48793">
        <ele>155.87</ele>
        <time>2013-05-05T08:40:24Z</time>
      </trkpt>
      <trkpt lat="48.51968" lon="-3.48867">
        <ele>158.27</ele>
        <time>2013-05-05T08:40:41Z</time>
      </trkpt>
      <trkpt lat="48.51936" lon="-3.48904">
        <ele>159.24</ele>
        <time>2013-05-05T08:40:49Z</time>
      </trkpt>
      <trkpt lat="48.51931" lon="-3.48908">
        <ele>159.72</ele>
        <time>2013-05-05T08:40:50Z</time>
      </trkpt>
      <trkpt lat="48.51927" lon="-3.48912">
        <ele>159.72</ele>
        <time>2013-05-05T08:40:51Z</time>
      </trkpt>
      <trkpt lat="48.51923" lon="-3.48916">
        <ele>159.72</ele>
        <time>2013-05-05T08:40:52Z</time>
      </trkpt>
      <trkpt lat="48.51919" lon="-3.4892">
        <ele>160.68</ele>
        <time>2013-05-05T08:40:53Z</time>
      </trkpt>
      <trkpt lat="48.51848" lon="-3.49016">
        <ele>163.08</ele>
        <time>2013-05-05T08:41:13Z</time>
      </trkpt>
      <trkpt lat="48.51823" lon="-3.49123">
        <ele>165.96</ele>
        <time>2013-05-05T08:41:29Z</time>
      </trkpt>
      <trkpt lat="48.5181" lon="-3.49159">
        <ele>167.41</ele>
        <time>2013-05-05T08:41:35Z</time>
      </trkpt>
      <trkpt lat="48.51807" lon="-3.49165">
        <ele>167.41</ele>
        <time>2013-05-05T08:41:36Z</time>
      </trkpt>
      <trkpt lat="48.5179" lon="-3.49189">
        <ele>168.37</ele>
        <time>2013-05-05T08:41:41Z</time>
      </trkpt>
      <trkpt lat="48.51786" lon="-3.49192">
        <ele>168.85</ele>
        <time>2013-05-05T08:41:42Z</time>
      </trkpt>
      <trkpt lat="48.51708" lon="-3.49238">
        <ele>171.25</ele>
        <time>2013-05-05T08:41:59Z</time>
      </trkpt>
      <trkpt lat="48.51699" lon="-3.49243">
        <ele>171.73</ele>
        <time>2013-05-05T08:42:01Z</time>
      </trkpt>
      <trkpt lat="48.51672" lon="-3.49256">
        <ele>172.21</ele>
        <time>2013-05-05T08:42:07Z</time>
      </trkpt>
      <trkpt lat="48.51668" lon="-3.49258">
        <ele>172.69</ele>
        <time>2013-05-05T08:42:08Z</time>
      </trkpt>
      <trkpt lat="48.51663" lon="-3.49259">
        <ele>172.69</ele>
        <time>2013-05-05T08:42:09Z</time>
      </trkpt>
      <trkpt lat="48.51659" lon="-3.49261">
        <ele>173.17</ele>
        <time>2013-05-05T08:42:10Z</time>
      </trkpt>
      <trkpt lat="48.51654" lon="-3.49263">
        <ele>173.17</ele>
        <time>2013-05-05T08:42:11Z</time>
      </trkpt>
      <trkpt lat="48.5165" lon="-3.49265">
        <ele>173.17</ele>
        <time>2013-05-05T08:42:12Z</time>
      </trkpt>
      <trkpt lat="48.51645" lon="-3.49266">
        <ele>173.66</ele>
        <time>2013-05-05T08:42:13Z</time>
      </trkpt>
      <trkpt lat="48.51626" lon="-3.49269">
        <ele>173.66</ele>
        <time>2013-05-05T08:42:17Z</time>
      </trkpt>
      <trkpt lat="48.51621" lon="-3.49269">
        <ele>173.66</ele>
        <time>2013-05-05T08:42:18Z</time>
      </trkpt>
      <trkpt lat="48.51616" lon="-3.49268">
        <ele>174.14</ele>
        <time>2013-05-05T08:42:19Z</time>
      </trkpt>
      <trkpt lat="48.51593" lon="-3.49257">
        <ele>175.1</ele>
        <time>2013-05-05T08:42:24Z</time>
      </trkpt>
      <trkpt lat="48.5153" lon="-3.49183">
        <ele>177.5</ele>
        <time>2013-05-05T08:42:41Z</time>
      </trkpt>
      <trkpt lat="48.51475" lon="-3.49107">
        <ele>180.87</ele>
        <time>2013-05-05T08:42:57Z</time>
      </trkpt>
      <trkpt lat="48.51418" lon="-3.4903">
        <ele>183.75</ele>
        <time>2013-05-05T08:43:14Z</time>
      </trkpt>
      <trkpt lat="48.51365" lon="-3.48957">
        <ele>186.15</ele>
        <time>2013-05-05T08:43:30Z</time>
      </trkpt>
      <trkpt lat="48.51349" lon="-3.48934">
        <ele>187.11</ele>
        <time>2013-05-05T08:43:35Z</time>
      </trkpt>
      <trkpt lat="48.51289" lon="-3.48866">
        <ele>190.48</ele>
        <time>2013-05-05T08:43:52Z</time>
      </trkpt>
      <trkpt lat="48.51222" lon="-3.48833">
        <ele>193.36</ele>
        <time>2013-05-05T08:44:08Z</time>
      </trkpt>
      <trkpt lat="48.51145" lon="-3.48798">
        <ele>196.73</ele>
        <time>2013-05-05T08:44:27Z</time>
      </trkpt>
      <trkpt lat="48.51072" lon="-3.48742">
        <ele>199.13</ele>
        <time>2013-05-05T08:44:46Z</time>
      </trkpt>
      <trkpt lat="48.50992" lon="-3.48701">
        <ele>202.01</ele>
        <time>2013-05-05T08:45:06Z</time>
      </trkpt>
      <trkpt lat="48.50984" lon="-3.48702">
        <ele>202.49</ele>
        <time>2013-05-05T08:45:08Z</time>
      </trkpt>
      <trkpt lat="48.5093" lon="-3.48734">
        <ele>205.38</ele>
        <time>2013-05-05T08:45:22Z</time>
      </trkpt>
      <trkpt lat="48.50861" lon="-3.48775">
        <ele>208.26</ele>
        <time>2013-05-05T08:45:40Z</time>
      </trkpt>
      <trkpt lat="48.50838" lon="-3.48789">
        <ele>209.22</ele>
        <time>2013-05-05T08:45:46Z</time>
      </trkpt>
      <trkpt lat="48.50754" lon="-3.48851">
        <ele>210.67</ele>
        <time>2013-05-05T08:46:05Z</time>
      </trkpt>
      <trkpt lat="48.50658" lon="-3.48915">
        <ele>212.11</ele>
        <time>2013-05-05T08:46:25Z</time>
      </trkpt>
      <trkpt lat="48.50604" lon="-3.48956">
        <ele>214.51</ele>
        <time>2013-05-05T08:46:37Z</time>
      </trkpt>
      <trkpt lat="48.50535" lon="-3.49024">
        <ele>214.03</ele>
        <time>2013-05-05T08:46:53Z</time>
      </trkpt>
      <trkpt lat="48.50462" lon="-3.49088">
        <ele>214.03</ele>
        <time>2013-05-05T08:47:07Z</time>
      </trkpt>
      <trkpt lat="48.50391" lon="-3.49147">
        <ele>212.59</ele>
        <time>2013-05-05T08:47:19Z</time>
      </trkpt>
      <trkpt lat="48.503" lon="-3.49182">
        <ele>209.7</ele>
        <time>2013-05-05T08:47:32Z</time>
      </trkpt>
      <trkpt lat="48.50293" lon="-3.49185">
        <ele>209.22</ele>
        <time>2013-05-05T08:47:33Z</time>
      </trkpt>
      <trkpt lat="48.50204" lon="-3.49219">
        <ele>206.34</ele>
        <time>2013-05-05T08:47:45Z</time>
      </trkpt>
      <trkpt lat="48.50175" lon="-3.49229">
        <ele>205.38</ele>
        <time>2013-05-05T08:47:49Z</time>
      </trkpt>
      <trkpt lat="48.50171" lon="-3.49233">
        <ele>204.9</ele>
        <time>2013-05-05T08:47:50Z</time>
      </trkpt>
      <trkpt lat="48.50168" lon="-3.4924">
        <ele>204.42</ele>
        <time>2013-05-05T08:47:51Z</time>
      </trkpt>
      <trkpt lat="48.50168" lon="-3.49248">
        <ele>203.46</ele>
        <time>2013-05-05T08:47:52Z</time>
      </trkpt>
      <trkpt lat="48.50168" lon="-3.49257">
        <ele>203.46</ele>
        <time>2013-05-05T08:47:53Z</time>
      </trkpt>
      <trkpt lat="48.50162" lon="-3.49389">
        <ele>204.9</ele>
        <time>2013-05-05T08:48:08Z</time>
      </trkpt>
      <trkpt lat="48.50161" lon="-3.49529">
        <ele>206.34</ele>
        <time>2013-05-05T08:48:24Z</time>
      </trkpt>
      <trkpt lat="48.50164" lon="-3.49676">
        <ele>206.82</ele>
        <time>2013-05-05T08:48:40Z</time>
      </trkpt>
      <trkpt lat="48.5017" lon="-3.49831">
        <ele>205.38</ele>
        <time>2013-05-05T08:48:56Z</time>
      </trkpt>
      <trkpt lat="48.50164" lon="-3.49907">
        <ele>204.9</ele>
        <time>2013-05-05T08:49:03Z</time>
      </trkpt>
      <trkpt lat="48.50161" lon="-3.49918">
        <ele>205.38</ele>
        <time>2013-05-05T08:49:04Z</time>
      </trkpt>
      <trkpt lat="48.50158" lon="-3.49927">
        <ele>205.38</ele>
        <time>2013-05-05T08:49:05Z</time>
      </trkpt>
      <trkpt lat="48.50153" lon="-3.49936">
        <ele>204.9</ele>
        <time>2013-05-05T08:49:06Z</time>
      </trkpt>
      <trkpt lat="48.50149" lon="-3.49944">
        <ele>204.42</ele>
        <time>2013-05-05T08:49:07Z</time>
      </trkpt>
      <trkpt lat="48.50144" lon="-3.49952">
        <ele>204.42</ele>
        <time>2013-05-05T08:49:08Z</time>
      </trkpt>
      <trkpt lat="48.50087" lon="-3.50081">
        <ele>202.49</ele>
        <time>2013-05-05T08:49:22Z</time>
      </trkpt>
      <trkpt lat="48.50057" lon="-3.50226">
        <ele>198.65</ele>
        <time>2013-05-05T08:49:34Z</time>
      </trkpt>
      <trkpt lat="48.50051" lon="-3.5025">
        <ele>197.21</ele>
        <time>2013-05-05T08:49:36Z</time>
      </trkpt>
      <trkpt lat="48.50037" lon="-3.50311">
        <ele>195.77</ele>
        <time>2013-05-05T08:49:41Z</time>
      </trkpt>
      <trkpt lat="48.50012" lon="-3.50384">
        <ele>193.84</ele>
        <time>2013-05-05T08:49:47Z</time>
      </trkpt>
      <trkpt lat="48.50002" lon="-3.50407">
        <ele>191.92</ele>
        <time>2013-05-05T08:49:49Z</time>
      </trkpt>
      <trkpt lat="48.49998" lon="-3.5042">
        <ele>191.44</ele>
        <time>2013-05-05T08:49:50Z</time>
      </trkpt>
      <trkpt lat="48.49996" lon="-3.50434">
        <ele>190.48</ele>
        <time>2013-05-05T08:49:51Z</time>
      </trkpt>
      <trkpt lat="48.49994" lon="-3.50449">
        <ele>189.52</ele>
        <time>2013-05-05T08:49:52Z</time>
      </trkpt>
      <trkpt lat="48.49993" lon="-3.50465">
        <ele>188.56</ele>
        <time>2013-05-05T08:49:53Z</time>
      </trkpt>
      <trkpt lat="48.49993" lon="-3.50482">
        <ele>187.11</ele>
        <time>2013-05-05T08:49:54Z</time>
      </trkpt>
      <trkpt lat="48.49993" lon="-3.50515">
        <ele>185.67</ele>
        <time>2013-05-05T08:49:56Z</time>
      </trkpt>
      <trkpt lat="48.49992" lon="-3.50531">
        <ele>185.19</ele>
        <time>2013-05-05T08:49:57Z</time>
      </trkpt>
      <trkpt lat="48.49989" lon="-3.50546">
        <ele>184.71</ele>
        <time>2013-05-05T08:49:58Z</time>
      </trkpt>
      <trkpt lat="48.49986" lon="-3.50559">
        <ele>184.71</ele>
        <time>2013-05-05T08:49:59Z</time>
      </trkpt>
      <trkpt lat="48.49981" lon="-3.50571">
        <ele>184.23</ele>
        <time>2013-05-05T08:50:00Z</time>
      </trkpt>
      <trkpt lat="48.49976" lon="-3.50582">
        <ele>184.71</ele>
        <time>2013-05-05T08:50:01Z</time>
      </trkpt>
      <trkpt lat="48.49971" lon="-3.5059">
        <ele>184.23</ele>
        <time>2013-05-05T08:50:02Z</time>
      </trkpt>
      <trkpt lat="48.49966" lon="-3.50598">
        <ele>184.71</ele>
        <time>2013-05-05T08:50:03Z</time>
      </trkpt>
      <trkpt lat="48.49961" lon="-3.50604">
        <ele>185.19</ele>
        <time>2013-05-05T08:50:04Z</time>
      </trkpt>
      <trkpt lat="48.49938" lon="-3.50635">
        <ele>186.63</ele>
        <time>2013-05-05T08:50:10Z</time>
      </trkpt>
      <trkpt lat="48.49928" lon="-3.50662">
        <ele>189.04</ele>
        <time>2013-05-05T08:50:15Z</time>
      </trkpt>
      <trkpt lat="48.49925" lon="-3.50702">
        <ele>192.88</ele>
        <time>2013-05-05T08:50:22Z</time>
      </trkpt>
      <trkpt lat="48.49926" lon="-3.50708">
        <ele>192.88</ele>
        <time>2013-05-05T08:50:23Z</time>
      </trkpt>
      <trkpt lat="48.49929" lon="-3.50737">
        <ele>193.84</ele>
        <time>2013-05-05T08:50:28Z</time>
      </trkpt>
      <trkpt lat="48.49931" lon="-3.50811">
        <ele>197.21</ele>
        <time>2013-05-05T08:50:41Z</time>
      </trkpt>
      <trkpt lat="48.4993" lon="-3.50878">
        <ele>200.57</ele>
        <time>2013-05-05T08:50:54Z</time>
      </trkpt>
      <trkpt lat="48.49926" lon="-3.50951">
        <ele>203.94</ele>
        <time>2013-05-05T08:51:08Z</time>
      </trkpt>
      <trkpt lat="48.49919" lon="-3.51011">
        <ele>206.82</ele>
        <time>2013-05-05T08:51:20Z</time>
      </trkpt>
      <trkpt lat="48.49904" lon="-3.51103">
        <ele>209.7</ele>
        <time>2013-05-05T08:51:37Z</time>
      </trkpt>
      <trkpt lat="48.49894" lon="-3.51208">
        <ele>211.63</ele>
        <time>2013-05-05T08:51:54Z</time>
      </trkpt>
      <trkpt lat="48.49889" lon="-3.51301">
        <ele>213.55</ele>
        <time>2013-05-05T08:52:09Z</time>
      </trkpt>
      <trkpt lat="48.49875" lon="-3.51421">
        <ele>213.55</ele>
        <time>2013-05-05T08:52:25Z</time>
      </trkpt>
      <trkpt lat="48.49865" lon="-3.51514">
        <ele>213.07</ele>
        <time>2013-05-05T08:52:35Z</time>
      </trkpt>
      <trkpt lat="48.49865" lon="-3.51524">
        <ele>213.07</ele>
        <time>2013-05-05T08:52:36Z</time>
      </trkpt>
      <trkpt lat="48.49866" lon="-3.51551">
        <ele>213.07</ele>
        <time>2013-05-05T08:52:39Z</time>
      </trkpt>
      <trkpt lat="48.49885" lon="-3.51653">
        <ele>215.47</ele>
        <time>2013-05-05T08:52:52Z</time>
      </trkpt>
      <trkpt lat="48.4989" lon="-3.51673">
        <ele>216.43</ele>
        <time>2013-05-05T08:52:55Z</time>
      </trkpt>
      <trkpt lat="48.49893" lon="-3.51695">
        <ele>216.91</ele>
        <time>2013-05-05T08:52:58Z</time>
      </trkpt>
      <trkpt lat="48.49893" lon="-3.51703">
        <ele>216.91</ele>
        <time>2013-05-05T08:52:59Z</time>
      </trkpt>
      <trkpt lat="48.49874" lon="-3.51836">
        <ele>215.95</ele>
        <time>2013-05-05T08:53:14Z</time>
      </trkpt>
      <trkpt lat="48.49847" lon="-3.51932">
        <ele>213.07</ele>
        <time>2013-05-05T08:53:22Z</time>
      </trkpt>
      <trkpt lat="48.49831" lon="-3.51988">
        <ele>209.7</ele>
        <time>2013-05-05T08:53:26Z</time>
      </trkpt>
      <trkpt lat="48.49814" lon="-3.52046">
        <ele>207.3</ele>
        <time>2013-05-05T08:53:30Z</time>
      </trkpt>
      <trkpt lat="48.49788" lon="-3.52139">
        <ele>205.38</ele>
        <time>2013-05-05T08:53:37Z</time>
      </trkpt>
      <trkpt lat="48.49776" lon="-3.5223">
        <ele>207.3</ele>
        <time>2013-05-05T08:53:47Z</time>
      </trkpt>
      <trkpt lat="48.49769" lon="-3.52295">
        <ele>210.19</ele>
        <time>2013-05-05T08:53:57Z</time>
      </trkpt>
      <trkpt lat="48.49761" lon="-3.52357">
        <ele>213.55</ele>
        <time>2013-05-05T08:54:07Z</time>
      </trkpt>
      <trkpt lat="48.49752" lon="-3.52408">
        <ele>216.43</ele>
        <time>2013-05-05T08:54:16Z</time>
      </trkpt>
      <trkpt lat="48.4975" lon="-3.52456">
        <ele>219.32</ele>
        <time>2013-05-05T08:54:24Z</time>
      </trkpt>
      <trkpt lat="48.49752" lon="-3.52468">
        <ele>219.32</ele>
        <time>2013-05-05T08:54:26Z</time>
      </trkpt>
      <trkpt lat="48.49754" lon="-3.52473">
        <ele>219.8</ele>
        <time>2013-05-05T08:54:27Z</time>
      </trkpt>
      <trkpt lat="48.49759" lon="-3.52484">
        <ele>219.8</ele>
        <time>2013-05-05T08:54:29Z</time>
      </trkpt>
      <trkpt lat="48.49786" lon="-3.52573">
        <ele>220.28</ele>
        <time>2013-05-05T08:54:43Z</time>
      </trkpt>
      <trkpt lat="48.49787" lon="-3.52581">
        <ele>220.28</ele>
        <time>2013-05-05T08:54:44Z</time>
      </trkpt>
      <trkpt lat="48.49787" lon="-3.52589">
        <ele>220.76</ele>
        <time>2013-05-05T08:54:45Z</time>
      </trkpt>
      <trkpt lat="48.49779" lon="-3.52727">
        <ele>221.72</ele>
        <time>2013-05-05T08:55:03Z</time>
      </trkpt>
      <trkpt lat="48.49785" lon="-3.52861">
        <ele>221.72</ele>
        <time>2013-05-05T08:55:18Z</time>
      </trkpt>
      <trkpt lat="48.49776" lon="-3.52997">
        <ele>224.12</ele>
        <time>2013-05-05T08:55:34Z</time>
      </trkpt>
      <trkpt lat="48.49765" lon="-3.53135">
        <ele>226.05</ele>
        <time>2013-05-05T08:55:51Z</time>
      </trkpt>
      <trkpt lat="48.49746" lon="-3.53293">
        <ele>225.57</ele>
        <time>2013-05-05T08:56:08Z</time>
      </trkpt>
      <trkpt lat="48.49743" lon="-3.53328">
        <ele>224.12</ele>
        <time>2013-05-05T08:56:11Z</time>
      </trkpt>
      <trkpt lat="48.49744" lon="-3.5334">
        <ele>223.64</ele>
        <time>2013-05-05T08:56:12Z</time>
      </trkpt>
      <trkpt lat="48.49746" lon="-3.53352">
        <ele>222.68</ele>
        <time>2013-05-05T08:56:13Z</time>
      </trkpt>
      <trkpt lat="48.49749" lon="-3.53364">
        <ele>222.68</ele>
        <time>2013-05-05T08:56:14Z</time>
      </trkpt>
      <trkpt lat="48.49752" lon="-3.53376">
        <ele>222.2</ele>
        <time>2013-05-05T08:56:15Z</time>
      </trkpt>
      <trkpt lat="48.49758" lon="-3.534">
        <ele>221.24</ele>
        <time>2013-05-05T08:56:17Z</time>
      </trkpt>
      <trkpt lat="48.49777" lon="-3.53464">
        <ele>219.32</ele>
        <time>2013-05-05T08:56:22Z</time>
      </trkpt>
      <trkpt lat="48.4978" lon="-3.53477">
        <ele>218.84</ele>
        <time>2013-05-05T08:56:23Z</time>
      </trkpt>
      <trkpt lat="48.49781" lon="-3.53492">
        <ele>218.36</ele>
        <time>2013-05-05T08:56:24Z</time>
      </trkpt>
      <trkpt lat="48.49781" lon="-3.53508">
        <ele>218.36</ele>
        <time>2013-05-05T08:56:25Z</time>
      </trkpt>
      <trkpt lat="48.49779" lon="-3.53523">
        <ele>217.88</ele>
        <time>2013-05-05T08:56:26Z</time>
      </trkpt>
      <trkpt lat="48.49776" lon="-3.53538">
        <ele>216.91</ele>
        <time>2013-05-05T08:56:27Z</time>
      </trkpt>
      <trkpt lat="48.49773" lon="-3.53552">
        <ele>216.43</ele>
        <time>2013-05-05T08:56:28Z</time>
      </trkpt>
      <trkpt lat="48.4977" lon="-3.53567">
        <ele>216.91</ele>
        <time>2013-05-05T08:56:29Z</time>
      </trkpt>
      <trkpt lat="48.49768" lon="-3.53583">
        <ele>216.43</ele>
        <time>2013-05-05T08:56:30Z</time>
      </trkpt>
      <trkpt lat="48.49753" lon="-3.53652">
        <ele>213.07</ele>
        <time>2013-05-05T08:56:35Z</time>
      </trkpt>
      <trkpt lat="48.49749" lon="-3.53673">
        <ele>211.63</ele>
        <time>2013-05-05T08:56:37Z</time>
      </trkpt>
      <trkpt lat="48.49749" lon="-3.53682">
        <ele>211.15</ele>
        <time>2013-05-05T08:56:38Z</time>
      </trkpt>
      <trkpt lat="48.4975" lon="-3.53691">
        <ele>211.15</ele>
        <time>2013-05-05T08:56:39Z</time>
      </trkpt>
      <trkpt lat="48.49752" lon="-3.537">
        <ele>210.67</ele>
        <time>2013-05-05T08:56:40Z</time>
      </trkpt>
      <trkpt lat="48.49756" lon="-3.53708">
        <ele>210.67</ele>
        <time>2013-05-05T08:56:41Z</time>
      </trkpt>
      <trkpt lat="48.49759" lon="-3.53717">
        <ele>210.19</ele>
        <time>2013-05-05T08:56:42Z</time>
      </trkpt>
      <trkpt lat="48.49762" lon="-3.53725">
        <ele>210.19</ele>
        <time>2013-05-05T08:56:43Z</time>
      </trkpt>
      <trkpt lat="48.49769" lon="-3.5375">
        <ele>208.74</ele>
        <time>2013-05-05T08:56:51Z</time>
      </trkpt>
      <trkpt lat="48.49766" lon="-3.5375">
        <ele>209.22</ele>
        <time>2013-05-05T08:57:16Z</time>
      </trkpt>
      <trkpt lat="48.49766" lon="-3.53749">
        <ele>209.22</ele>
        <time>2013-05-05T08:57:44Z</time>
      </trkpt>
      <trkpt lat="48.49765" lon="-3.53749">
        <ele>209.22</ele>
        <time>2013-05-05T08:58:16Z</time>
      </trkpt>
      <trkpt lat="48.49765" lon="-3.53749">
        <ele>209.22</ele>
        <time>2013-05-05T08:58:19Z</time>
      </trkpt>
      <trkpt lat="48.49771" lon="-3.53762">
        <ele>209.7</ele>
        <time>2013-05-05T08:58:24Z</time>
      </trkpt>
      <trkpt lat="48.49788" lon="-3.53811">
        <ele>211.15</ele>
        <time>2013-05-05T08:58:32Z</time>
      </trkpt>
      <trkpt lat="48.4979" lon="-3.53818">
        <ele>210.19</ele>
        <time>2013-05-05T08:58:33Z</time>
      </trkpt>
      <trkpt lat="48.49792" lon="-3.53825">
        <ele>210.67</ele>
        <time>2013-05-05T08:58:34Z</time>
      </trkpt>
      <trkpt lat="48.49795" lon="-3.53832">
        <ele>210.67</ele>
        <time>2013-05-05T08:58:35Z</time>
      </trkpt>
      <trkpt lat="48.49798" lon="-3.53838">
        <ele>211.15</ele>
        <time>2013-05-05T08:58:36Z</time>
      </trkpt>
      <trkpt lat="48.49804" lon="-3.5385">
        <ele>211.63</ele>
        <time>2013-05-05T08:58:38Z</time>
      </trkpt>
      <trkpt lat="48.49808" lon="-3.53855">
        <ele>211.63</ele>
        <time>2013-05-05T08:58:39Z</time>
      </trkpt>
      <trkpt lat="48.49811" lon="-3.53859">
        <ele>212.11</ele>
        <time>2013-05-05T08:58:40Z</time>
      </trkpt>
      <trkpt lat="48.49835" lon="-3.53879">
        <ele>214.03</ele>
        <time>2013-05-05T08:58:46Z</time>
      </trkpt>
      <trkpt lat="48.49847" lon="-3.53886">
        <ele>215.47</ele>
        <time>2013-05-05T08:58:49Z</time>
      </trkpt>
      <trkpt lat="48.49886" lon="-3.53917">
        <ele>218.84</ele>
        <time>2013-05-05T08:59:00Z</time>
      </trkpt>
      <trkpt lat="48.49893" lon="-3.53923">
        <ele>219.32</ele>
        <time>2013-05-05T08:59:02Z</time>
      </trkpt>
      <trkpt lat="48.49903" lon="-3.53931">
        <ele>219.32</ele>
        <time>2013-05-05T08:59:05Z</time>
      </trkpt>
      <trkpt lat="48.49961" lon="-3.54012">
        <ele>222.2</ele>
        <time>2013-05-05T08:59:23Z</time>
      </trkpt>
      <trkpt lat="48.50009" lon="-3.5414">
        <ele>224.61</ele>
        <time>2013-05-05T08:59:43Z</time>
      </trkpt>
      <trkpt lat="48.50038" lon="-3.54264">
        <ele>226.53</ele>
        <time>2013-05-05T09:00:01Z</time>
      </trkpt>
      <trkpt lat="48.50066" lon="-3.54387">
        <ele>228.93</ele>
        <time>2013-05-05T09:00:19Z</time>
      </trkpt>
      <trkpt lat="48.50085" lon="-3.54475">
        <ele>233.26</ele>
        <time>2013-05-05T09:00:32Z</time>
      </trkpt>
      <trkpt lat="48.50107" lon="-3.54574">
        <ele>236.62</ele>
        <time>2013-05-05T09:00:47Z</time>
      </trkpt>
      <trkpt lat="48.50123" lon="-3.54648">
        <ele>239.51</ele>
        <time>2013-05-05T09:00:58Z</time>
      </trkpt>
      <trkpt lat="48.50143" lon="-3.54741">
        <ele>242.87</ele>
        <time>2013-05-05T09:01:12Z</time>
      </trkpt>
      <trkpt lat="48.50167" lon="-3.54858">
        <ele>245.75</ele>
        <time>2013-05-05T09:01:29Z</time>
      </trkpt>
      <trkpt lat="48.50197" lon="-3.55008">
        <ele>247.2</ele>
        <time>2013-05-05T09:01:48Z</time>
      </trkpt>
      <trkpt lat="48.50214" lon="-3.5516">
        <ele>246.23</ele>
        <time>2013-05-05T09:02:03Z</time>
      </trkpt>
      <trkpt lat="48.5022" lon="-3.55339">
        <ele>243.35</ele>
        <time>2013-05-05T09:02:17Z</time>
      </trkpt>
      <trkpt lat="48.50229" lon="-3.55596">
        <ele>240.47</ele>
        <time>2013-05-05T09:02:36Z</time>
      </trkpt>
      <trkpt lat="48.50236" lon="-3.55815">
        <ele>240.47</ele>
        <time>2013-05-05T09:02:54Z</time>
      </trkpt>
      <trkpt lat="48.50254" lon="-3.55928">
        <ele>242.39</ele>
        <time>2013-05-05T09:03:05Z</time>
      </trkpt>
      <trkpt lat="48.50257" lon="-3.55936">
        <ele>242.39</ele>
        <time>2013-05-05T09:03:06Z</time>
      </trkpt>
      <trkpt lat="48.50275" lon="-3.55979">
        <ele>244.31</ele>
        <time>2013-05-05T09:03:11Z</time>
      </trkpt>
      <trkpt lat="48.50354" lon="-3.56127">
        <ele>243.83</ele>
        <time>2013-05-05T09:03:27Z</time>
      </trkpt>
      <trkpt lat="48.50474" lon="-3.56344">
        <ele>240.95</ele>
        <time>2013-05-05T09:03:47Z</time>
      </trkpt>
      <trkpt lat="48.50557" lon="-3.56451">
        <ele>237.58</ele>
        <time>2013-05-05T09:03:58Z</time>
      </trkpt>
      <trkpt lat="48.50662" lon="-3.56513">
        <ele>235.18</ele>
        <time>2013-05-05T09:04:09Z</time>
      </trkpt>
      <trkpt lat="48.50783" lon="-3.56563">
        <ele>231.81</ele>
        <time>2013-05-05T09:04:22Z</time>
      </trkpt>
      <trkpt lat="48.50793" lon="-3.56568">
        <ele>231.33</ele>
        <time>2013-05-05T09:04:23Z</time>
      </trkpt>
      <trkpt lat="48.50863" lon="-3.56598">
        <ele>227.97</ele>
        <time>2013-05-05T09:04:30Z</time>
      </trkpt>
      <trkpt lat="48.50992" lon="-3.56653">
        <ele>227.01</ele>
        <time>2013-05-05T09:04:45Z</time>
      </trkpt>
      <trkpt lat="48.50999" lon="-3.5666">
        <ele>227.01</ele>
        <time>2013-05-05T09:04:46Z</time>
      </trkpt>
      <trkpt lat="48.51005" lon="-3.56668">
        <ele>227.01</ele>
        <time>2013-05-05T09:04:47Z</time>
      </trkpt>
      <trkpt lat="48.5101" lon="-3.56677">
        <ele>227.01</ele>
        <time>2013-05-05T09:04:48Z</time>
      </trkpt>
      <trkpt lat="48.51014" lon="-3.56686">
        <ele>227.01</ele>
        <time>2013-05-05T09:04:49Z</time>
      </trkpt>
      <trkpt lat="48.51017" lon="-3.56697">
        <ele>227.01</ele>
        <time>2013-05-05T09:04:50Z</time>
      </trkpt>
      <trkpt lat="48.5102" lon="-3.56707">
        <ele>227.49</ele>
        <time>2013-05-05T09:04:51Z</time>
      </trkpt>
      <trkpt lat="48.5102" lon="-3.56718">
        <ele>227.97</ele>
        <time>2013-05-05T09:04:52Z</time>
      </trkpt>
      <trkpt lat="48.51021" lon="-3.56728">
        <ele>227.97</ele>
        <time>2013-05-05T09:04:53Z</time>
      </trkpt>
      <trkpt lat="48.5102" lon="-3.56759">
        <ele>228.93</ele>
        <time>2013-05-05T09:04:56Z</time>
      </trkpt>
      <trkpt lat="48.51015" lon="-3.56897">
        <ele>227.01</ele>
        <time>2013-05-05T09:05:08Z</time>
      </trkpt>
      <trkpt lat="48.51016" lon="-3.5691">
        <ele>226.53</ele>
        <time>2013-05-05T09:05:09Z</time>
      </trkpt>
      <trkpt lat="48.5102" lon="-3.56922">
        <ele>226.53</ele>
        <time>2013-05-05T09:05:10Z</time>
      </trkpt>
      <trkpt lat="48.51025" lon="-3.56932">
        <ele>226.05</ele>
        <time>2013-05-05T09:05:11Z</time>
      </trkpt>
      <trkpt lat="48.51032" lon="-3.56941">
        <ele>225.57</ele>
        <time>2013-05-05T09:05:12Z</time>
      </trkpt>
      <trkpt lat="48.51039" lon="-3.56948">
        <ele>225.09</ele>
        <time>2013-05-05T09:05:13Z</time>
      </trkpt>
      <trkpt lat="48.51048" lon="-3.56954">
        <ele>224.61</ele>
        <time>2013-05-05T09:05:14Z</time>
      </trkpt>
      <trkpt lat="48.51057" lon="-3.56959">
        <ele>224.12</ele>
        <time>2013-05-05T09:05:15Z</time>
      </trkpt>
      <trkpt lat="48.51123" lon="-3.57029">
        <ele>220.76</ele>
        <time>2013-05-05T09:05:23Z</time>
      </trkpt>
      <trkpt lat="48.51139" lon="-3.57052">
        <ele>219.32</ele>
        <time>2013-05-05T09:05:25Z</time>
      </trkpt>
      <trkpt lat="48.51146" lon="-3.57065">
        <ele>218.84</ele>
        <time>2013-05-05T09:05:26Z</time>
      </trkpt>
      <trkpt lat="48.51152" lon="-3.57079">
        <ele>217.88</ele>
        <time>2013-05-05T09:05:27Z</time>
      </trkpt>
      <trkpt lat="48.51157" lon="-3.57094">
        <ele>217.4</ele>
        <time>2013-05-05T09:05:28Z</time>
      </trkpt>
      <trkpt lat="48.51162" lon="-3.57109">
        <ele>216.91</ele>
        <time>2013-05-05T09:05:29Z</time>
      </trkpt>
      <trkpt lat="48.51166" lon="-3.57125">
        <ele>216.43</ele>
        <time>2013-05-05T09:05:30Z</time>
      </trkpt>
      <trkpt lat="48.51168" lon="-3.57141">
        <ele>215.47</ele>
        <time>2013-05-05T09:05:31Z</time>
      </trkpt>
      <trkpt lat="48.51168" lon="-3.57158">
        <ele>214.99</ele>
        <time>2013-05-05T09:05:32Z</time>
      </trkpt>
      <trkpt lat="48.51167" lon="-3.57175">
        <ele>214.51</ele>
        <time>2013-05-05T09:05:33Z</time>
      </trkpt>
      <trkpt lat="48.51165" lon="-3.57192">
        <ele>213.55</ele>
        <time>2013-05-05T09:05:34Z</time>
      </trkpt>
      <trkpt lat="48.51162" lon="-3.57209">
        <ele>213.07</ele>
        <time>2013-05-05T09:05:35Z</time>
      </trkpt>
      <trkpt lat="48.51156" lon="-3.57243">
        <ele>212.11</ele>
        <time>2013-05-05T09:05:37Z</time>
      </trkpt>
      <trkpt lat="48.51153" lon="-3.57278">
        <ele>210.19</ele>
        <time>2013-05-05T09:05:39Z</time>
      </trkpt>
      <trkpt lat="48.51154" lon="-3.57296">
        <ele>209.22</ele>
        <time>2013-05-05T09:05:40Z</time>
      </trkpt>
      <trkpt lat="48.51157" lon="-3.57312">
        <ele>208.26</ele>
        <time>2013-05-05T09:05:41Z</time>
      </trkpt>
      <trkpt lat="48.51177" lon="-3.57377">
        <ele>205.86</ele>
        <time>2013-05-05T09:05:45Z</time>
      </trkpt>
      <trkpt lat="48.51183" lon="-3.57392">
        <ele>205.38</ele>
        <time>2013-05-05T09:05:46Z</time>
      </trkpt>
      <trkpt lat="48.51206" lon="-3.57433">
        <ele>202.01</ele>
        <time>2013-05-05T09:05:49Z</time>
      </trkpt>
      <trkpt lat="48.51232" lon="-3.57469">
        <ele>200.09</ele>
        <time>2013-05-05T09:05:52Z</time>
      </trkpt>
      <trkpt lat="48.51242" lon="-3.57477">
        <ele>199.61</ele>
        <time>2013-05-05T09:05:53Z</time>
      </trkpt>
      <trkpt lat="48.51253" lon="-3.57484">
        <ele>198.65</ele>
        <time>2013-05-05T09:05:54Z</time>
      </trkpt>
      <trkpt lat="48.51265" lon="-3.57488">
        <ele>197.69</ele>
        <time>2013-05-05T09:05:55Z</time>
      </trkpt>
      <trkpt lat="48.51276" lon="-3.5749">
        <ele>197.69</ele>
        <time>2013-05-05T09:05:56Z</time>
      </trkpt>
      <trkpt lat="48.51333" lon="-3.57505">
        <ele>194.32</ele>
        <time>2013-05-05T09:06:01Z</time>
      </trkpt>
      <trkpt lat="48.51365" lon="-3.57519">
        <ele>192.4</ele>
        <time>2013-05-05T09:06:04Z</time>
      </trkpt>
      <trkpt lat="48.51461" lon="-3.57574">
        <ele>193.84</ele>
        <time>2013-05-05T09:06:16Z</time>
      </trkpt>
      <trkpt lat="48.51476" lon="-3.57586">
        <ele>195.28</ele>
        <time>2013-05-05T09:06:19Z</time>
      </trkpt>
      <trkpt lat="48.51481" lon="-3.57591">
        <ele>195.77</ele>
        <time>2013-05-05T09:06:20Z</time>
      </trkpt>
      <trkpt lat="48.51485" lon="-3.57596">
        <ele>196.25</ele>
        <time>2013-05-05T09:06:21Z</time>
      </trkpt>
      <trkpt lat="48.51498" lon="-3.57614">
        <ele>196.73</ele>
        <time>2013-05-05T09:06:24Z</time>
      </trkpt>
      <trkpt lat="48.51504" lon="-3.57627">
        <ele>197.69</ele>
        <time>2013-05-05T09:06:26Z</time>
      </trkpt>
      <trkpt lat="48.51522" lon="-3.57681">
        <ele>201.05</ele>
        <time>2013-05-05T09:06:33Z</time>
      </trkpt>
      <trkpt lat="48.51524" lon="-3.57689">
        <ele>200.57</ele>
        <time>2013-05-05T09:06:34Z</time>
      </trkpt>
      <trkpt lat="48.51525" lon="-3.57697">
        <ele>200.57</ele>
        <time>2013-05-05T09:06:35Z</time>
      </trkpt>
      <trkpt lat="48.51526" lon="-3.57705">
        <ele>201.05</ele>
        <time>2013-05-05T09:06:36Z</time>
      </trkpt>
      <trkpt lat="48.51526" lon="-3.57721">
        <ele>201.53</ele>
        <time>2013-05-05T09:06:38Z</time>
      </trkpt>
      <trkpt lat="48.51526" lon="-3.57728">
        <ele>202.01</ele>
        <time>2013-05-05T09:06:39Z</time>
      </trkpt>
      <trkpt lat="48.51526" lon="-3.57736">
        <ele>202.01</ele>
        <time>2013-05-05T09:06:40Z</time>
      </trkpt>
      <trkpt lat="48.51525" lon="-3.57752">
        <ele>202.98</ele>
        <time>2013-05-05T09:06:42Z</time>
      </trkpt>
      <trkpt lat="48.51525" lon="-3.5776">
        <ele>203.46</ele>
        <time>2013-05-05T09:06:43Z</time>
      </trkpt>
      <trkpt lat="48.51531" lon="-3.57841">
        <ele>205.38</ele>
        <time>2013-05-05T09:06:54Z</time>
      </trkpt>
      <trkpt lat="48.51544" lon="-3.57889">
        <ele>206.34</ele>
        <time>2013-05-05T09:07:01Z</time>
      </trkpt>
      <trkpt lat="48.51583" lon="-3.5796">
        <ele>209.7</ele>
        <time>2013-05-05T09:07:14Z</time>
      </trkpt>
      <trkpt lat="48.5163" lon="-3.58037">
        <ele>211.15</ele>
        <time>2013-05-05T09:07:28Z</time>
      </trkpt>
      <trkpt lat="48.51664" lon="-3.58165">
        <ele>208.74</ele>
        <time>2013-05-05T09:07:42Z</time>
      </trkpt>
      <trkpt lat="48.51686" lon="-3.58268">
        <ele>205.38</ele>
        <time>2013-05-05T09:07:50Z</time>
      </trkpt>
      <trkpt lat="48.51688" lon="-3.58283">
        <ele>204.9</ele>
        <time>2013-05-05T09:07:51Z</time>
      </trkpt>
      <trkpt lat="48.51693" lon="-3.58311">
        <ele>204.42</ele>
        <time>2013-05-05T09:07:53Z</time>
      </trkpt>
      <trkpt lat="48.5173" lon="-3.58488">
        <ele>202.01</ele>
        <time>2013-05-05T09:08:07Z</time>
      </trkpt>
      <trkpt lat="48.5174" lon="-3.5855">
        <ele>201.53</ele>
        <time>2013-05-05T09:08:13Z</time>
      </trkpt>
      <trkpt lat="48.51749" lon="-3.58607">
        <ele>202.01</ele>
        <time>2013-05-05T09:08:19Z</time>
      </trkpt>
      <trkpt lat="48.5175" lon="-3.58617">
        <ele>202.01</ele>
        <time>2013-05-05T09:08:20Z</time>
      </trkpt>
      <trkpt lat="48.5175" lon="-3.58626">
        <ele>202.49</ele>
        <time>2013-05-05T09:08:21Z</time>
      </trkpt>
      <trkpt lat="48.51749" lon="-3.58635">
        <ele>202.49</ele>
        <time>2013-05-05T09:08:22Z</time>
      </trkpt>
      <trkpt lat="48.51748" lon="-3.58644">
        <ele>202.49</ele>
        <time>2013-05-05T09:08:23Z</time>
      </trkpt>
      <trkpt lat="48.51732" lon="-3.58715">
        <ele>206.34</ele>
        <time>2013-05-05T09:08:33Z</time>
      </trkpt>
      <trkpt lat="48.51723" lon="-3.58752">
        <ele>206.82</ele>
        <time>2013-05-05T09:08:39Z</time>
      </trkpt>
      <trkpt lat="48.51718" lon="-3.58845">
        <ele>209.7</ele>
        <time>2013-05-05T09:08:53Z</time>
      </trkpt>
      <trkpt lat="48.51718" lon="-3.5892">
        <ele>212.59</ele>
        <time>2013-05-05T09:09:05Z</time>
      </trkpt>
      <trkpt lat="48.51718" lon="-3.58969">
        <ele>214.51</ele>
        <time>2013-05-05T09:09:13Z</time>
      </trkpt>
      <trkpt lat="48.51718" lon="-3.58976">
        <ele>214.51</ele>
        <time>2013-05-05T09:09:14Z</time>
      </trkpt>
      <trkpt lat="48.51718" lon="-3.58994">
        <ele>215.47</ele>
        <time>2013-05-05T09:09:17Z</time>
      </trkpt>
      <trkpt lat="48.51725" lon="-3.59044">
        <ele>216.91</ele>
        <time>2013-05-05T09:09:26Z</time>
      </trkpt>
      <trkpt lat="48.51728" lon="-3.59046">
        <ele>217.4</ele>
        <time>2013-05-05T09:09:27Z</time>
      </trkpt>
      <trkpt lat="48.51733" lon="-3.59047">
        <ele>217.4</ele>
        <time>2013-05-05T09:09:28Z</time>
      </trkpt>
      <trkpt lat="48.51737" lon="-3.59048">
        <ele>217.4</ele>
        <time>2013-05-05T09:09:29Z</time>
      </trkpt>
      <trkpt lat="48.51741" lon="-3.59048">
        <ele>217.88</ele>
        <time>2013-05-05T09:09:30Z</time>
      </trkpt>
      <trkpt lat="48.51776" lon="-3.59052">
        <ele>217.4</ele>
        <time>2013-05-05T09:09:38Z</time>
      </trkpt>
      <trkpt lat="48.51781" lon="-3.59051">
        <ele>217.4</ele>
        <time>2013-05-05T09:09:39Z</time>
      </trkpt>
      <trkpt lat="48.51786" lon="-3.59049">
        <ele>217.4</ele>
        <time>2013-05-05T09:09:40Z</time>
      </trkpt>
      <trkpt lat="48.51796" lon="-3.59042">
        <ele>217.4</ele>
        <time>2013-05-05T09:09:42Z</time>
      </trkpt>
      <trkpt lat="48.51828" lon="-3.59018">
        <ele>216.91</ele>
        <time>2013-05-05T09:09:48Z</time>
      </trkpt>
      <trkpt lat="48.5184" lon="-3.59014">
        <ele>216.43</ele>
        <time>2013-05-05T09:09:50Z</time>
      </trkpt>
      <trkpt lat="48.51846" lon="-3.59014">
        <ele>216.43</ele>
        <time>2013-05-05T09:09:51Z</time>
      </trkpt>
      <trkpt lat="48.51869" lon="-3.59014">
        <ele>216.91</ele>
        <time>2013-05-05T09:09:55Z</time>
      </trkpt>
      <trkpt lat="48.51934" lon="-3.59002">
        <ele>220.28</ele>
        <time>2013-05-05T09:10:08Z</time>
      </trkpt>
      <trkpt lat="48.51981" lon="-3.59003">
        <ele>222.2</ele>
        <time>2013-05-05T09:10:18Z</time>
      </trkpt>
      <trkpt lat="48.51986" lon="-3.59004">
        <ele>222.68</ele>
        <time>2013-05-05T09:10:19Z</time>
      </trkpt>
      <trkpt lat="48.5199" lon="-3.59005">
        <ele>223.16</ele>
        <time>2013-05-05T09:10:20Z</time>
      </trkpt>
      <trkpt lat="48.51995" lon="-3.59007">
        <ele>223.16</ele>
        <time>2013-05-05T09:10:21Z</time>
      </trkpt>
      <trkpt lat="48.52" lon="-3.59009">
        <ele>223.16</ele>
        <time>2013-05-05T09:10:22Z</time>
      </trkpt>
      <trkpt lat="48.52054" lon="-3.59039">
        <ele>227.01</ele>
        <time>2013-05-05T09:10:34Z</time>
      </trkpt>
      <trkpt lat="48.52132" lon="-3.59087">
        <ele>229.89</ele>
        <time>2013-05-05T09:10:52Z</time>
      </trkpt>
      <trkpt lat="48.52193" lon="-3.59124">
        <ele>233.26</ele>
        <time>2013-05-05T09:11:06Z</time>
      </trkpt>
      <trkpt lat="48.52259" lon="-3.59163">
        <ele>236.14</ele>
        <time>2013-05-05T09:11:21Z</time>
      </trkpt>
      <trkpt lat="48.52319" lon="-3.592">
        <ele>239.51</ele>
        <time>2013-05-05T09:11:34Z</time>
      </trkpt>
      <trkpt lat="48.5241" lon="-3.59257">
        <ele>241.91</ele>
        <time>2013-05-05T09:11:53Z</time>
      </trkpt>
      <trkpt lat="48.52506" lon="-3.59358">
        <ele>243.83</ele>
        <time>2013-05-05T09:12:13Z</time>
      </trkpt>
      <trkpt lat="48.52578" lon="-3.59441">
        <ele>246.72</ele>
        <time>2013-05-05T09:12:29Z</time>
      </trkpt>
      <trkpt lat="48.52639" lon="-3.59512">
        <ele>250.08</ele>
        <time>2013-05-05T09:12:43Z</time>
      </trkpt>
      <trkpt lat="48.52725" lon="-3.59611">
        <ele>252.48</ele>
        <time>2013-05-05T09:13:02Z</time>
      </trkpt>
      <trkpt lat="48.52809" lon="-3.59711">
        <ele>252.48</ele>
        <time>2013-05-05T09:13:19Z</time>
      </trkpt>
      <trkpt lat="48.52911" lon="-3.59802">
        <ele>251.04</ele>
        <time>2013-05-05T09:13:34Z</time>
      </trkpt>
      <trkpt lat="48.53037" lon="-3.59855">
        <ele>250.08</ele>
        <time>2013-05-05T09:13:49Z</time>
      </trkpt>
      <trkpt lat="48.53181" lon="-3.59848">
        <ele>247.68</ele>
        <time>2013-05-05T09:14:05Z</time>
      </trkpt>
      <trkpt lat="48.53323" lon="-3.59791">
        <ele>245.27</ele>
        <time>2013-05-05T09:14:21Z</time>
      </trkpt>
      <trkpt lat="48.53439" lon="-3.59774">
        <ele>243.83</ele>
        <time>2013-05-05T09:14:34Z</time>
      </trkpt>
      <trkpt lat="48.53475" lon="-3.59774">
        <ele>242.39</ele>
        <time>2013-05-05T09:14:38Z</time>
      </trkpt>
      <trkpt lat="48.53484" lon="-3.59771">
        <ele>242.39</ele>
        <time>2013-05-05T09:14:39Z</time>
      </trkpt>
      <trkpt lat="48.53493" lon="-3.59766">
        <ele>242.39</ele>
        <time>2013-05-05T09:14:40Z</time>
      </trkpt>
      <trkpt lat="48.53501" lon="-3.5976">
        <ele>241.91</ele>
        <time>2013-05-05T09:14:41Z</time>
      </trkpt>
      <trkpt lat="48.53508" lon="-3.59753">
        <ele>241.91</ele>
        <time>2013-05-05T09:14:42Z</time>
      </trkpt>
      <trkpt lat="48.53515" lon="-3.59745">
        <ele>241.91</ele>
        <time>2013-05-05T09:14:43Z</time>
      </trkpt>
      <trkpt lat="48.53522" lon="-3.59736">
        <ele>242.39</ele>
        <time>2013-05-05T09:14:44Z</time>
      </trkpt>
      <trkpt lat="48.53576" lon="-3.59668">
        <ele>239.02</ele>
        <time>2013-05-05T09:14:52Z</time>
      </trkpt>
      <trkpt lat="48.53584" lon="-3.59662">
        <ele>238.54</ele>
        <time>2013-05-05T09:14:53Z</time>
      </trkpt>
      <trkpt lat="48.53593" lon="-3.59657">
        <ele>238.54</ele>
        <time>2013-05-05T09:14:54Z</time>
      </trkpt>
      <trkpt lat="48.53686" lon="-3.59649">
        <ele>235.18</ele>
        <time>2013-05-05T09:15:04Z</time>
      </trkpt>
      <trkpt lat="48.5377" lon="-3.59655">
        <ele>232.3</ele>
        <time>2013-05-05T09:15:13Z</time>
      </trkpt>
      <trkpt lat="48.53779" lon="-3.59653">
        <ele>232.3</ele>
        <time>2013-05-05T09:15:14Z</time>
      </trkpt>
      <trkpt lat="48.53789" lon="-3.5965">
        <ele>232.3</ele>
        <time>2013-05-05T09:15:15Z</time>
      </trkpt>
      <trkpt lat="48.53798" lon="-3.59645">
        <ele>231.81</ele>
        <time>2013-05-05T09:15:16Z</time>
      </trkpt>
      <trkpt lat="48.53806" lon="-3.59637">
        <ele>231.33</ele>
        <time>2013-05-05T09:15:17Z</time>
      </trkpt>
      <trkpt lat="48.53814" lon="-3.59628">
        <ele>231.81</ele>
        <time>2013-05-05T09:15:18Z</time>
      </trkpt>
      <trkpt lat="48.5382" lon="-3.59618">
        <ele>232.3</ele>
        <time>2013-05-05T09:15:19Z</time>
      </trkpt>
      <trkpt lat="48.53826" lon="-3.59608">
        <ele>232.78</ele>
        <time>2013-05-05T09:15:20Z</time>
      </trkpt>
      <trkpt lat="48.53831" lon="-3.59596">
        <ele>232.3</ele>
        <time>2013-05-05T09:15:21Z</time>
      </trkpt>
      <trkpt lat="48.53835" lon="-3.59585">
        <ele>231.81</ele>
        <time>2013-05-05T09:15:22Z</time>
      </trkpt>
      <trkpt lat="48.53849" lon="-3.59554">
        <ele>230.37</ele>
        <time>2013-05-05T09:15:25Z</time>
      </trkpt>
      <trkpt lat="48.53854" lon="-3.59545">
        <ele>230.37</ele>
        <time>2013-05-05T09:15:26Z</time>
      </trkpt>
      <trkpt lat="48.53861" lon="-3.59537">
        <ele>229.89</ele>
        <time>2013-05-05T09:15:27Z</time>
      </trkpt>
      <trkpt lat="48.53867" lon="-3.5953">
        <ele>229.89</ele>
        <time>2013-05-05T09:15:28Z</time>
      </trkpt>
      <trkpt lat="48.53875" lon="-3.59523">
        <ele>229.41</ele>
        <time>2013-05-05T09:15:29Z</time>
      </trkpt>
      <trkpt lat="48.53882" lon="-3.59518">
        <ele>229.41</ele>
        <time>2013-05-05T09:15:30Z</time>
      </trkpt>
      <trkpt lat="48.5389" lon="-3.59514">
        <ele>229.41</ele>
        <time>2013-05-05T09:15:31Z</time>
      </trkpt>
      <trkpt lat="48.53898" lon="-3.59511">
        <ele>228.93</ele>
        <time>2013-05-05T09:15:32Z</time>
      </trkpt>
      <trkpt lat="48.53906" lon="-3.5951">
        <ele>228.93</ele>
        <time>2013-05-05T09:15:33Z</time>
      </trkpt>
      <trkpt lat="48.53915" lon="-3.59509">
        <ele>228.93</ele>
        <time>2013-05-05T09:15:34Z</time>
      </trkpt>
      <trkpt lat="48.53988" lon="-3.59528">
        <ele>227.97</ele>
        <time>2013-05-05T09:15:43Z</time>
      </trkpt>
      <trkpt lat="48.53995" lon="-3.59534">
        <ele>227.49</ele>
        <time>2013-05-05T09:15:44Z</time>
      </trkpt>
      <trkpt lat="48.54002" lon="-3.59542">
        <ele>227.01</ele>
        <time>2013-05-05T09:15:45Z</time>
      </trkpt>
      <trkpt lat="48.54008" lon="-3.5955">
        <ele>227.01</ele>
        <time>2013-05-05T09:15:46Z</time>
      </trkpt>
      <trkpt lat="48.54013" lon="-3.5956">
        <ele>227.01</ele>
        <time>2013-05-05T09:15:47Z</time>
      </trkpt>
      <trkpt lat="48.54018" lon="-3.59571">
        <ele>227.01</ele>
        <time>2013-05-05T09:15:48Z</time>
      </trkpt>
      <trkpt lat="48.54022" lon="-3.59582">
        <ele>226.53</ele>
        <time>2013-05-05T09:15:49Z</time>
      </trkpt>
      <trkpt lat="48.54025" lon="-3.59593">
        <ele>226.53</ele>
        <time>2013-05-05T09:15:50Z</time>
      </trkpt>
      <trkpt lat="48.54049" lon="-3.5966">
        <ele>225.09</ele>
        <time>2013-05-05T09:15:56Z</time>
      </trkpt>
      <trkpt lat="48.54055" lon="-3.59669">
        <ele>224.61</ele>
        <time>2013-05-05T09:15:57Z</time>
      </trkpt>
      <trkpt lat="48.54062" lon="-3.59676">
        <ele>224.61</ele>
        <time>2013-05-05T09:15:58Z</time>
      </trkpt>
      <trkpt lat="48.54068" lon="-3.59682">
        <ele>224.61</ele>
        <time>2013-05-05T09:15:59Z</time>
      </trkpt>
      <trkpt lat="48.54075" lon="-3.59687">
        <ele>224.12</ele>
        <time>2013-05-05T09:16:00Z</time>
      </trkpt>
      <trkpt lat="48.54084" lon="-3.59689">
        <ele>222.68</ele>
        <time>2013-05-05T09:16:01Z</time>
      </trkpt>
      <trkpt lat="48.54093" lon="-3.59689">
        <ele>222.2</ele>
        <time>2013-05-05T09:16:02Z</time>
      </trkpt>
      <trkpt lat="48.54102" lon="-3.59688">
        <ele>221.72</ele>
        <time>2013-05-05T09:16:03Z</time>
      </trkpt>
      <trkpt lat="48.54112" lon="-3.59687">
        <ele>221.72</ele>
        <time>2013-05-05T09:16:04Z</time>
      </trkpt>
      <trkpt lat="48.54123" lon="-3.59683">
        <ele>221.24</ele>
        <time>2013-05-05T09:16:05Z</time>
      </trkpt>
      <trkpt lat="48.54134" lon="-3.59678">
        <ele>220.76</ele>
        <time>2013-05-05T09:16:06Z</time>
      </trkpt>
      <trkpt lat="48.54143" lon="-3.5967">
        <ele>219.8</ele>
        <time>2013-05-05T09:16:07Z</time>
      </trkpt>
      <trkpt lat="48.54152" lon="-3.59661">
        <ele>219.8</ele>
        <time>2013-05-05T09:16:08Z</time>
      </trkpt>
      <trkpt lat="48.54159" lon="-3.59649">
        <ele>219.8</ele>
        <time>2013-05-05T09:16:09Z</time>
      </trkpt>
      <trkpt lat="48.54165" lon="-3.59636">
        <ele>219.32</ele>
        <time>2013-05-05T09:16:10Z</time>
      </trkpt>
      <trkpt lat="48.54169" lon="-3.59623">
        <ele>218.36</ele>
        <time>2013-05-05T09:16:11Z</time>
      </trkpt>
      <trkpt lat="48.54171" lon="-3.59609">
        <ele>217.88</ele>
        <time>2013-05-05T09:16:12Z</time>
      </trkpt>
      <trkpt lat="48.54173" lon="-3.59595">
        <ele>216.91</ele>
        <time>2013-05-05T09:16:13Z</time>
      </trkpt>
      <trkpt lat="48.54173" lon="-3.59582">
        <ele>216.43</ele>
        <time>2013-05-05T09:16:14Z</time>
      </trkpt>
      <trkpt lat="48.54173" lon="-3.59569">
        <ele>215.95</ele>
        <time>2013-05-05T09:16:15Z</time>
      </trkpt>
      <trkpt lat="48.54173" lon="-3.59557">
        <ele>215.47</ele>
        <time>2013-05-05T09:16:16Z</time>
      </trkpt>
      <trkpt lat="48.54175" lon="-3.59421">
        <ele>214.99</ele>
        <time>2013-05-05T09:16:28Z</time>
      </trkpt>
      <trkpt lat="48.5418" lon="-3.59399">
        <ele>214.51</ele>
        <time>2013-05-05T09:16:30Z</time>
      </trkpt>
      <trkpt lat="48.54184" lon="-3.59389">
        <ele>214.99</ele>
        <time>2013-05-05T09:16:31Z</time>
      </trkpt>
      <trkpt lat="48.54189" lon="-3.5938">
        <ele>214.99</ele>
        <time>2013-05-05T09:16:32Z</time>
      </trkpt>
      <trkpt lat="48.54194" lon="-3.59371">
        <ele>214.99</ele>
        <time>2013-05-05T09:16:33Z</time>
      </trkpt>
      <trkpt lat="48.542" lon="-3.59363">
        <ele>215.95</ele>
        <time>2013-05-05T09:16:34Z</time>
      </trkpt>
      <trkpt lat="48.54206" lon="-3.59356">
        <ele>214.99</ele>
        <time>2013-05-05T09:16:35Z</time>
      </trkpt>
      <trkpt lat="48.54213" lon="-3.59351">
        <ele>215.95</ele>
        <time>2013-05-05T09:16:36Z</time>
      </trkpt>
      <trkpt lat="48.5422" lon="-3.59346">
        <ele>215.47</ele>
        <time>2013-05-05T09:16:37Z</time>
      </trkpt>
      <trkpt lat="48.54307" lon="-3.59281">
        <ele>214.03</ele>
        <time>2013-05-05T09:16:50Z</time>
      </trkpt>
      <trkpt lat="48.54429" lon="-3.59235">
        <ele>213.55</ele>
        <time>2013-05-05T09:17:06Z</time>
      </trkpt>
      <trkpt lat="48.54523" lon="-3.59193">
        <ele>211.15</ele>
        <time>2013-05-05T09:17:18Z</time>
      </trkpt>
      <trkpt lat="48.5453" lon="-3.59185">
        <ele>210.19</ele>
        <time>2013-05-05T09:17:19Z</time>
      </trkpt>
      <trkpt lat="48.54537" lon="-3.59177">
        <ele>210.19</ele>
        <time>2013-05-05T09:17:20Z</time>
      </trkpt>
      <trkpt lat="48.54542" lon="-3.59166">
        <ele>209.7</ele>
        <time>2013-05-05T09:17:21Z</time>
      </trkpt>
      <trkpt lat="48.54547" lon="-3.59155">
        <ele>208.74</ele>
        <time>2013-05-05T09:17:22Z</time>
      </trkpt>
      <trkpt lat="48.5455" lon="-3.59142">
        <ele>208.26</ele>
        <time>2013-05-05T09:17:23Z</time>
      </trkpt>
      <trkpt lat="48.54553" lon="-3.59129">
        <ele>207.78</ele>
        <time>2013-05-05T09:17:24Z</time>
      </trkpt>
      <trkpt lat="48.5456" lon="-3.59104">
        <ele>207.78</ele>
        <time>2013-05-05T09:17:26Z</time>
      </trkpt>
      <trkpt lat="48.54565" lon="-3.59092">
        <ele>207.78</ele>
        <time>2013-05-05T09:17:27Z</time>
      </trkpt>
      <trkpt lat="48.54571" lon="-3.59081">
        <ele>208.26</ele>
        <time>2013-05-05T09:17:28Z</time>
      </trkpt>
      <trkpt lat="48.54578" lon="-3.59073">
        <ele>206.82</ele>
        <time>2013-05-05T09:17:29Z</time>
      </trkpt>
      <trkpt lat="48.54585" lon="-3.59065">
        <ele>206.34</ele>
        <time>2013-05-05T09:17:30Z</time>
      </trkpt>
      <trkpt lat="48.54606" lon="-3.59039">
        <ele>205.38</ele>
        <time>2013-05-05T09:17:33Z</time>
      </trkpt>
      <trkpt lat="48.54612" lon="-3.59028">
        <ele>204.9</ele>
        <time>2013-05-05T09:17:34Z</time>
      </trkpt>
      <trkpt lat="48.54628" lon="-3.58994">
        <ele>203.94</ele>
        <time>2013-05-05T09:17:37Z</time>
      </trkpt>
      <trkpt lat="48.54634" lon="-3.58984">
        <ele>203.94</ele>
        <time>2013-05-05T09:17:38Z</time>
      </trkpt>
      <trkpt lat="48.54642" lon="-3.58977">
        <ele>203.94</ele>
        <time>2013-05-05T09:17:39Z</time>
      </trkpt>
      <trkpt lat="48.5465" lon="-3.58971">
        <ele>203.46</ele>
        <time>2013-05-05T09:17:40Z</time>
      </trkpt>
      <trkpt lat="48.54658" lon="-3.58967">
        <ele>203.46</ele>
        <time>2013-05-05T09:17:41Z</time>
      </trkpt>
      <trkpt lat="48.54667" lon="-3.58966">
        <ele>203.46</ele>
        <time>2013-05-05T09:17:42Z</time>
      </trkpt>
      <trkpt lat="48.54676" lon="-3.58966">
        <ele>202.98</ele>
        <time>2013-05-05T09:17:43Z</time>
      </trkpt>
      <trkpt lat="48.54684" lon="-3.58969">
        <ele>202.98</ele>
        <time>2013-05-05T09:17:44Z</time>
      </trkpt>
      <trkpt lat="48.54692" lon="-3.58972">
        <ele>203.46</ele>
        <time>2013-05-05T09:17:45Z</time>
      </trkpt>
      <trkpt lat="48.54699" lon="-3.58975">
        <ele>203.46</ele>
        <time>2013-05-05T09:17:46Z</time>
      </trkpt>
      <trkpt lat="48.54739" lon="-3.58994">
        <ele>203.94</ele>
        <time>2013-05-05T09:17:52Z</time>
      </trkpt>
      <trkpt lat="48.54746" lon="-3.58995">
        <ele>203.94</ele>
        <time>2013-05-05T09:17:53Z</time>
      </trkpt>
      <trkpt lat="48.54752" lon="-3.58996">
        <ele>203.94</ele>
        <time>2013-05-05T09:17:54Z</time>
      </trkpt>
      <trkpt lat="48.5477" lon="-3.58996">
        <ele>204.9</ele>
        <time>2013-05-05T09:17:57Z</time>
      </trkpt>
      <trkpt lat="48.54776" lon="-3.58994">
        <ele>204.9</ele>
        <time>2013-05-05T09:17:58Z</time>
      </trkpt>
      <trkpt lat="48.54805" lon="-3.58987">
        <ele>205.86</ele>
        <time>2013-05-05T09:18:03Z</time>
      </trkpt>
      <trkpt lat="48.54844" lon="-3.58974">
        <ele>206.82</ele>
        <time>2013-05-05T09:18:10Z</time>
      </trkpt>
      <trkpt lat="48.54861" lon="-3.58967">
        <ele>207.3</ele>
        <time>2013-05-05T09:18:13Z</time>
      </trkpt>
      <trkpt lat="48.54962" lon="-3.5893">
        <ele>206.34</ele>
        <time>2013-05-05T09:18:28Z</time>
      </trkpt>
      <trkpt lat="48.55015" lon="-3.5888">
        <ele>203.46</ele>
        <time>2013-05-05T09:18:35Z</time>
      </trkpt>
      <trkpt lat="48.55021" lon="-3.58869">
        <ele>202.98</ele>
        <time>2013-05-05T09:18:36Z</time>
      </trkpt>
      <trkpt lat="48.55027" lon="-3.58858">
        <ele>202.98</ele>
        <time>2013-05-05T09:18:37Z</time>
      </trkpt>
      <trkpt lat="48.5505" lon="-3.58796">
        <ele>200.09</ele>
        <time>2013-05-05T09:18:42Z</time>
      </trkpt>
      <trkpt lat="48.55088" lon="-3.58686">
        <ele>197.21</ele>
        <time>2013-05-05T09:18:51Z</time>
      </trkpt>
      <trkpt lat="48.55159" lon="-3.58512">
        <ele>195.77</ele>
        <time>2013-05-05T09:19:08Z</time>
      </trkpt>
      <trkpt lat="48.55231" lon="-3.58409">
        <ele>194.8</ele>
        <time>2013-05-05T09:19:20Z</time>
      </trkpt>
      <trkpt lat="48.55296" lon="-3.58314">
        <ele>191.44</ele>
        <time>2013-05-05T09:19:30Z</time>
      </trkpt>
      <trkpt lat="48.55324" lon="-3.58262">
        <ele>190.48</ele>
        <time>2013-05-05T09:19:35Z</time>
      </trkpt>
      <trkpt lat="48.55327" lon="-3.5825">
        <ele>190</ele>
        <time>2013-05-05T09:19:36Z</time>
      </trkpt>
      <trkpt lat="48.5533" lon="-3.58237">
        <ele>189.52</ele>
        <time>2013-05-05T09:19:37Z</time>
      </trkpt>
      <trkpt lat="48.55333" lon="-3.58224">
        <ele>189.52</ele>
        <time>2013-05-05T09:19:38Z</time>
      </trkpt>
      <trkpt lat="48.55334" lon="-3.58211">
        <ele>189.52</ele>
        <time>2013-05-05T09:19:39Z</time>
      </trkpt>
      <trkpt lat="48.55335" lon="-3.58197">
        <ele>189.52</ele>
        <time>2013-05-05T09:19:40Z</time>
      </trkpt>
      <trkpt lat="48.55336" lon="-3.58183">
        <ele>189.52</ele>
        <time>2013-05-05T09:19:41Z</time>
      </trkpt>
      <trkpt lat="48.55337" lon="-3.58035">
        <ele>187.59</ele>
        <time>2013-05-05T09:19:53Z</time>
      </trkpt>
      <trkpt lat="48.55381" lon="-3.57919">
        <ele>188.08</ele>
        <time>2013-05-05T09:20:05Z</time>
      </trkpt>
      <trkpt lat="48.55451" lon="-3.57804">
        <ele>188.08</ele>
        <time>2013-05-05T09:20:19Z</time>
      </trkpt>
      <trkpt lat="48.55562" lon="-3.57674">
        <ele>187.59</ele>
        <time>2013-05-05T09:20:38Z</time>
      </trkpt>
      <trkpt lat="48.55662" lon="-3.57555">
        <ele>187.11</ele>
        <time>2013-05-05T09:20:53Z</time>
      </trkpt>
      <trkpt lat="48.55747" lon="-3.57479">
        <ele>184.71</ele>
        <time>2013-05-05T09:21:05Z</time>
      </trkpt>
      <trkpt lat="48.55844" lon="-3.57388">
        <ele>184.71</ele>
        <time>2013-05-05T09:21:19Z</time>
      </trkpt>
      <trkpt lat="48.55939" lon="-3.57294">
        <ele>185.67</ele>
        <time>2013-05-05T09:21:35Z</time>
      </trkpt>
      <trkpt lat="48.56032" lon="-3.5721">
        <ele>187.11</ele>
        <time>2013-05-05T09:21:50Z</time>
      </trkpt>
      <trkpt lat="48.56112" lon="-3.57135">
        <ele>187.59</ele>
        <time>2013-05-05T09:22:03Z</time>
      </trkpt>
      <trkpt lat="48.56196" lon="-3.57057">
        <ele>186.63</ele>
        <time>2013-05-05T09:22:16Z</time>
      </trkpt>
      <trkpt lat="48.56274" lon="-3.5698">
        <ele>186.63</ele>
        <time>2013-05-05T09:22:28Z</time>
      </trkpt>
      <trkpt lat="48.56281" lon="-3.56974">
        <ele>186.63</ele>
        <time>2013-05-05T09:22:29Z</time>
      </trkpt>
      <trkpt lat="48.56306" lon="-3.56947">
        <ele>186.15</ele>
        <time>2013-05-05T09:22:33Z</time>
      </trkpt>
      <trkpt lat="48.56398" lon="-3.56862">
        <ele>183.27</ele>
        <time>2013-05-05T09:22:46Z</time>
      </trkpt>
      <trkpt lat="48.56529" lon="-3.56756">
        <ele>182.31</ele>
        <time>2013-05-05T09:23:03Z</time>
      </trkpt>
      <trkpt lat="48.56614" lon="-3.56717">
        <ele>180.87</ele>
        <time>2013-05-05T09:23:15Z</time>
      </trkpt>
      <trkpt lat="48.56635" lon="-3.56715">
        <ele>178.46</ele>
        <time>2013-05-05T09:23:19Z</time>
      </trkpt>
      <trkpt lat="48.5664" lon="-3.56717">
        <ele>178.46</ele>
        <time>2013-05-05T09:23:20Z</time>
      </trkpt>
      <trkpt lat="48.56645" lon="-3.56719">
        <ele>178.46</ele>
        <time>2013-05-05T09:23:21Z</time>
      </trkpt>
      <trkpt lat="48.56717" lon="-3.56757">
        <ele>176.06</ele>
        <time>2013-05-05T09:23:31Z</time>
      </trkpt>
      <trkpt lat="48.56827" lon="-3.56837">
        <ele>173.66</ele>
        <time>2013-05-05T09:23:45Z</time>
      </trkpt>
      <trkpt lat="48.56912" lon="-3.56928">
        <ele>173.66</ele>
        <time>2013-05-05T09:23:58Z</time>
      </trkpt>
      <trkpt lat="48.56955" lon="-3.57033">
        <ele>175.1</ele>
        <time>2013-05-05T09:24:09Z</time>
      </trkpt>
      <trkpt lat="48.5702" lon="-3.57147">
        <ele>176.06</ele>
        <time>2013-05-05T09:24:23Z</time>
      </trkpt>
      <trkpt lat="48.57107" lon="-3.57207">
        <ele>176.54</ele>
        <time>2013-05-05T09:24:35Z</time>
      </trkpt>
      <trkpt lat="48.57226" lon="-3.57268">
        <ele>173.66</ele>
        <time>2013-05-05T09:24:49Z</time>
      </trkpt>
      <trkpt lat="48.57331" lon="-3.57297">
        <ele>170.77</ele>
        <time>2013-05-05T09:25:00Z</time>
      </trkpt>
      <trkpt lat="48.57372" lon="-3.57308">
        <ele>169.33</ele>
        <time>2013-05-05T09:25:04Z</time>
      </trkpt>
      <trkpt lat="48.57424" lon="-3.57323">
        <ele>165.96</ele>
        <time>2013-05-05T09:25:09Z</time>
      </trkpt>
      <trkpt lat="48.57434" lon="-3.57325">
        <ele>165.96</ele>
        <time>2013-05-05T09:25:10Z</time>
      </trkpt>
      <trkpt lat="48.57467" lon="-3.57327">
        <ele>164.04</ele>
        <time>2013-05-05T09:25:13Z</time>
      </trkpt>
      <trkpt lat="48.57478" lon="-3.57324">
        <ele>163.56</ele>
        <time>2013-05-05T09:25:14Z</time>
      </trkpt>
      <trkpt lat="48.57488" lon="-3.57319">
        <ele>163.08</ele>
        <time>2013-05-05T09:25:15Z</time>
      </trkpt>
      <trkpt lat="48.57498" lon="-3.57312">
        <ele>163.08</ele>
        <time>2013-05-05T09:25:16Z</time>
      </trkpt>
      <trkpt lat="48.57508" lon="-3.57305">
        <ele>163.08</ele>
        <time>2013-05-05T09:25:17Z</time>
      </trkpt>
      <trkpt lat="48.57517" lon="-3.57296">
        <ele>162.6</ele>
        <time>2013-05-05T09:25:18Z</time>
      </trkpt>
      <trkpt lat="48.57572" lon="-3.57244">
        <ele>159.24</ele>
        <time>2013-05-05T09:25:24Z</time>
      </trkpt>
      <trkpt lat="48.57684" lon="-3.5714">
        <ele>157.79</ele>
        <time>2013-05-05T09:25:38Z</time>
      </trkpt>
      <trkpt lat="48.57794" lon="-3.57037">
        <ele>158.75</ele>
        <time>2013-05-05T09:25:55Z</time>
      </trkpt>
      <trkpt lat="48.57881" lon="-3.56954">
        <ele>159.72</ele>
        <time>2013-05-05T09:26:10Z</time>
      </trkpt>
      <trkpt lat="48.57965" lon="-3.56873">
        <ele>160.2</ele>
        <time>2013-05-05T09:26:25Z</time>
      </trkpt>
      <trkpt lat="48.58039" lon="-3.56773">
        <ele>159.72</ele>
        <time>2013-05-05T09:26:39Z</time>
      </trkpt>
      <trkpt lat="48.58067" lon="-3.56738">
        <ele>159.72</ele>
        <time>2013-05-05T09:26:44Z</time>
      </trkpt>
      <trkpt lat="48.58074" lon="-3.56733">
        <ele>159.72</ele>
        <time>2013-05-05T09:26:45Z</time>
      </trkpt>
      <trkpt lat="48.58118" lon="-3.56706">
        <ele>158.27</ele>
        <time>2013-05-05T09:26:52Z</time>
      </trkpt>
      <trkpt lat="48.58125" lon="-3.56709">
        <ele>158.27</ele>
        <time>2013-05-05T09:26:53Z</time>
      </trkpt>
      <trkpt lat="48.58144" lon="-3.56722">
        <ele>158.27</ele>
        <time>2013-05-05T09:26:56Z</time>
      </trkpt>
      <trkpt lat="48.58152" lon="-3.56724">
        <ele>157.79</ele>
        <time>2013-05-05T09:26:57Z</time>
      </trkpt>
      <trkpt lat="48.5816" lon="-3.56722">
        <ele>156.83</ele>
        <time>2013-05-05T09:26:58Z</time>
      </trkpt>
      <trkpt lat="48.58178" lon="-3.56714">
        <ele>154.91</ele>
        <time>2013-05-05T09:27:00Z</time>
      </trkpt>
      <trkpt lat="48.58188" lon="-3.56712">
        <ele>153.47</ele>
        <time>2013-05-05T09:27:01Z</time>
      </trkpt>
      <trkpt lat="48.5822" lon="-3.56707">
        <ele>152.03</ele>
        <time>2013-05-05T09:27:04Z</time>
      </trkpt>
      <trkpt lat="48.58229" lon="-3.56701">
        <ele>152.03</ele>
        <time>2013-05-05T09:27:05Z</time>
      </trkpt>
      <trkpt lat="48.58236" lon="-3.56694">
        <ele>152.51</ele>
        <time>2013-05-05T09:27:06Z</time>
      </trkpt>
      <trkpt lat="48.58259" lon="-3.56668">
        <ele>153.95</ele>
        <time>2013-05-05T09:27:10Z</time>
      </trkpt>
      <trkpt lat="48.58265" lon="-3.56664">
        <ele>154.43</ele>
        <time>2013-05-05T09:27:11Z</time>
      </trkpt>
      <trkpt lat="48.5827" lon="-3.56661">
        <ele>154.43</ele>
        <time>2013-05-05T09:27:12Z</time>
      </trkpt>
      <trkpt lat="48.58275" lon="-3.56656">
        <ele>154.43</ele>
        <time>2013-05-05T09:27:13Z</time>
      </trkpt>
      <trkpt lat="48.58279" lon="-3.56649">
        <ele>153.95</ele>
        <time>2013-05-05T09:27:14Z</time>
      </trkpt>
      <trkpt lat="48.58283" lon="-3.5664">
        <ele>154.43</ele>
        <time>2013-05-05T09:27:15Z</time>
      </trkpt>
      <trkpt lat="48.58287" lon="-3.56631">
        <ele>154.43</ele>
        <time>2013-05-05T09:27:16Z</time>
      </trkpt>
      <trkpt lat="48.58291" lon="-3.56622">
        <ele>154.43</ele>
        <time>2013-05-05T09:27:17Z</time>
      </trkpt>
      <trkpt lat="48.58355" lon="-3.56467">
        <ele>154.43</ele>
        <time>2013-05-05T09:27:33Z</time>
      </trkpt>
      <trkpt lat="48.58421" lon="-3.56305">
        <ele>153.47</ele>
        <time>2013-05-05T09:27:49Z</time>
      </trkpt>
      <trkpt lat="48.58479" lon="-3.56164">
        <ele>151.54</ele>
        <time>2013-05-05T09:28:03Z</time>
      </trkpt>
      <trkpt lat="48.58533" lon="-3.56028">
        <ele>150.1</ele>
        <time>2013-05-05T09:28:17Z</time>
      </trkpt>
      <trkpt lat="48.58602" lon="-3.55862">
        <ele>149.14</ele>
        <time>2013-05-05T09:28:34Z</time>
      </trkpt>
      <trkpt lat="48.58675" lon="-3.55713">
        <ele>150.58</ele>
        <time>2013-05-05T09:28:50Z</time>
      </trkpt>
      <trkpt lat="48.58747" lon="-3.55622">
        <ele>150.58</ele>
        <time>2013-05-05T09:29:03Z</time>
      </trkpt>
      <trkpt lat="48.58831" lon="-3.55536">
        <ele>150.1</ele>
        <time>2013-05-05T09:29:17Z</time>
      </trkpt>
      <trkpt lat="48.58903" lon="-3.55404">
        <ele>149.14</ele>
        <time>2013-05-05T09:29:32Z</time>
      </trkpt>
      <trkpt lat="48.58968" lon="-3.55258">
        <ele>148.18</ele>
        <time>2013-05-05T09:29:47Z</time>
      </trkpt>
      <trkpt lat="48.59043" lon="-3.55148">
        <ele>145.3</ele>
        <time>2013-05-05T09:30:00Z</time>
      </trkpt>
      <trkpt lat="48.5913" lon="-3.55061">
        <ele>141.93</ele>
        <time>2013-05-05T09:30:11Z</time>
      </trkpt>
      <trkpt lat="48.59236" lon="-3.54956">
        <ele>140.49</ele>
        <time>2013-05-05T09:30:25Z</time>
      </trkpt>
      <trkpt lat="48.59326" lon="-3.54915">
        <ele>139.53</ele>
        <time>2013-05-05T09:30:36Z</time>
      </trkpt>
      <trkpt lat="48.59334" lon="-3.5491">
        <ele>138.09</ele>
        <time>2013-05-05T09:30:37Z</time>
      </trkpt>
      <trkpt lat="48.59342" lon="-3.54903">
        <ele>137.61</ele>
        <time>2013-05-05T09:30:38Z</time>
      </trkpt>
      <trkpt lat="48.5935" lon="-3.54895">
        <ele>137.61</ele>
        <time>2013-05-05T09:30:39Z</time>
      </trkpt>
      <trkpt lat="48.59356" lon="-3.54885">
        <ele>137.13</ele>
        <time>2013-05-05T09:30:40Z</time>
      </trkpt>
      <trkpt lat="48.59362" lon="-3.54874">
        <ele>137.13</ele>
        <time>2013-05-05T09:30:41Z</time>
      </trkpt>
      <trkpt lat="48.59367" lon="-3.54862">
        <ele>136.64</ele>
        <time>2013-05-05T09:30:42Z</time>
      </trkpt>
      <trkpt lat="48.5937" lon="-3.5485">
        <ele>136.64</ele>
        <time>2013-05-05T09:30:43Z</time>
      </trkpt>
      <trkpt lat="48.59372" lon="-3.54837">
        <ele>136.64</ele>
        <time>2013-05-05T09:30:44Z</time>
      </trkpt>
      <trkpt lat="48.59373" lon="-3.54824">
        <ele>136.64</ele>
        <time>2013-05-05T09:30:45Z</time>
      </trkpt>
      <trkpt lat="48.59374" lon="-3.54812">
        <ele>136.64</ele>
        <time>2013-05-05T09:30:46Z</time>
      </trkpt>
      <trkpt lat="48.59375" lon="-3.54799">
        <ele>136.16</ele>
        <time>2013-05-05T09:30:47Z</time>
      </trkpt>
      <trkpt lat="48.59382" lon="-3.54619">
        <ele>136.16</ele>
        <time>2013-05-05T09:31:02Z</time>
      </trkpt>
      <trkpt lat="48.59386" lon="-3.54563">
        <ele>137.13</ele>
        <time>2013-05-05T09:31:07Z</time>
      </trkpt>
      <trkpt lat="48.59394" lon="-3.54523">
        <ele>136.64</ele>
        <time>2013-05-05T09:31:11Z</time>
      </trkpt>
      <trkpt lat="48.59417" lon="-3.54468">
        <ele>138.09</ele>
        <time>2013-05-05T09:31:17Z</time>
      </trkpt>
      <trkpt lat="48.59478" lon="-3.5439">
        <ele>139.53</ele>
        <time>2013-05-05T09:31:30Z</time>
      </trkpt>
      <trkpt lat="48.59508" lon="-3.54354">
        <ele>140.49</ele>
        <time>2013-05-05T09:31:37Z</time>
      </trkpt>
      <trkpt lat="48.59512" lon="-3.54348">
        <ele>140.49</ele>
        <time>2013-05-05T09:31:38Z</time>
      </trkpt>
      <trkpt lat="48.59588" lon="-3.54267">
        <ele>142.41</ele>
        <time>2013-05-05T09:31:55Z</time>
      </trkpt>
      <trkpt lat="48.59673" lon="-3.54187">
        <ele>145.3</ele>
        <time>2013-05-05T09:32:13Z</time>
      </trkpt>
      <trkpt lat="48.59715" lon="-3.5415">
        <ele>146.74</ele>
        <time>2013-05-05T09:32:22Z</time>
      </trkpt>
      <trkpt lat="48.5972" lon="-3.54146">
        <ele>146.74</ele>
        <time>2013-05-05T09:32:23Z</time>
      </trkpt>
      <trkpt lat="48.5979" lon="-3.54076">
        <ele>148.66</ele>
        <time>2013-05-05T09:32:39Z</time>
      </trkpt>
      <trkpt lat="48.59858" lon="-3.53991">
        <ele>150.58</ele>
        <time>2013-05-05T09:32:56Z</time>
      </trkpt>
      <trkpt lat="48.59929" lon="-3.53905">
        <ele>153.95</ele>
        <time>2013-05-05T09:33:13Z</time>
      </trkpt>
      <trkpt lat="48.60011" lon="-3.53848">
        <ele>154.91</ele>
        <time>2013-05-05T09:33:28Z</time>
      </trkpt>
      <trkpt lat="48.60108" lon="-3.53843">
        <ele>152.99</ele>
        <time>2013-05-05T09:33:41Z</time>
      </trkpt>
      <trkpt lat="48.60265" lon="-3.53857">
        <ele>152.03</ele>
        <time>2013-05-05T09:34:00Z</time>
      </trkpt>
      <trkpt lat="48.60403" lon="-3.53863">
        <ele>152.99</ele>
        <time>2013-05-05T09:34:17Z</time>
      </trkpt>
      <trkpt lat="48.60519" lon="-3.53842">
        <ele>153.47</ele>
        <time>2013-05-05T09:34:32Z</time>
      </trkpt>
      <trkpt lat="48.60649" lon="-3.53819">
        <ele>153.47</ele>
        <time>2013-05-05T09:34:48Z</time>
      </trkpt>
      <trkpt lat="48.60745" lon="-3.53799">
        <ele>149.62</ele>
        <time>2013-05-05T09:34:58Z</time>
      </trkpt>
      <trkpt lat="48.60784" lon="-3.53791">
        <ele>147.7</ele>
        <time>2013-05-05T09:35:02Z</time>
      </trkpt>
      <trkpt lat="48.60814" lon="-3.53783">
        <ele>146.26</ele>
        <time>2013-05-05T09:35:05Z</time>
      </trkpt>
      <trkpt lat="48.60855" lon="-3.53772">
        <ele>144.82</ele>
        <time>2013-05-05T09:35:09Z</time>
      </trkpt>
      <trkpt lat="48.60907" lon="-3.53769">
        <ele>142.41</ele>
        <time>2013-05-05T09:35:14Z</time>
      </trkpt>
      <trkpt lat="48.60949" lon="-3.53769">
        <ele>140.97</ele>
        <time>2013-05-05T09:35:18Z</time>
      </trkpt>
      <trkpt lat="48.61101" lon="-3.53766">
        <ele>138.57</ele>
        <time>2013-05-05T09:35:33Z</time>
      </trkpt>
      <trkpt lat="48.61157" lon="-3.53754">
        <ele>136.64</ele>
        <time>2013-05-05T09:35:39Z</time>
      </trkpt>
      <trkpt lat="48.61281" lon="-3.53695">
        <ele>133.76</ele>
        <time>2013-05-05T09:35:52Z</time>
      </trkpt>
      <trkpt lat="48.61312" lon="-3.5368">
        <ele>132.32</ele>
        <time>2013-05-05T09:35:55Z</time>
      </trkpt>
      <trkpt lat="48.61428" lon="-3.53625">
        <ele>128.95</ele>
        <time>2013-05-05T09:36:06Z</time>
      </trkpt>
      <trkpt lat="48.61507" lon="-3.53606">
        <ele>125.59</ele>
        <time>2013-05-05T09:36:14Z</time>
      </trkpt>
      <trkpt lat="48.61517" lon="-3.53607">
        <ele>125.11</ele>
        <time>2013-05-05T09:36:15Z</time>
      </trkpt>
      <trkpt lat="48.61528" lon="-3.53611">
        <ele>124.63</ele>
        <time>2013-05-05T09:36:16Z</time>
      </trkpt>
      <trkpt lat="48.61582" lon="-3.53629">
        <ele>121.26</ele>
        <time>2013-05-05T09:36:21Z</time>
      </trkpt>
      <trkpt lat="48.61614" lon="-3.53645">
        <ele>119.82</ele>
        <time>2013-05-05T09:36:24Z</time>
      </trkpt>
      <trkpt lat="48.61665" lon="-3.53678">
        <ele>116.94</ele>
        <time>2013-05-05T09:36:29Z</time>
      </trkpt>
      <trkpt lat="48.61726" lon="-3.5371">
        <ele>113.57</ele>
        <time>2013-05-05T09:36:35Z</time>
      </trkpt>
      <trkpt lat="48.61744" lon="-3.53725">
        <ele>113.57</ele>
        <time>2013-05-05T09:36:37Z</time>
      </trkpt>
      <trkpt lat="48.61753" lon="-3.53734">
        <ele>113.09</ele>
        <time>2013-05-05T09:36:38Z</time>
      </trkpt>
      <trkpt lat="48.61808" lon="-3.53792">
        <ele>110.69</ele>
        <time>2013-05-05T09:36:45Z</time>
      </trkpt>
      <trkpt lat="48.61817" lon="-3.53798">
        <ele>110.69</ele>
        <time>2013-05-05T09:36:46Z</time>
      </trkpt>
      <trkpt lat="48.61826" lon="-3.53802">
        <ele>110.21</ele>
        <time>2013-05-05T09:36:47Z</time>
      </trkpt>
      <trkpt lat="48.61836" lon="-3.53805">
        <ele>110.21</ele>
        <time>2013-05-05T09:36:48Z</time>
      </trkpt>
      <trkpt lat="48.61846" lon="-3.53807">
        <ele>110.21</ele>
        <time>2013-05-05T09:36:49Z</time>
      </trkpt>
      <trkpt lat="48.6189" lon="-3.53816">
        <ele>109.73</ele>
        <time>2013-05-05T09:36:54Z</time>
      </trkpt>
      <trkpt lat="48.61898" lon="-3.53818">
        <ele>110.21</ele>
        <time>2013-05-05T09:36:55Z</time>
      </trkpt>
      <trkpt lat="48.61905" lon="-3.5382">
        <ele>110.21</ele>
        <time>2013-05-05T09:36:56Z</time>
      </trkpt>
      <trkpt lat="48.6192" lon="-3.53824">
        <ele>109.73</ele>
        <time>2013-05-05T09:36:58Z</time>
      </trkpt>
      <trkpt lat="48.61927" lon="-3.53823">
        <ele>109.73</ele>
        <time>2013-05-05T09:36:59Z</time>
      </trkpt>
      <trkpt lat="48.61934" lon="-3.53819">
        <ele>109.25</ele>
        <time>2013-05-05T09:37:00Z</time>
      </trkpt>
      <trkpt lat="48.6194" lon="-3.53812">
        <ele>109.73</ele>
        <time>2013-05-05T09:37:01Z</time>
      </trkpt>
      <trkpt lat="48.61944" lon="-3.53804">
        <ele>109.25</ele>
        <time>2013-05-05T09:37:02Z</time>
      </trkpt>
      <trkpt lat="48.61949" lon="-3.53796">
        <ele>108.77</ele>
        <time>2013-05-05T09:37:03Z</time>
      </trkpt>
      <trkpt lat="48.61954" lon="-3.5379">
        <ele>108.29</ele>
        <time>2013-05-05T09:37:04Z</time>
      </trkpt>
      <trkpt lat="48.6196" lon="-3.53787">
        <ele>108.29</ele>
        <time>2013-05-05T09:37:05Z</time>
      </trkpt>
      <trkpt lat="48.61966" lon="-3.53784">
        <ele>107.81</ele>
        <time>2013-05-05T09:37:06Z</time>
      </trkpt>
      <trkpt lat="48.61972" lon="-3.5378">
        <ele>107.32</ele>
        <time>2013-05-05T09:37:07Z</time>
      </trkpt>
      <trkpt lat="48.61976" lon="-3.53773">
        <ele>107.32</ele>
        <time>2013-05-05T09:37:08Z</time>
      </trkpt>
      <trkpt lat="48.61979" lon="-3.53763">
        <ele>106.84</ele>
        <time>2013-05-05T09:37:09Z</time>
      </trkpt>
      <trkpt lat="48.61982" lon="-3.53752">
        <ele>105.88</ele>
        <time>2013-05-05T09:37:10Z</time>
      </trkpt>
      <trkpt lat="48.61985" lon="-3.53741">
        <ele>105.88</ele>
        <time>2013-05-05T09:37:11Z</time>
      </trkpt>
      <trkpt lat="48.61997" lon="-3.53705">
        <ele>103.96</ele>
        <time>2013-05-05T09:37:14Z</time>
      </trkpt>
      <trkpt lat="48.62013" lon="-3.53653">
        <ele>102.52</ele>
        <time>2013-05-05T09:37:18Z</time>
      </trkpt>
      <trkpt lat="48.62019" lon="-3.53643">
        <ele>102.52</ele>
        <time>2013-05-05T09:37:19Z</time>
      </trkpt>
      <trkpt lat="48.62025" lon="-3.53635">
        <ele>102.52</ele>
        <time>2013-05-05T09:37:20Z</time>
      </trkpt>
      <trkpt lat="48.62032" lon="-3.53629">
        <ele>103.48</ele>
        <time>2013-05-05T09:37:21Z</time>
      </trkpt>
      <trkpt lat="48.62038" lon="-3.53624">
        <ele>103.48</ele>
        <time>2013-05-05T09:37:22Z</time>
      </trkpt>
      <trkpt lat="48.62056" lon="-3.53611">
        <ele>104.44</ele>
        <time>2013-05-05T09:37:25Z</time>
      </trkpt>
      <trkpt lat="48.6206" lon="-3.53606">
        <ele>104.44</ele>
        <time>2013-05-05T09:37:26Z</time>
      </trkpt>
      <trkpt lat="48.62065" lon="-3.536">
        <ele>104.92</ele>
        <time>2013-05-05T09:37:27Z</time>
      </trkpt>
      <trkpt lat="48.62113" lon="-3.53516">
        <ele>106.84</ele>
        <time>2013-05-05T09:37:39Z</time>
      </trkpt>
      <trkpt lat="48.62175" lon="-3.5339">
        <ele>104.92</ele>
        <time>2013-05-05T09:37:53Z</time>
      </trkpt>
      <trkpt lat="48.62186" lon="-3.53374">
        <ele>104.44</ele>
        <time>2013-05-05T09:37:55Z</time>
      </trkpt>
      <trkpt lat="48.62194" lon="-3.53367">
        <ele>104.44</ele>
        <time>2013-05-05T09:37:56Z</time>
      </trkpt>
      <trkpt lat="48.62202" lon="-3.53361">
        <ele>103.48</ele>
        <time>2013-05-05T09:37:57Z</time>
      </trkpt>
      <trkpt lat="48.6221" lon="-3.53356">
        <ele>103.48</ele>
        <time>2013-05-05T09:37:58Z</time>
      </trkpt>
      <trkpt lat="48.62227" lon="-3.53344">
        <ele>102.52</ele>
        <time>2013-05-05T09:38:00Z</time>
      </trkpt>
      <trkpt lat="48.62235" lon="-3.53335">
        <ele>101.56</ele>
        <time>2013-05-05T09:38:01Z</time>
      </trkpt>
      <trkpt lat="48.62242" lon="-3.53325">
        <ele>101.08</ele>
        <time>2013-05-05T09:38:02Z</time>
      </trkpt>
      <trkpt lat="48.62249" lon="-3.53313">
        <ele>101.08</ele>
        <time>2013-05-05T09:38:03Z</time>
      </trkpt>
      <trkpt lat="48.62264" lon="-3.53292">
        <ele>100.11</ele>
        <time>2013-05-05T09:38:05Z</time>
      </trkpt>
      <trkpt lat="48.62272" lon="-3.53283">
        <ele>99.15</ele>
        <time>2013-05-05T09:38:06Z</time>
      </trkpt>
      <trkpt lat="48.62282" lon="-3.53275">
        <ele>98.67</ele>
        <time>2013-05-05T09:38:07Z</time>
      </trkpt>
      <trkpt lat="48.62292" lon="-3.53269">
        <ele>97.71</ele>
        <time>2013-05-05T09:38:08Z</time>
      </trkpt>
      <trkpt lat="48.62302" lon="-3.53263">
        <ele>97.23</ele>
        <time>2013-05-05T09:38:09Z</time>
      </trkpt>
      <trkpt lat="48.62312" lon="-3.53258">
        <ele>96.27</ele>
        <time>2013-05-05T09:38:10Z</time>
      </trkpt>
      <trkpt lat="48.62377" lon="-3.53214">
        <ele>93.87</ele>
        <time>2013-05-05T09:38:17Z</time>
      </trkpt>
      <trkpt lat="48.62387" lon="-3.53211">
        <ele>93.39</ele>
        <time>2013-05-05T09:38:18Z</time>
      </trkpt>
      <trkpt lat="48.62396" lon="-3.53208">
        <ele>92.9</ele>
        <time>2013-05-05T09:38:19Z</time>
      </trkpt>
      <trkpt lat="48.62414" lon="-3.53207">
        <ele>92.42</ele>
        <time>2013-05-05T09:38:21Z</time>
      </trkpt>
      <trkpt lat="48.62538" lon="-3.532">
        <ele>90.98</ele>
        <time>2013-05-05T09:38:35Z</time>
      </trkpt>
      <trkpt lat="48.62555" lon="-3.532">
        <ele>90.98</ele>
        <time>2013-05-05T09:38:37Z</time>
      </trkpt>
      <trkpt lat="48.62563" lon="-3.53203">
        <ele>90.5</ele>
        <time>2013-05-05T09:38:38Z</time>
      </trkpt>
      <trkpt lat="48.6257" lon="-3.53206">
        <ele>90.98</ele>
        <time>2013-05-05T09:38:39Z</time>
      </trkpt>
      <trkpt lat="48.62578" lon="-3.53211">
        <ele>90.98</ele>
        <time>2013-05-05T09:38:40Z</time>
      </trkpt>
      <trkpt lat="48.62585" lon="-3.53217">
        <ele>90.5</ele>
        <time>2013-05-05T09:38:41Z</time>
      </trkpt>
      <trkpt lat="48.62591" lon="-3.53225">
        <ele>90.02</ele>
        <time>2013-05-05T09:38:42Z</time>
      </trkpt>
      <trkpt lat="48.62597" lon="-3.53234">
        <ele>90.02</ele>
        <time>2013-05-05T09:38:43Z</time>
      </trkpt>
      <trkpt lat="48.62634" lon="-3.53285">
        <ele>90.98</ele>
        <time>2013-05-05T09:38:49Z</time>
      </trkpt>
      <trkpt lat="48.6264" lon="-3.53291">
        <ele>90.98</ele>
        <time>2013-05-05T09:38:50Z</time>
      </trkpt>
      <trkpt lat="48.62647" lon="-3.53296">
        <ele>91.46</ele>
        <time>2013-05-05T09:38:51Z</time>
      </trkpt>
      <trkpt lat="48.62655" lon="-3.53299">
        <ele>91.46</ele>
        <time>2013-05-05T09:38:52Z</time>
      </trkpt>
      <trkpt lat="48.62662" lon="-3.53301">
        <ele>91.46</ele>
        <time>2013-05-05T09:38:53Z</time>
      </trkpt>
      <trkpt lat="48.6267" lon="-3.53302">
        <ele>91.46</ele>
        <time>2013-05-05T09:38:54Z</time>
      </trkpt>
      <trkpt lat="48.62678" lon="-3.53301">
        <ele>91.46</ele>
        <time>2013-05-05T09:38:55Z</time>
      </trkpt>
      <trkpt lat="48.62687" lon="-3.53298">
        <ele>90.98</ele>
        <time>2013-05-05T09:38:56Z</time>
      </trkpt>
      <trkpt lat="48.62695" lon="-3.53294">
        <ele>90.02</ele>
        <time>2013-05-05T09:38:57Z</time>
      </trkpt>
      <trkpt lat="48.62703" lon="-3.53289">
        <ele>89.54</ele>
        <time>2013-05-05T09:38:58Z</time>
      </trkpt>
      <trkpt lat="48.62712" lon="-3.53282">
        <ele>89.06</ele>
        <time>2013-05-05T09:38:59Z</time>
      </trkpt>
      <trkpt lat="48.6272" lon="-3.53274">
        <ele>89.06</ele>
        <time>2013-05-05T09:39:00Z</time>
      </trkpt>
      <trkpt lat="48.62756" lon="-3.53223">
        <ele>85.69</ele>
        <time>2013-05-05T09:39:05Z</time>
      </trkpt>
      <trkpt lat="48.62797" lon="-3.53149">
        <ele>83.77</ele>
        <time>2013-05-05T09:39:11Z</time>
      </trkpt>
      <trkpt lat="48.62802" lon="-3.53136">
        <ele>83.29</ele>
        <time>2013-05-05T09:39:12Z</time>
      </trkpt>
      <trkpt lat="48.62807" lon="-3.53122">
        <ele>82.33</ele>
        <time>2013-05-05T09:39:13Z</time>
      </trkpt>
      <trkpt lat="48.62826" lon="-3.5305">
        <ele>78.97</ele>
        <time>2013-05-05T09:39:18Z</time>
      </trkpt>
      <trkpt lat="48.62847" lon="-3.52977">
        <ele>76.56</ele>
        <time>2013-05-05T09:39:23Z</time>
      </trkpt>
      <trkpt lat="48.62864" lon="-3.52929">
        <ele>76.56</ele>
        <time>2013-05-05T09:39:27Z</time>
      </trkpt>
      <trkpt lat="48.6287" lon="-3.52919">
        <ele>76.56</ele>
        <time>2013-05-05T09:39:28Z</time>
      </trkpt>
      <trkpt lat="48.62876" lon="-3.52911">
        <ele>76.56</ele>
        <time>2013-05-05T09:39:29Z</time>
      </trkpt>
      <trkpt lat="48.62882" lon="-3.52905">
        <ele>76.08</ele>
        <time>2013-05-05T09:39:30Z</time>
      </trkpt>
      <trkpt lat="48.6289" lon="-3.529">
        <ele>76.08</ele>
        <time>2013-05-05T09:39:31Z</time>
      </trkpt>
      <trkpt lat="48.62897" lon="-3.52897">
        <ele>76.08</ele>
        <time>2013-05-05T09:39:32Z</time>
      </trkpt>
      <trkpt lat="48.62905" lon="-3.52895">
        <ele>76.08</ele>
        <time>2013-05-05T09:39:33Z</time>
      </trkpt>
      <trkpt lat="48.62912" lon="-3.52895">
        <ele>76.08</ele>
        <time>2013-05-05T09:39:34Z</time>
      </trkpt>
      <trkpt lat="48.62919" lon="-3.52895">
        <ele>76.56</ele>
        <time>2013-05-05T09:39:35Z</time>
      </trkpt>
      <trkpt lat="48.62926" lon="-3.52897">
        <ele>76.56</ele>
        <time>2013-05-05T09:39:36Z</time>
      </trkpt>
      <trkpt lat="48.62932" lon="-3.52899">
        <ele>77.04</ele>
        <time>2013-05-05T09:39:37Z</time>
      </trkpt>
      <trkpt lat="48.62989" lon="-3.52925">
        <ele>79.93</ele>
        <time>2013-05-05T09:39:48Z</time>
      </trkpt>
      <trkpt lat="48.62997" lon="-3.5293">
        <ele>80.41</ele>
        <time>2013-05-05T09:39:50Z</time>
      </trkpt>
      <trkpt lat="48.63016" lon="-3.5294">
        <ele>81.85</ele>
        <time>2013-05-05T09:39:54Z</time>
      </trkpt>
      <trkpt lat="48.63036" lon="-3.52948">
        <ele>82.33</ele>
        <time>2013-05-05T09:39:58Z</time>
      </trkpt>
      <trkpt lat="48.63041" lon="-3.52949">
        <ele>82.81</ele>
        <time>2013-05-05T09:39:59Z</time>
      </trkpt>
      <trkpt lat="48.63095" lon="-3.52953">
        <ele>85.69</ele>
        <time>2013-05-05T09:40:10Z</time>
      </trkpt>
      <trkpt lat="48.63103" lon="-3.52951">
        <ele>85.69</ele>
        <time>2013-05-05T09:40:12Z</time>
      </trkpt>
      <trkpt lat="48.63116" lon="-3.52951">
        <ele>87.14</ele>
        <time>2013-05-05T09:40:15Z</time>
      </trkpt>
      <trkpt lat="48.63176" lon="-3.52963">
        <ele>90.02</ele>
        <time>2013-05-05T09:40:30Z</time>
      </trkpt>
      <trkpt lat="48.6322" lon="-3.52977">
        <ele>91.94</ele>
        <time>2013-05-05T09:40:41Z</time>
      </trkpt>
      <trkpt lat="48.63225" lon="-3.52977">
        <ele>91.94</ele>
        <time>2013-05-05T09:40:42Z</time>
      </trkpt>
      <trkpt lat="48.63229" lon="-3.52976">
        <ele>91.94</ele>
        <time>2013-05-05T09:40:43Z</time>
      </trkpt>
      <trkpt lat="48.63234" lon="-3.52975">
        <ele>91.94</ele>
        <time>2013-05-05T09:40:44Z</time>
      </trkpt>
      <trkpt lat="48.63239" lon="-3.52973">
        <ele>92.42</ele>
        <time>2013-05-05T09:40:45Z</time>
      </trkpt>
      <trkpt lat="48.63243" lon="-3.52971">
        <ele>92.42</ele>
        <time>2013-05-05T09:40:46Z</time>
      </trkpt>
      <trkpt lat="48.63247" lon="-3.52968">
        <ele>92.42</ele>
        <time>2013-05-05T09:40:47Z</time>
      </trkpt>
      <trkpt lat="48.63251" lon="-3.52964">
        <ele>92.9</ele>
        <time>2013-05-05T09:40:48Z</time>
      </trkpt>
      <trkpt lat="48.63255" lon="-3.5296">
        <ele>92.9</ele>
        <time>2013-05-05T09:40:49Z</time>
      </trkpt>
      <trkpt lat="48.63258" lon="-3.52955">
        <ele>93.39</ele>
        <time>2013-05-05T09:40:50Z</time>
      </trkpt>
      <trkpt lat="48.63262" lon="-3.52951">
        <ele>93.39</ele>
        <time>2013-05-05T09:40:51Z</time>
      </trkpt>
      <trkpt lat="48.63276" lon="-3.52933">
        <ele>93.87</ele>
        <time>2013-05-05T09:40:55Z</time>
      </trkpt>
      <trkpt lat="48.6328" lon="-3.52928">
        <ele>93.87</ele>
        <time>2013-05-05T09:40:56Z</time>
      </trkpt>
      <trkpt lat="48.63283" lon="-3.52922">
        <ele>93.87</ele>
        <time>2013-05-05T09:40:57Z</time>
      </trkpt>
      <trkpt lat="48.63325" lon="-3.52811">
        <ele>95.79</ele>
        <time>2013-05-05T09:41:14Z</time>
      </trkpt>
      <trkpt lat="48.63346" lon="-3.52746">
        <ele>98.67</ele>
        <time>2013-05-05T09:41:25Z</time>
      </trkpt>
      <trkpt lat="48.63357" lon="-3.52662">
        <ele>101.56</ele>
        <time>2013-05-05T09:41:38Z</time>
      </trkpt>
      <trkpt lat="48.63358" lon="-3.5265">
        <ele>102.04</ele>
        <time>2013-05-05T09:41:40Z</time>
      </trkpt>
      <trkpt lat="48.63359" lon="-3.52644">
        <ele>102.52</ele>
        <time>2013-05-05T09:41:41Z</time>
      </trkpt>
      <trkpt lat="48.63361" lon="-3.52619">
        <ele>103.48</ele>
        <time>2013-05-05T09:41:45Z</time>
      </trkpt>
      <trkpt lat="48.63373" lon="-3.52518">
        <ele>106.36</ele>
        <time>2013-05-05T09:42:01Z</time>
      </trkpt>
      <trkpt lat="48.63395" lon="-3.52398">
        <ele>107.81</ele>
        <time>2013-05-05T09:42:17Z</time>
      </trkpt>
      <trkpt lat="48.63418" lon="-3.52285">
        <ele>107.32</ele>
        <time>2013-05-05T09:42:32Z</time>
      </trkpt>
      <trkpt lat="48.6342" lon="-3.52277">
        <ele>107.32</ele>
        <time>2013-05-05T09:42:33Z</time>
      </trkpt>
      <trkpt lat="48.63427" lon="-3.52264">
        <ele>107.32</ele>
        <time>2013-05-05T09:42:35Z</time>
      </trkpt>
      <trkpt lat="48.63443" lon="-3.5224">
        <ele>107.32</ele>
        <time>2013-05-05T09:42:39Z</time>
      </trkpt>
      <trkpt lat="48.63449" lon="-3.52235">
        <ele>107.32</ele>
        <time>2013-05-05T09:42:40Z</time>
      </trkpt>
      <trkpt lat="48.63454" lon="-3.52232">
        <ele>106.84</ele>
        <time>2013-05-05T09:42:41Z</time>
      </trkpt>
      <trkpt lat="48.63537" lon="-3.52189">
        <ele>106.36</ele>
        <time>2013-05-05T09:42:56Z</time>
      </trkpt>
      <trkpt lat="48.63631" lon="-3.52114">
        <ele>103.96</ele>
        <time>2013-05-05T09:43:11Z</time>
      </trkpt>
      <trkpt lat="48.63705" lon="-3.52055">
        <ele>100.6</ele>
        <time>2013-05-05T09:43:21Z</time>
      </trkpt>
      <trkpt lat="48.63764" lon="-3.52029">
        <ele>102.52</ele>
        <time>2013-05-05T09:43:30Z</time>
      </trkpt>
      <trkpt lat="48.63774" lon="-3.5203">
        <ele>103.48</ele>
        <time>2013-05-05T09:43:32Z</time>
      </trkpt>
      <trkpt lat="48.63798" lon="-3.52032">
        <ele>104.92</ele>
        <time>2013-05-05T09:43:37Z</time>
      </trkpt>
      <trkpt lat="48.63803" lon="-3.52032">
        <ele>104.92</ele>
        <time>2013-05-05T09:43:38Z</time>
      </trkpt>
      <trkpt lat="48.63813" lon="-3.52034">
        <ele>105.88</ele>
        <time>2013-05-05T09:43:40Z</time>
      </trkpt>
      <trkpt lat="48.63818" lon="-3.52034">
        <ele>105.88</ele>
        <time>2013-05-05T09:43:41Z</time>
      </trkpt>
      <trkpt lat="48.63917" lon="-3.52055">
        <ele>107.81</ele>
        <time>2013-05-05T09:43:59Z</time>
      </trkpt>
      <trkpt lat="48.6403" lon="-3.52073">
        <ele>109.25</ele>
        <time>2013-05-05T09:44:18Z</time>
      </trkpt>
      <trkpt lat="48.6409" lon="-3.52075">
        <ele>112.61</ele>
        <time>2013-05-05T09:44:30Z</time>
      </trkpt>
      <trkpt lat="48.64125" lon="-3.52077">
        <ele>115.5</ele>
        <time>2013-05-05T09:44:38Z</time>
      </trkpt>
      <trkpt lat="48.64203" lon="-3.52083">
        <ele>117.9</ele>
        <time>2013-05-05T09:44:53Z</time>
      </trkpt>
      <trkpt lat="48.64207" lon="-3.52085">
        <ele>118.38</ele>
        <time>2013-05-05T09:44:54Z</time>
      </trkpt>
      <trkpt lat="48.64212" lon="-3.52086">
        <ele>118.86</ele>
        <time>2013-05-05T09:44:55Z</time>
      </trkpt>
      <trkpt lat="48.64269" lon="-3.52112">
        <ele>119.34</ele>
        <time>2013-05-05T09:45:07Z</time>
      </trkpt>
      <trkpt lat="48.64351" lon="-3.52173">
        <ele>115.98</ele>
        <time>2013-05-05T09:45:19Z</time>
      </trkpt>
      <trkpt lat="48.64471" lon="-3.52263">
        <ele>112.61</ele>
        <time>2013-05-05T09:45:34Z</time>
      </trkpt>
      <trkpt lat="48.64572" lon="-3.52329">
        <ele>109.73</ele>
        <time>2013-05-05T09:45:46Z</time>
      </trkpt>
      <trkpt lat="48.64659" lon="-3.52376">
        <ele>106.36</ele>
        <time>2013-05-05T09:45:56Z</time>
      </trkpt>
      <trkpt lat="48.64757" lon="-3.52389">
        <ele>106.84</ele>
        <time>2013-05-05T09:46:08Z</time>
      </trkpt>
      <trkpt lat="48.64851" lon="-3.52422">
        <ele>107.81</ele>
        <time>2013-05-05T09:46:21Z</time>
      </trkpt>
      <trkpt lat="48.64888" lon="-3.52441">
        <ele>107.32</ele>
        <time>2013-05-05T09:46:26Z</time>
      </trkpt>
      <trkpt lat="48.64981" lon="-3.52436">
        <ele>107.81</ele>
        <time>2013-05-05T09:46:38Z</time>
      </trkpt>
      <trkpt lat="48.65061" lon="-3.52367">
        <ele>107.81</ele>
        <time>2013-05-05T09:46:51Z</time>
      </trkpt>
      <trkpt lat="48.65192" lon="-3.52232">
        <ele>105.88</ele>
        <time>2013-05-05T09:47:11Z</time>
      </trkpt>
      <trkpt lat="48.65293" lon="-3.52196">
        <ele>107.32</ele>
        <time>2013-05-05T09:47:25Z</time>
      </trkpt>
      <trkpt lat="48.65403" lon="-3.52157">
        <ele>108.29</ele>
        <time>2013-05-05T09:47:41Z</time>
      </trkpt>
      <trkpt lat="48.6551" lon="-3.521">
        <ele>108.29</ele>
        <time>2013-05-05T09:47:57Z</time>
      </trkpt>
      <trkpt lat="48.65629" lon="-3.52034">
        <ele>107.32</ele>
        <time>2013-05-05T09:48:14Z</time>
      </trkpt>
      <trkpt lat="48.6576" lon="-3.51946">
        <ele>107.81</ele>
        <time>2013-05-05T09:48:33Z</time>
      </trkpt>
      <trkpt lat="48.65869" lon="-3.51935">
        <ele>106.36</ele>
        <time>2013-05-05T09:48:47Z</time>
      </trkpt>
      <trkpt lat="48.66011" lon="-3.51912">
        <ele>104.44</ele>
        <time>2013-05-05T09:49:05Z</time>
      </trkpt>
      <trkpt lat="48.66126" lon="-3.51861">
        <ele>101.56</ele>
        <time>2013-05-05T09:49:19Z</time>
      </trkpt>
      <trkpt lat="48.66251" lon="-3.51791">
        <ele>99.63</ele>
        <time>2013-05-05T09:49:34Z</time>
      </trkpt>
      <trkpt lat="48.6632" lon="-3.51753">
        <ele>96.75</ele>
        <time>2013-05-05T09:49:42Z</time>
      </trkpt>
      <trkpt lat="48.66413" lon="-3.51669">
        <ele>95.79</ele>
        <time>2013-05-05T09:49:54Z</time>
      </trkpt>
      <trkpt lat="48.66467" lon="-3.51575">
        <ele>98.19</ele>
        <time>2013-05-05T09:50:06Z</time>
      </trkpt>
      <trkpt lat="48.66523" lon="-3.5142">
        <ele>99.15</ele>
        <time>2013-05-05T09:50:23Z</time>
      </trkpt>
      <trkpt lat="48.66565" lon="-3.513">
        <ele>99.63</ele>
        <time>2013-05-05T09:50:37Z</time>
      </trkpt>
      <trkpt lat="48.66604" lon="-3.51181">
        <ele>100.11</ele>
        <time>2013-05-05T09:50:52Z</time>
      </trkpt>
      <trkpt lat="48.66609" lon="-3.51166">
        <ele>99.15</ele>
        <time>2013-05-05T09:50:54Z</time>
      </trkpt>
      <trkpt lat="48.66612" lon="-3.5116">
        <ele>99.15</ele>
        <time>2013-05-05T09:50:55Z</time>
      </trkpt>
      <trkpt lat="48.66617" lon="-3.51156">
        <ele>99.15</ele>
        <time>2013-05-05T09:50:56Z</time>
      </trkpt>
      <trkpt lat="48.66623" lon="-3.51154">
        <ele>98.67</ele>
        <time>2013-05-05T09:50:57Z</time>
      </trkpt>
      <trkpt lat="48.66628" lon="-3.51152">
        <ele>98.67</ele>
        <time>2013-05-05T09:50:58Z</time>
      </trkpt>
      <trkpt lat="48.6664" lon="-3.51147">
        <ele>98.67</ele>
        <time>2013-05-05T09:51:00Z</time>
      </trkpt>
      <trkpt lat="48.66657" lon="-3.51138">
        <ele>99.15</ele>
        <time>2013-05-05T09:51:03Z</time>
      </trkpt>
      <trkpt lat="48.66734" lon="-3.51058">
        <ele>102.04</ele>
        <time>2013-05-05T09:51:19Z</time>
      </trkpt>
      <trkpt lat="48.66793" lon="-3.50956">
        <ele>103.96</ele>
        <time>2013-05-05T09:51:34Z</time>
      </trkpt>
      <trkpt lat="48.66869" lon="-3.50875">
        <ele>105.4</ele>
        <time>2013-05-05T09:51:49Z</time>
      </trkpt>
      <trkpt lat="48.66968" lon="-3.50797">
        <ele>106.84</ele>
        <time>2013-05-05T09:52:07Z</time>
      </trkpt>
      <trkpt lat="48.67069" lon="-3.50745">
        <ele>107.32</ele>
        <time>2013-05-05T09:52:24Z</time>
      </trkpt>
      <trkpt lat="48.67179" lon="-3.50722">
        <ele>108.29</ele>
        <time>2013-05-05T09:52:41Z</time>
      </trkpt>
      <trkpt lat="48.67214" lon="-3.50718">
        <ele>107.32</ele>
        <time>2013-05-05T09:52:49Z</time>
      </trkpt>
      <trkpt lat="48.67218" lon="-3.50718">
        <ele>107.81</ele>
        <time>2013-05-05T09:52:50Z</time>
      </trkpt>
      <trkpt lat="48.67301" lon="-3.50716">
        <ele>108.29</ele>
        <time>2013-05-05T09:53:06Z</time>
      </trkpt>
      <trkpt lat="48.67373" lon="-3.5072">
        <ele>107.81</ele>
        <time>2013-05-05T09:53:19Z</time>
      </trkpt>
      <trkpt lat="48.67469" lon="-3.50718">
        <ele>107.32</ele>
        <time>2013-05-05T09:53:35Z</time>
      </trkpt>
      <trkpt lat="48.67475" lon="-3.50715">
        <ele>107.81</ele>
        <time>2013-05-05T09:53:36Z</time>
      </trkpt>
      <trkpt lat="48.6748" lon="-3.50711">
        <ele>107.32</ele>
        <time>2013-05-05T09:53:37Z</time>
      </trkpt>
      <trkpt lat="48.67485" lon="-3.50706">
        <ele>107.32</ele>
        <time>2013-05-05T09:53:38Z</time>
      </trkpt>
      <trkpt lat="48.67489" lon="-3.50701">
        <ele>107.81</ele>
        <time>2013-05-05T09:53:39Z</time>
      </trkpt>
      <trkpt lat="48.67495" lon="-3.50697">
        <ele>107.81</ele>
        <time>2013-05-05T09:53:40Z</time>
      </trkpt>
      <trkpt lat="48.675" lon="-3.50696">
        <ele>107.81</ele>
        <time>2013-05-05T09:53:41Z</time>
      </trkpt>
      <trkpt lat="48.67506" lon="-3.50697">
        <ele>107.81</ele>
        <time>2013-05-05T09:53:42Z</time>
      </trkpt>
      <trkpt lat="48.67512" lon="-3.507">
        <ele>107.81</ele>
        <time>2013-05-05T09:53:43Z</time>
      </trkpt>
      <trkpt lat="48.67518" lon="-3.50704">
        <ele>107.32</ele>
        <time>2013-05-05T09:53:44Z</time>
      </trkpt>
      <trkpt lat="48.67524" lon="-3.50706">
        <ele>107.32</ele>
        <time>2013-05-05T09:53:45Z</time>
      </trkpt>
      <trkpt lat="48.6753" lon="-3.50708">
        <ele>107.32</ele>
        <time>2013-05-05T09:53:46Z</time>
      </trkpt>
      <trkpt lat="48.67536" lon="-3.50709">
        <ele>107.32</ele>
        <time>2013-05-05T09:53:47Z</time>
      </trkpt>
      <trkpt lat="48.67562" lon="-3.50713">
        <ele>106.84</ele>
        <time>2013-05-05T09:53:52Z</time>
      </trkpt>
      <trkpt lat="48.67566" lon="-3.50712">
        <ele>106.84</ele>
        <time>2013-05-05T09:53:53Z</time>
      </trkpt>
      <trkpt lat="48.67569" lon="-3.50711">
        <ele>106.84</ele>
        <time>2013-05-05T09:53:54Z</time>
      </trkpt>
      <trkpt lat="48.67576" lon="-3.50709">
        <ele>106.36</ele>
        <time>2013-05-05T09:54:03Z</time>
      </trkpt>
      <trkpt lat="48.67575" lon="-3.50709">
        <ele>106.36</ele>
        <time>2013-05-05T09:54:36Z</time>
      </trkpt>
      <trkpt lat="48.67575" lon="-3.50709">
        <ele>106.36</ele>
        <time>2013-05-05T09:55:08Z</time>
      </trkpt>
      <trkpt lat="48.67575" lon="-3.50709">
        <ele>106.84</ele>
        <time>2013-05-05T09:55:43Z</time>
      </trkpt>
      <trkpt lat="48.67575" lon="-3.5071">
        <ele>106.84</ele>
        <time>2013-05-05T09:56:17Z</time>
      </trkpt>
      <trkpt lat="48.67574" lon="-3.50709">
        <ele>106.84</ele>
        <time>2013-05-05T09:56:51Z</time>
      </trkpt>
      <trkpt lat="48.67574" lon="-3.50708">
        <ele>106.84</ele>
        <time>2013-05-05T09:57:30Z</time>
      </trkpt>
      <trkpt lat="48.67575" lon="-3.50709">
        <ele>107.32</ele>
        <time>2013-05-05T09:57:52Z</time>
      </trkpt>
      <trkpt lat="48.67577" lon="-3.5071">
        <ele>106.84</ele>
        <time>2013-05-05T09:57:53Z</time>
      </trkpt>
      <trkpt lat="48.67578" lon="-3.5071">
        <ele>107.32</ele>
        <time>2013-05-05T09:57:54Z</time>
      </trkpt>
      <trkpt lat="48.6758" lon="-3.50711">
        <ele>107.32</ele>
        <time>2013-05-05T09:57:55Z</time>
      </trkpt>
      <trkpt lat="48.67582" lon="-3.5071">
        <ele>107.81</ele>
        <time>2013-05-05T09:57:56Z</time>
      </trkpt>
      <trkpt lat="48.67631" lon="-3.50703">
        <ele>108.29</ele>
        <time>2013-05-05T09:58:05Z</time>
      </trkpt>
      <trkpt lat="48.67745" lon="-3.50677">
        <ele>107.32</ele>
        <time>2013-05-05T09:58:21Z</time>
      </trkpt>
      <trkpt lat="48.67857" lon="-3.50631">
        <ele>105.4</ele>
        <time>2013-05-05T09:58:36Z</time>
      </trkpt>
      <trkpt lat="48.67865" lon="-3.50629">
        <ele>106.36</ele>
        <time>2013-05-05T09:58:37Z</time>
      </trkpt>
      <trkpt lat="48.67902" lon="-3.50611">
        <ele>104.44</ele>
        <time>2013-05-05T09:58:42Z</time>
      </trkpt>
      <trkpt lat="48.67995" lon="-3.50543">
        <ele>105.4</ele>
        <time>2013-05-05T09:58:57Z</time>
      </trkpt>
      <trkpt lat="48.681" lon="-3.5043">
        <ele>104.92</ele>
        <time>2013-05-05T09:59:15Z</time>
      </trkpt>
      <trkpt lat="48.68193" lon="-3.50331">
        <ele>103</ele>
        <time>2013-05-05T09:59:30Z</time>
      </trkpt>
      <trkpt lat="48.68286" lon="-3.50247">
        <ele>103</ele>
        <time>2013-05-05T09:59:44Z</time>
      </trkpt>
      <trkpt lat="48.68363" lon="-3.50208">
        <ele>102.04</ele>
        <time>2013-05-05T09:59:55Z</time>
      </trkpt>
      <trkpt lat="48.68476" lon="-3.50176">
        <ele>102.52</ele>
        <time>2013-05-05T10:00:11Z</time>
      </trkpt>
      <trkpt lat="48.68569" lon="-3.50135">
        <ele>103</ele>
        <time>2013-05-05T10:00:25Z</time>
      </trkpt>
      <trkpt lat="48.68679" lon="-3.50078">
        <ele>103.96</ele>
        <time>2013-05-05T10:00:41Z</time>
      </trkpt>
      <trkpt lat="48.68793" lon="-3.50013">
        <ele>105.4</ele>
        <time>2013-05-05T10:00:58Z</time>
      </trkpt>
      <trkpt lat="48.68909" lon="-3.49951">
        <ele>103.48</ele>
        <time>2013-05-05T10:01:14Z</time>
      </trkpt>
      <trkpt lat="48.69046" lon="-3.49908">
        <ele>100.6</ele>
        <time>2013-05-05T10:01:31Z</time>
      </trkpt>
      <trkpt lat="48.69063" lon="-3.49902">
        <ele>99.63</ele>
        <time>2013-05-05T10:01:33Z</time>
      </trkpt>
      <trkpt lat="48.69151" lon="-3.49874">
        <ele>96.27</ele>
        <time>2013-05-05T10:01:43Z</time>
      </trkpt>
      <trkpt lat="48.69188" lon="-3.49865">
        <ele>94.83</ele>
        <time>2013-05-05T10:01:47Z</time>
      </trkpt>
      <trkpt lat="48.69307" lon="-3.49856">
        <ele>91.46</ele>
        <time>2013-05-05T10:02:00Z</time>
      </trkpt>
      <trkpt lat="48.69436" lon="-3.49848">
        <ele>90.5</ele>
        <time>2013-05-05T10:02:15Z</time>
      </trkpt>
      <trkpt lat="48.69566" lon="-3.4984">
        <ele>88.1</ele>
        <time>2013-05-05T10:02:31Z</time>
      </trkpt>
      <trkpt lat="48.6971" lon="-3.49818">
        <ele>87.14</ele>
        <time>2013-05-05T10:02:49Z</time>
      </trkpt>
      <trkpt lat="48.69844" lon="-3.49829">
        <ele>87.14</ele>
        <time>2013-05-05T10:03:06Z</time>
      </trkpt>
      <trkpt lat="48.69967" lon="-3.49848">
        <ele>85.69</ele>
        <time>2013-05-05T10:03:22Z</time>
      </trkpt>
      <trkpt lat="48.70089" lon="-3.49869">
        <ele>85.21</ele>
        <time>2013-05-05T10:03:38Z</time>
      </trkpt>
      <trkpt lat="48.70197" lon="-3.4988">
        <ele>81.85</ele>
        <time>2013-05-05T10:03:51Z</time>
      </trkpt>
      <trkpt lat="48.70264" lon="-3.49891">
        <ele>79.45</ele>
        <time>2013-05-05T10:03:58Z</time>
      </trkpt>
      <trkpt lat="48.70325" lon="-3.49905">
        <ele>76.08</ele>
        <time>2013-05-05T10:04:04Z</time>
      </trkpt>
      <trkpt lat="48.70434" lon="-3.4993">
        <ele>76.08</ele>
        <time>2013-05-05T10:04:17Z</time>
      </trkpt>
      <trkpt lat="48.70475" lon="-3.49934">
        <ele>78.97</ele>
        <time>2013-05-05T10:04:24Z</time>
      </trkpt>
      <trkpt lat="48.70493" lon="-3.49935">
        <ele>80.41</ele>
        <time>2013-05-05T10:04:27Z</time>
      </trkpt>
      <trkpt lat="48.70565" lon="-3.49942">
        <ele>83.29</ele>
        <time>2013-05-05T10:04:40Z</time>
      </trkpt>
      <trkpt lat="48.70645" lon="-3.49951">
        <ele>84.25</ele>
        <time>2013-05-05T10:04:55Z</time>
      </trkpt>
      <trkpt lat="48.7077" lon="-3.49956">
        <ele>85.69</ele>
        <time>2013-05-05T10:05:16Z</time>
      </trkpt>
      <trkpt lat="48.70872" lon="-3.49971">
        <ele>86.66</ele>
        <time>2013-05-05T10:05:32Z</time>
      </trkpt>
      <trkpt lat="48.70973" lon="-3.49969">
        <ele>87.14</ele>
        <time>2013-05-05T10:05:47Z</time>
      </trkpt>
      <trkpt lat="48.71072" lon="-3.49957">
        <ele>88.1</ele>
        <time>2013-05-05T10:06:02Z</time>
      </trkpt>
      <trkpt lat="48.71171" lon="-3.49968">
        <ele>89.06</ele>
        <time>2013-05-05T10:06:18Z</time>
      </trkpt>
      <trkpt lat="48.71186" lon="-3.49968">
        <ele>89.54</ele>
        <time>2013-05-05T10:06:21Z</time>
      </trkpt>
      <trkpt lat="48.7119" lon="-3.49969">
        <ele>89.54</ele>
        <time>2013-05-05T10:06:22Z</time>
      </trkpt>
      <trkpt lat="48.71205" lon="-3.4997">
        <ele>90.02</ele>
        <time>2013-05-05T10:06:26Z</time>
      </trkpt>
      <trkpt lat="48.71208" lon="-3.49967">
        <ele>90.02</ele>
        <time>2013-05-05T10:06:27Z</time>
      </trkpt>
      <trkpt lat="48.71211" lon="-3.49962">
        <ele>90.02</ele>
        <time>2013-05-05T10:06:28Z</time>
      </trkpt>
      <trkpt lat="48.71229" lon="-3.49935">
        <ele>91.46</ele>
        <time>2013-05-05T10:06:33Z</time>
      </trkpt>
      <trkpt lat="48.71255" lon="-3.49897">
        <ele>91.94</ele>
        <time>2013-05-05T10:06:39Z</time>
      </trkpt>
      <trkpt lat="48.71263" lon="-3.49885">
        <ele>93.87</ele>
        <time>2013-05-05T10:06:41Z</time>
      </trkpt>
      <trkpt lat="48.71272" lon="-3.49873">
        <ele>92.9</ele>
        <time>2013-05-05T10:06:43Z</time>
      </trkpt>
      <trkpt lat="48.71334" lon="-3.49779">
        <ele>95.31</ele>
        <time>2013-05-05T10:06:58Z</time>
      </trkpt>
      <trkpt lat="48.71422" lon="-3.49637">
        <ele>95.79</ele>
        <time>2013-05-05T10:07:18Z</time>
      </trkpt>
      <trkpt lat="48.71492" lon="-3.49503">
        <ele>96.27</ele>
        <time>2013-05-05T10:07:34Z</time>
      </trkpt>
      <trkpt lat="48.71568" lon="-3.49394">
        <ele>97.23</ele>
        <time>2013-05-05T10:07:49Z</time>
      </trkpt>
      <trkpt lat="48.71606" lon="-3.49348">
        <ele>97.71</ele>
        <time>2013-05-05T10:07:56Z</time>
      </trkpt>
      <trkpt lat="48.71667" lon="-3.49245">
        <ele>98.19</ele>
        <time>2013-05-05T10:08:09Z</time>
      </trkpt>
      <trkpt lat="48.71763" lon="-3.49087">
        <ele>97.71</ele>
        <time>2013-05-05T10:08:28Z</time>
      </trkpt>
      <trkpt lat="48.71817" lon="-3.48985">
        <ele>98.67</ele>
        <time>2013-05-05T10:08:40Z</time>
      </trkpt>
      <trkpt lat="48.71818" lon="-3.48976">
        <ele>99.63</ele>
        <time>2013-05-05T10:08:41Z</time>
      </trkpt>
      <trkpt lat="48.71819" lon="-3.48965">
        <ele>99.15</ele>
        <time>2013-05-05T10:08:42Z</time>
      </trkpt>
      <trkpt lat="48.71819" lon="-3.48954">
        <ele>99.63</ele>
        <time>2013-05-05T10:08:43Z</time>
      </trkpt>
      <trkpt lat="48.71821" lon="-3.48944">
        <ele>99.63</ele>
        <time>2013-05-05T10:08:44Z</time>
      </trkpt>
      <trkpt lat="48.71825" lon="-3.48936">
        <ele>99.15</ele>
        <time>2013-05-05T10:08:45Z</time>
      </trkpt>
      <trkpt lat="48.7183" lon="-3.48929">
        <ele>99.15</ele>
        <time>2013-05-05T10:08:46Z</time>
      </trkpt>
      <trkpt lat="48.71837" lon="-3.48925">
        <ele>98.67</ele>
        <time>2013-05-05T10:08:47Z</time>
      </trkpt>
      <trkpt lat="48.71844" lon="-3.48921">
        <ele>98.67</ele>
        <time>2013-05-05T10:08:48Z</time>
      </trkpt>
      <trkpt lat="48.7185" lon="-3.48915">
        <ele>98.67</ele>
        <time>2013-05-05T10:08:49Z</time>
      </trkpt>
      <trkpt lat="48.71856" lon="-3.48906">
        <ele>98.67</ele>
        <time>2013-05-05T10:08:50Z</time>
      </trkpt>
      <trkpt lat="48.71861" lon="-3.48897">
        <ele>98.67</ele>
        <time>2013-05-05T10:08:51Z</time>
      </trkpt>
      <trkpt lat="48.71932" lon="-3.48753">
        <ele>98.67</ele>
        <time>2013-05-05T10:09:06Z</time>
      </trkpt>
      <trkpt lat="48.72006" lon="-3.48585">
        <ele>99.15</ele>
        <time>2013-05-05T10:09:23Z</time>
      </trkpt>
      <trkpt lat="48.72078" lon="-3.4841">
        <ele>100.11</ele>
        <time>2013-05-05T10:09:41Z</time>
      </trkpt>
      <trkpt lat="48.72138" lon="-3.48273">
        <ele>100.11</ele>
        <time>2013-05-05T10:09:57Z</time>
      </trkpt>
      <trkpt lat="48.72171" lon="-3.48188">
        <ele>99.63</ele>
        <time>2013-05-05T10:10:06Z</time>
      </trkpt>
      <trkpt lat="48.72172" lon="-3.48178">
        <ele>100.11</ele>
        <time>2013-05-05T10:10:07Z</time>
      </trkpt>
      <trkpt lat="48.72171" lon="-3.48167">
        <ele>100.6</ele>
        <time>2013-05-05T10:10:08Z</time>
      </trkpt>
      <trkpt lat="48.72169" lon="-3.48157">
        <ele>100.11</ele>
        <time>2013-05-05T10:10:09Z</time>
      </trkpt>
      <trkpt lat="48.72167" lon="-3.48147">
        <ele>99.63</ele>
        <time>2013-05-05T10:10:10Z</time>
      </trkpt>
      <trkpt lat="48.72164" lon="-3.48137">
        <ele>99.15</ele>
        <time>2013-05-05T10:10:11Z</time>
      </trkpt>
      <trkpt lat="48.72163" lon="-3.48126">
        <ele>99.15</ele>
        <time>2013-05-05T10:10:12Z</time>
      </trkpt>
      <trkpt lat="48.72163" lon="-3.48115">
        <ele>99.15</ele>
        <time>2013-05-05T10:10:13Z</time>
      </trkpt>
      <trkpt lat="48.72165" lon="-3.48104">
        <ele>99.15</ele>
        <time>2013-05-05T10:10:14Z</time>
      </trkpt>
      <trkpt lat="48.72168" lon="-3.48093">
        <ele>98.67</ele>
        <time>2013-05-05T10:10:15Z</time>
      </trkpt>
      <trkpt lat="48.72173" lon="-3.48084">
        <ele>99.15</ele>
        <time>2013-05-05T10:10:16Z</time>
      </trkpt>
      <trkpt lat="48.72179" lon="-3.48076">
        <ele>98.19</ele>
        <time>2013-05-05T10:10:17Z</time>
      </trkpt>
      <trkpt lat="48.72186" lon="-3.4807">
        <ele>98.19</ele>
        <time>2013-05-05T10:10:18Z</time>
      </trkpt>
      <trkpt lat="48.72193" lon="-3.48067">
        <ele>98.19</ele>
        <time>2013-05-05T10:10:19Z</time>
      </trkpt>
      <trkpt lat="48.72201" lon="-3.48067">
        <ele>98.19</ele>
        <time>2013-05-05T10:10:20Z</time>
      </trkpt>
      <trkpt lat="48.72208" lon="-3.48068">
        <ele>98.19</ele>
        <time>2013-05-05T10:10:21Z</time>
      </trkpt>
      <trkpt lat="48.72216" lon="-3.48068">
        <ele>97.71</ele>
        <time>2013-05-05T10:10:22Z</time>
      </trkpt>
      <trkpt lat="48.72223" lon="-3.48066">
        <ele>98.19</ele>
        <time>2013-05-05T10:10:23Z</time>
      </trkpt>
      <trkpt lat="48.7223" lon="-3.48062">
        <ele>98.19</ele>
        <time>2013-05-05T10:10:24Z</time>
      </trkpt>
      <trkpt lat="48.72236" lon="-3.48056">
        <ele>98.19</ele>
        <time>2013-05-05T10:10:25Z</time>
      </trkpt>
      <trkpt lat="48.72241" lon="-3.4805">
        <ele>98.19</ele>
        <time>2013-05-05T10:10:26Z</time>
      </trkpt>
      <trkpt lat="48.72347" lon="-3.47937">
        <ele>98.19</ele>
        <time>2013-05-05T10:10:43Z</time>
      </trkpt>
      <trkpt lat="48.72457" lon="-3.4782">
        <ele>97.71</ele>
        <time>2013-05-05T10:10:59Z</time>
      </trkpt>
      <trkpt lat="48.7255" lon="-3.47734">
        <ele>96.27</ele>
        <time>2013-05-05T10:11:12Z</time>
      </trkpt>
      <trkpt lat="48.72578" lon="-3.47721">
        <ele>95.31</ele>
        <time>2013-05-05T10:11:15Z</time>
      </trkpt>
      <trkpt lat="48.72631" lon="-3.47715">
        <ele>91.46</ele>
        <time>2013-05-05T10:11:20Z</time>
      </trkpt>
      <trkpt lat="48.72693" lon="-3.47715">
        <ele>88.1</ele>
        <time>2013-05-05T10:11:25Z</time>
      </trkpt>
      <trkpt lat="48.72734" lon="-3.47709">
        <ele>83.29</ele>
        <time>2013-05-05T10:11:28Z</time>
      </trkpt>
      <trkpt lat="48.72776" lon="-3.47695">
        <ele>78.48</ele>
        <time>2013-05-05T10:11:31Z</time>
      </trkpt>
      <trkpt lat="48.72819" lon="-3.4767">
        <ele>74.64</ele>
        <time>2013-05-05T10:11:34Z</time>
      </trkpt>
      <trkpt lat="48.72859" lon="-3.47633">
        <ele>69.83</ele>
        <time>2013-05-05T10:11:37Z</time>
      </trkpt>
      <trkpt lat="48.72885" lon="-3.47603">
        <ele>66.95</ele>
        <time>2013-05-05T10:11:39Z</time>
      </trkpt>
      <trkpt lat="48.72908" lon="-3.47569">
        <ele>63.58</ele>
        <time>2013-05-05T10:11:41Z</time>
      </trkpt>
      <trkpt lat="48.7293" lon="-3.47531">
        <ele>58.3</ele>
        <time>2013-05-05T10:11:43Z</time>
      </trkpt>
      <trkpt lat="48.7295" lon="-3.47489">
        <ele>54.93</ele>
        <time>2013-05-05T10:11:45Z</time>
      </trkpt>
      <trkpt lat="48.72966" lon="-3.47444">
        <ele>51.57</ele>
        <time>2013-05-05T10:11:47Z</time>
      </trkpt>
      <trkpt lat="48.7298" lon="-3.47397">
        <ele>48.68</ele>
        <time>2013-05-05T10:11:49Z</time>
      </trkpt>
      <trkpt lat="48.73001" lon="-3.47326">
        <ele>43.88</ele>
        <time>2013-05-05T10:11:52Z</time>
      </trkpt>
      <trkpt lat="48.73014" lon="-3.47279">
        <ele>40.03</ele>
        <time>2013-05-05T10:11:54Z</time>
      </trkpt>
      <trkpt lat="48.73029" lon="-3.47207">
        <ele>35.71</ele>
        <time>2013-05-05T10:11:57Z</time>
      </trkpt>
      <trkpt lat="48.73038" lon="-3.47135">
        <ele>31.38</ele>
        <time>2013-05-05T10:12:00Z</time>
      </trkpt>
      <trkpt lat="48.73042" lon="-3.47087">
        <ele>28.5</ele>
        <time>2013-05-05T10:12:02Z</time>
      </trkpt>
      <trkpt lat="48.73045" lon="-3.47016">
        <ele>25.13</ele>
        <time>2013-05-05T10:12:05Z</time>
      </trkpt>
      <trkpt lat="48.73045" lon="-3.46951">
        <ele>21.29</ele>
        <time>2013-05-05T10:12:08Z</time>
      </trkpt>
      <trkpt lat="48.73043" lon="-3.46916">
        <ele>17.44</ele>
        <time>2013-05-05T10:12:10Z</time>
      </trkpt>
      <trkpt lat="48.7304" lon="-3.46869">
        <ele>14.08</ele>
        <time>2013-05-05T10:12:13Z</time>
      </trkpt>
      <trkpt lat="48.73037" lon="-3.46836">
        <ele>13.6</ele>
        <time>2013-05-05T10:12:15Z</time>
      </trkpt>
      <trkpt lat="48.73033" lon="-3.46785">
        <ele>11.19</ele>
        <time>2013-05-05T10:12:18Z</time>
      </trkpt>
      <trkpt lat="48.73029" lon="-3.46735">
        <ele>9.75</ele>
        <time>2013-05-05T10:12:21Z</time>
      </trkpt>
      <trkpt lat="48.73026" lon="-3.46671">
        <ele>6.87</ele>
        <time>2013-05-05T10:12:25Z</time>
      </trkpt>
      <trkpt lat="48.73027" lon="-3.46656">
        <ele>5.91</ele>
        <time>2013-05-05T10:12:26Z</time>
      </trkpt>
      <trkpt lat="48.73029" lon="-3.4664">
        <ele>5.42</ele>
        <time>2013-05-05T10:12:27Z</time>
      </trkpt>
      <trkpt lat="48.73033" lon="-3.46626">
        <ele>4.94</ele>
        <time>2013-05-05T10:12:28Z</time>
      </trkpt>
      <trkpt lat="48.73037" lon="-3.46612">
        <ele>4.94</ele>
        <time>2013-05-05T10:12:29Z</time>
      </trkpt>
      <trkpt lat="48.73042" lon="-3.46599">
        <ele>4.94</ele>
        <time>2013-05-05T10:12:30Z</time>
      </trkpt>
      <trkpt lat="48.73047" lon="-3.46587">
        <ele>3.02</ele>
        <time>2013-05-05T10:12:31Z</time>
      </trkpt>
      <trkpt lat="48.73054" lon="-3.46577">
        <ele>3.02</ele>
        <time>2013-05-05T10:12:32Z</time>
      </trkpt>
      <trkpt lat="48.7306" lon="-3.46567">
        <ele>3.5</ele>
        <time>2013-05-05T10:12:33Z</time>
      </trkpt>
      <trkpt lat="48.73118" lon="-3.46504">
        <ele>3.5</ele>
        <time>2013-05-05T10:12:43Z</time>
      </trkpt>
      <trkpt lat="48.73127" lon="-3.46495">
        <ele>3.02</ele>
        <time>2013-05-05T10:12:50Z</time>
      </trkpt>
      <trkpt lat="48.73128" lon="-3.46495">
        <ele>3.02</ele>
        <time>2013-05-05T10:12:54Z</time>
      </trkpt>
      <trkpt lat="48.73129" lon="-3.46494">
        <ele>3.5</ele>
        <time>2013-05-05T10:12:55Z</time>
      </trkpt>
      <trkpt lat="48.7313" lon="-3.46493">
        <ele>3.5</ele>
        <time>2013-05-05T10:12:56Z</time>
      </trkpt>
      <trkpt lat="48.73133" lon="-3.46491">
        <ele>3.5</ele>
        <time>2013-05-05T10:12:57Z</time>
      </trkpt>
      <trkpt lat="48.73135" lon="-3.46489">
        <ele>3.5</ele>
        <time>2013-05-05T10:12:58Z</time>
      </trkpt>
      <trkpt lat="48.73139" lon="-3.46488">
        <ele>3.98</ele>
        <time>2013-05-05T10:12:59Z</time>
      </trkpt>
      <trkpt lat="48.73143" lon="-3.46487">
        <ele>3.98</ele>
        <time>2013-05-05T10:13:00Z</time>
      </trkpt>
      <trkpt lat="48.73162" lon="-3.46482">
        <ele>3.98</ele>
        <time>2013-05-05T10:13:04Z</time>
      </trkpt>
      <trkpt lat="48.73172" lon="-3.46479">
        <ele>3.98</ele>
        <time>2013-05-05T10:13:06Z</time>
      </trkpt>
      <trkpt lat="48.73177" lon="-3.46476">
        <ele>3.98</ele>
        <time>2013-05-05T10:13:07Z</time>
      </trkpt>
      <trkpt lat="48.73182" lon="-3.46473">
        <ele>3.98</ele>
        <time>2013-05-05T10:13:08Z</time>
      </trkpt>
      <trkpt lat="48.73186" lon="-3.46467">
        <ele>3.98</ele>
        <time>2013-05-05T10:13:09Z</time>
      </trkpt>
      <trkpt lat="48.73189" lon="-3.4646">
        <ele>3.98</ele>
        <time>2013-05-05T10:13:10Z</time>
      </trkpt>
      <trkpt lat="48.73191" lon="-3.46453">
        <ele>3.98</ele>
        <time>2013-05-05T10:13:11Z</time>
      </trkpt>
      <trkpt lat="48.73193" lon="-3.46445">
        <ele>3.98</ele>
        <time>2013-05-05T10:13:12Z</time>
      </trkpt>
      <trkpt lat="48.73235" lon="-3.46332">
        <ele>3.98</ele>
        <time>2013-05-05T10:13:26Z</time>
      </trkpt>
      <trkpt lat="48.73247" lon="-3.46299">
        <ele>3.5</ele>
        <time>2013-05-05T10:13:30Z</time>
      </trkpt>
      <trkpt lat="48.73248" lon="-3.46289">
        <ele>3.5</ele>
        <time>2013-05-05T10:13:31Z</time>
      </trkpt>
      <trkpt lat="48.73248" lon="-3.4628">
        <ele>3.98</ele>
        <time>2013-05-05T10:13:32Z</time>
      </trkpt>
      <trkpt lat="48.73247" lon="-3.46271">
        <ele>3.98</ele>
        <time>2013-05-05T10:13:33Z</time>
      </trkpt>
      <trkpt lat="48.73247" lon="-3.46263">
        <ele>3.5</ele>
        <time>2013-05-05T10:13:34Z</time>
      </trkpt>
      <trkpt lat="48.73248" lon="-3.46256">
        <ele>3.02</ele>
        <time>2013-05-05T10:13:35Z</time>
      </trkpt>
      <trkpt lat="48.73251" lon="-3.46252">
        <ele>3.02</ele>
        <time>2013-05-05T10:13:36Z</time>
      </trkpt>
      <trkpt lat="48.73254" lon="-3.46251">
        <ele>3.02</ele>
        <time>2013-05-05T10:13:37Z</time>
      </trkpt>
      <trkpt lat="48.73256" lon="-3.46253">
        <ele>3.5</ele>
        <time>2013-05-05T10:13:38Z</time>
      </trkpt>
      <trkpt lat="48.73256" lon="-3.46257">
        <ele>3.5</ele>
        <time>2013-05-05T10:13:40Z</time>
      </trkpt>
      <trkpt lat="48.73254" lon="-3.46258">
        <ele>3.5</ele>
        <time>2013-05-05T10:13:41Z</time>
      </trkpt>
      <trkpt lat="48.73253" lon="-3.46254">
        <ele>3.5</ele>
        <time>2013-05-05T10:13:42Z</time>
      </trkpt>
      <trkpt lat="48.73252" lon="-3.46247">
        <ele>3.02</ele>
        <time>2013-05-05T10:13:43Z</time>
      </trkpt>
      <trkpt lat="48.73251" lon="-3.46239">
        <ele>3.5</ele>
        <time>2013-05-05T10:13:44Z</time>
      </trkpt>
      <trkpt lat="48.73249" lon="-3.46231">
        <ele>3.02</ele>
        <time>2013-05-05T10:13:45Z</time>
      </trkpt>
      <trkpt lat="48.73247" lon="-3.46223">
        <ele>3.02</ele>
        <time>2013-05-05T10:13:46Z</time>
      </trkpt>
      <trkpt lat="48.73245" lon="-3.46216">
        <ele>3.02</ele>
        <time>2013-05-05T10:13:47Z</time>
      </trkpt>
      <trkpt lat="48.73242" lon="-3.46209">
        <ele>3.02</ele>
        <time>2013-05-05T10:13:48Z</time>
      </trkpt>
      <trkpt lat="48.73238" lon="-3.46203">
        <ele>3.98</ele>
        <time>2013-05-05T10:13:49Z</time>
      </trkpt>
      <trkpt lat="48.73234" lon="-3.46198">
        <ele>3.98</ele>
        <time>2013-05-05T10:13:50Z</time>
      </trkpt>
      <trkpt lat="48.73231" lon="-3.46192">
        <ele>3.98</ele>
        <time>2013-05-05T10:13:51Z</time>
      </trkpt>
      <trkpt lat="48.73228" lon="-3.46186">
        <ele>4.46</ele>
        <time>2013-05-05T10:13:52Z</time>
      </trkpt>
      <trkpt lat="48.73228" lon="-3.4618">
        <ele>4.46</ele>
        <time>2013-05-05T10:13:53Z</time>
      </trkpt>
      <trkpt lat="48.73229" lon="-3.46173">
        <ele>4.46</ele>
        <time>2013-05-05T10:13:54Z</time>
      </trkpt>
      <trkpt lat="48.73232" lon="-3.46167">
        <ele>4.46</ele>
        <time>2013-05-05T10:13:55Z</time>
      </trkpt>
      <trkpt lat="48.73235" lon="-3.46161">
        <ele>4.46</ele>
        <time>2013-05-05T10:13:56Z</time>
      </trkpt>
      <trkpt lat="48.73237" lon="-3.46155">
        <ele>4.94</ele>
        <time>2013-05-05T10:13:57Z</time>
      </trkpt>
      <trkpt lat="48.73245" lon="-3.46133">
        <ele>5.91</ele>
        <time>2013-05-05T10:14:01Z</time>
      </trkpt>
      <trkpt lat="48.7325" lon="-3.46116">
        <ele>6.39</ele>
        <time>2013-05-05T10:14:04Z</time>
      </trkpt>
      <trkpt lat="48.73252" lon="-3.4611">
        <ele>6.87</ele>
        <time>2013-05-05T10:14:05Z</time>
      </trkpt>
      <trkpt lat="48.73254" lon="-3.46104">
        <ele>7.35</ele>
        <time>2013-05-05T10:14:06Z</time>
      </trkpt>
      <trkpt lat="48.73256" lon="-3.46098">
        <ele>7.35</ele>
        <time>2013-05-05T10:14:07Z</time>
      </trkpt>
      <trkpt lat="48.73258" lon="-3.46091">
        <ele>7.83</ele>
        <time>2013-05-05T10:14:08Z</time>
      </trkpt>
      <trkpt lat="48.7326" lon="-3.46084">
        <ele>8.31</ele>
        <time>2013-05-05T10:14:09Z</time>
      </trkpt>
      <trkpt lat="48.73262" lon="-3.46078">
        <ele>8.79</ele>
        <time>2013-05-05T10:14:10Z</time>
      </trkpt>
      <trkpt lat="48.73268" lon="-3.4606">
        <ele>9.27</ele>
        <time>2013-05-05T10:14:13Z</time>
      </trkpt>
      <trkpt lat="48.7327" lon="-3.46054">
        <ele>9.75</ele>
        <time>2013-05-05T10:14:14Z</time>
      </trkpt>
      <trkpt lat="48.73271" lon="-3.46049">
        <ele>10.23</ele>
        <time>2013-05-05T10:14:15Z</time>
      </trkpt>
      <trkpt lat="48.73284" lon="-3.4602">
        <ele>11.67</ele>
        <time>2013-05-05T10:14:20Z</time>
      </trkpt>
      <trkpt lat="48.73287" lon="-3.46014">
        <ele>11.67</ele>
        <time>2013-05-05T10:14:21Z</time>
      </trkpt>
      <trkpt lat="48.73289" lon="-3.46009">
        <ele>11.67</ele>
        <time>2013-05-05T10:14:22Z</time>
      </trkpt>
      <trkpt lat="48.73302" lon="-3.45977">
        <ele>12.63</ele>
        <time>2013-05-05T10:14:29Z</time>
      </trkpt>
      <trkpt lat="48.73305" lon="-3.45972">
        <ele>12.63</ele>
        <time>2013-05-05T10:14:30Z</time>
      </trkpt>
      <trkpt lat="48.73307" lon="-3.45966">
        <ele>12.15</ele>
        <time>2013-05-05T10:14:31Z</time>
      </trkpt>
      <trkpt lat="48.73315" lon="-3.45955">
        <ele>11.67</ele>
        <time>2013-05-05T10:14:33Z</time>
      </trkpt>
      <trkpt lat="48.7332" lon="-3.4595">
        <ele>11.67</ele>
        <time>2013-05-05T10:14:34Z</time>
      </trkpt>
      <trkpt lat="48.73326" lon="-3.45945">
        <ele>10.71</ele>
        <time>2013-05-05T10:14:35Z</time>
      </trkpt>
      <trkpt lat="48.73333" lon="-3.45942">
        <ele>10.71</ele>
        <time>2013-05-05T10:14:36Z</time>
      </trkpt>
      <trkpt lat="48.7334" lon="-3.45939">
        <ele>9.75</ele>
        <time>2013-05-05T10:14:37Z</time>
      </trkpt>
      <trkpt lat="48.73428" lon="-3.45905">
        <ele>8.79</ele>
        <time>2013-05-05T10:14:49Z</time>
      </trkpt>
      <trkpt lat="48.73434" lon="-3.45901">
        <ele>9.27</ele>
        <time>2013-05-05T10:14:50Z</time>
      </trkpt>
      <trkpt lat="48.73439" lon="-3.45895">
        <ele>9.27</ele>
        <time>2013-05-05T10:14:51Z</time>
      </trkpt>
      <trkpt lat="48.73444" lon="-3.45889">
        <ele>8.79</ele>
        <time>2013-05-05T10:14:52Z</time>
      </trkpt>
      <trkpt lat="48.73447" lon="-3.45884">
        <ele>8.79</ele>
        <time>2013-05-05T10:14:53Z</time>
      </trkpt>
      <trkpt lat="48.73451" lon="-3.45876">
        <ele>8.79</ele>
        <time>2013-05-05T10:14:54Z</time>
      </trkpt>
      <trkpt lat="48.73453" lon="-3.45868">
        <ele>9.27</ele>
        <time>2013-05-05T10:14:55Z</time>
      </trkpt>
      <trkpt lat="48.73456" lon="-3.4586">
        <ele>9.27</ele>
        <time>2013-05-05T10:14:56Z</time>
      </trkpt>
      <trkpt lat="48.73458" lon="-3.45852">
        <ele>9.75</ele>
        <time>2013-05-05T10:14:57Z</time>
      </trkpt>
      <trkpt lat="48.7346" lon="-3.45843">
        <ele>9.27</ele>
        <time>2013-05-05T10:14:58Z</time>
      </trkpt>
      <trkpt lat="48.7346" lon="-3.45834">
        <ele>9.27</ele>
        <time>2013-05-05T10:14:59Z</time>
      </trkpt>
      <trkpt lat="48.7346" lon="-3.45816">
        <ele>9.75</ele>
        <time>2013-05-05T10:15:01Z</time>
      </trkpt>
      <trkpt lat="48.73459" lon="-3.45807">
        <ele>9.75</ele>
        <time>2013-05-05T10:15:02Z</time>
      </trkpt>
      <trkpt lat="48.73457" lon="-3.45798">
        <ele>9.75</ele>
        <time>2013-05-05T10:15:03Z</time>
      </trkpt>
      <trkpt lat="48.73454" lon="-3.4579">
        <ele>10.23</ele>
        <time>2013-05-05T10:15:04Z</time>
      </trkpt>
      <trkpt lat="48.73451" lon="-3.45782">
        <ele>10.23</ele>
        <time>2013-05-05T10:15:05Z</time>
      </trkpt>
      <trkpt lat="48.73448" lon="-3.45774">
        <ele>10.23</ele>
        <time>2013-05-05T10:15:06Z</time>
      </trkpt>
      <trkpt lat="48.73435" lon="-3.45742">
        <ele>11.19</ele>
        <time>2013-05-05T10:15:10Z</time>
      </trkpt>
      <trkpt lat="48.73433" lon="-3.45734">
        <ele>11.19</ele>
        <time>2013-05-05T10:15:11Z</time>
      </trkpt>
      <trkpt lat="48.73432" lon="-3.45725">
        <ele>11.19</ele>
        <time>2013-05-05T10:15:12Z</time>
      </trkpt>
      <trkpt lat="48.73433" lon="-3.45716">
        <ele>11.67</ele>
        <time>2013-05-05T10:15:13Z</time>
      </trkpt>
      <trkpt lat="48.73435" lon="-3.45708">
        <ele>11.19</ele>
        <time>2013-05-05T10:15:14Z</time>
      </trkpt>
      <trkpt lat="48.73438" lon="-3.457">
        <ele>11.67</ele>
        <time>2013-05-05T10:15:15Z</time>
      </trkpt>
      <trkpt lat="48.73442" lon="-3.45692">
        <ele>11.67</ele>
        <time>2013-05-05T10:15:16Z</time>
      </trkpt>
      <trkpt lat="48.73447" lon="-3.45685">
        <ele>11.67</ele>
        <time>2013-05-05T10:15:17Z</time>
      </trkpt>
      <trkpt lat="48.73452" lon="-3.45678">
        <ele>11.19</ele>
        <time>2013-05-05T10:15:18Z</time>
      </trkpt>
      <trkpt lat="48.73457" lon="-3.45671">
        <ele>11.67</ele>
        <time>2013-05-05T10:15:19Z</time>
      </trkpt>
      <trkpt lat="48.73472" lon="-3.45637">
        <ele>11.19</ele>
        <time>2013-05-05T10:15:23Z</time>
      </trkpt>
      <trkpt lat="48.73482" lon="-3.45595">
        <ele>10.71</ele>
        <time>2013-05-05T10:15:28Z</time>
      </trkpt>
      <trkpt lat="48.73493" lon="-3.45556">
        <ele>11.19</ele>
        <time>2013-05-05T10:15:33Z</time>
      </trkpt>
      <trkpt lat="48.73496" lon="-3.4555">
        <ele>11.19</ele>
        <time>2013-05-05T10:15:34Z</time>
      </trkpt>
      <trkpt lat="48.73498" lon="-3.45544">
        <ele>11.19</ele>
        <time>2013-05-05T10:15:35Z</time>
      </trkpt>
      <trkpt lat="48.73505" lon="-3.45531">
        <ele>11.67</ele>
        <time>2013-05-05T10:15:38Z</time>
      </trkpt>
      <trkpt lat="48.73509" lon="-3.45528">
        <ele>11.67</ele>
        <time>2013-05-05T10:15:39Z</time>
      </trkpt>
      <trkpt lat="48.73514" lon="-3.45527">
        <ele>11.67</ele>
        <time>2013-05-05T10:15:40Z</time>
      </trkpt>
      <trkpt lat="48.73546" lon="-3.45525">
        <ele>12.63</ele>
        <time>2013-05-05T10:15:46Z</time>
      </trkpt>
      <trkpt lat="48.7355" lon="-3.45523">
        <ele>13.12</ele>
        <time>2013-05-05T10:15:47Z</time>
      </trkpt>
      <trkpt lat="48.73554" lon="-3.45521">
        <ele>13.12</ele>
        <time>2013-05-05T10:15:48Z</time>
      </trkpt>
      <trkpt lat="48.73559" lon="-3.4552">
        <ele>13.6</ele>
        <time>2013-05-05T10:15:49Z</time>
      </trkpt>
      <trkpt lat="48.73562" lon="-3.45518">
        <ele>13.6</ele>
        <time>2013-05-05T10:15:50Z</time>
      </trkpt>
      <trkpt lat="48.73566" lon="-3.45516">
        <ele>14.08</ele>
        <time>2013-05-05T10:15:51Z</time>
      </trkpt>
      <trkpt lat="48.73575" lon="-3.45513">
        <ele>14.08</ele>
        <time>2013-05-05T10:15:53Z</time>
      </trkpt>
      <trkpt lat="48.73587" lon="-3.45507">
        <ele>15.04</ele>
        <time>2013-05-05T10:15:56Z</time>
      </trkpt>
      <trkpt lat="48.73591" lon="-3.45505">
        <ele>15.04</ele>
        <time>2013-05-05T10:15:57Z</time>
      </trkpt>
      <trkpt lat="48.73595" lon="-3.45504">
        <ele>15.52</ele>
        <time>2013-05-05T10:15:58Z</time>
      </trkpt>
      <trkpt lat="48.73603" lon="-3.45502">
        <ele>16</ele>
        <time>2013-05-05T10:16:00Z</time>
      </trkpt>
      <trkpt lat="48.73607" lon="-3.45501">
        <ele>16</ele>
        <time>2013-05-05T10:16:01Z</time>
      </trkpt>
      <trkpt lat="48.73611" lon="-3.45501">
        <ele>16</ele>
        <time>2013-05-05T10:16:02Z</time>
      </trkpt>
      <trkpt lat="48.73615" lon="-3.45502">
        <ele>16.48</ele>
        <time>2013-05-05T10:16:03Z</time>
      </trkpt>
      <trkpt lat="48.73619" lon="-3.45503">
        <ele>16.48</ele>
        <time>2013-05-05T10:16:04Z</time>
      </trkpt>
      <trkpt lat="48.73623" lon="-3.45504">
        <ele>16.48</ele>
        <time>2013-05-05T10:16:05Z</time>
      </trkpt>
      <trkpt lat="48.73664" lon="-3.45518">
        <ele>19.84</ele>
        <time>2013-05-05T10:16:16Z</time>
      </trkpt>
      <trkpt lat="48.73691" lon="-3.45522">
        <ele>21.29</ele>
        <time>2013-05-05T10:16:23Z</time>
      </trkpt>
      <trkpt lat="48.73695" lon="-3.45521">
        <ele>21.29</ele>
        <time>2013-05-05T10:16:24Z</time>
      </trkpt>
      <trkpt lat="48.73699" lon="-3.4552">
        <ele>21.77</ele>
        <time>2013-05-05T10:16:25Z</time>
      </trkpt>
      <trkpt lat="48.73702" lon="-3.45519">
        <ele>21.77</ele>
        <time>2013-05-05T10:16:26Z</time>
      </trkpt>
      <trkpt lat="48.73706" lon="-3.45518">
        <ele>22.25</ele>
        <time>2013-05-05T10:16:27Z</time>
      </trkpt>
      <trkpt lat="48.7371" lon="-3.45517">
        <ele>22.25</ele>
        <time>2013-05-05T10:16:28Z</time>
      </trkpt>
      <trkpt lat="48.73756" lon="-3.45506">
        <ele>25.61</ele>
        <time>2013-05-05T10:16:41Z</time>
      </trkpt>
      <trkpt lat="48.73804" lon="-3.45495">
        <ele>28.02</ele>
        <time>2013-05-05T10:16:55Z</time>
      </trkpt>
      <trkpt lat="48.73853" lon="-3.4549">
        <ele>30.42</ele>
        <time>2013-05-05T10:17:08Z</time>
      </trkpt>
      <trkpt lat="48.73913" lon="-3.45497">
        <ele>33.3</ele>
        <time>2013-05-05T10:17:22Z</time>
      </trkpt>
      <trkpt lat="48.73961" lon="-3.45523">
        <ele>35.71</ele>
        <time>2013-05-05T10:17:35Z</time>
      </trkpt>
      <trkpt lat="48.74028" lon="-3.45541">
        <ele>38.59</ele>
        <time>2013-05-05T10:17:52Z</time>
      </trkpt>
      <trkpt lat="48.74081" lon="-3.45562">
        <ele>41.47</ele>
        <time>2013-05-05T10:18:07Z</time>
      </trkpt>
      <trkpt lat="48.74135" lon="-3.45576">
        <ele>44.84</ele>
        <time>2013-05-05T10:18:21Z</time>
      </trkpt>
      <trkpt lat="48.74189" lon="-3.45576">
        <ele>47.72</ele>
        <time>2013-05-05T10:18:33Z</time>
      </trkpt>
      <trkpt lat="48.74256" lon="-3.4557">
        <ele>51.09</ele>
        <time>2013-05-05T10:18:48Z</time>
      </trkpt>
      <trkpt lat="48.74285" lon="-3.45556">
        <ele>52.53</ele>
        <time>2013-05-05T10:18:55Z</time>
      </trkpt>
      <trkpt lat="48.74307" lon="-3.45535">
        <ele>53.97</ele>
        <time>2013-05-05T10:19:02Z</time>
      </trkpt>
      <trkpt lat="48.74351" lon="-3.45496">
        <ele>56.86</ele>
        <time>2013-05-05T10:19:14Z</time>
      </trkpt>
      <trkpt lat="48.74354" lon="-3.45493">
        <ele>57.34</ele>
        <time>2013-05-05T10:19:15Z</time>
      </trkpt>
      <trkpt lat="48.74358" lon="-3.45491">
        <ele>57.34</ele>
        <time>2013-05-05T10:19:16Z</time>
      </trkpt>
      <trkpt lat="48.74372" lon="-3.45477">
        <ele>58.78</ele>
        <time>2013-05-05T10:19:20Z</time>
      </trkpt>
      <trkpt lat="48.7439" lon="-3.45454">
        <ele>59.74</ele>
        <time>2013-05-05T10:19:25Z</time>
      </trkpt>
      <trkpt lat="48.74394" lon="-3.45444">
        <ele>60.22</ele>
        <time>2013-05-05T10:19:27Z</time>
      </trkpt>
      <trkpt lat="48.74398" lon="-3.45433">
        <ele>60.22</ele>
        <time>2013-05-05T10:19:29Z</time>
      </trkpt>
      <trkpt lat="48.744" lon="-3.45427">
        <ele>60.7</ele>
        <time>2013-05-05T10:19:30Z</time>
      </trkpt>
      <trkpt lat="48.74403" lon="-3.45408">
        <ele>61.18</ele>
        <time>2013-05-05T10:19:33Z</time>
      </trkpt>
      <trkpt lat="48.74403" lon="-3.45401">
        <ele>61.18</ele>
        <time>2013-05-05T10:19:34Z</time>
      </trkpt>
      <trkpt lat="48.744" lon="-3.45345">
        <ele>64.07</ele>
        <time>2013-05-05T10:19:45Z</time>
      </trkpt>
      <trkpt lat="48.74398" lon="-3.45295">
        <ele>65.03</ele>
        <time>2013-05-05T10:19:59Z</time>
      </trkpt>
      <trkpt lat="48.74398" lon="-3.45267">
        <ele>65.99</ele>
        <time>2013-05-05T10:20:14Z</time>
      </trkpt>
      <trkpt lat="48.74398" lon="-3.45266">
        <ele>65.99</ele>
        <time>2013-05-05T10:20:16Z</time>
      </trkpt>
      <trkpt lat="48.74398" lon="-3.45264">
        <ele>65.99</ele>
        <time>2013-05-05T10:20:17Z</time>
      </trkpt>
      <trkpt lat="48.74399" lon="-3.45262">
        <ele>65.99</ele>
        <time>2013-05-05T10:20:18Z</time>
      </trkpt>
      <trkpt lat="48.74401" lon="-3.45259">
        <ele>65.99</ele>
        <time>2013-05-05T10:20:19Z</time>
      </trkpt>
      <trkpt lat="48.74404" lon="-3.45256">
        <ele>66.47</ele>
        <time>2013-05-05T10:20:20Z</time>
      </trkpt>
      <trkpt lat="48.74408" lon="-3.45254">
        <ele>65.99</ele>
        <time>2013-05-05T10:20:21Z</time>
      </trkpt>
      <trkpt lat="48.74412" lon="-3.45255">
        <ele>65.99</ele>
        <time>2013-05-05T10:20:22Z</time>
      </trkpt>
      <trkpt lat="48.74415" lon="-3.45256">
        <ele>65.99</ele>
        <time>2013-05-05T10:20:23Z</time>
      </trkpt>
      <trkpt lat="48.74419" lon="-3.45259">
        <ele>65.51</ele>
        <time>2013-05-05T10:20:24Z</time>
      </trkpt>
      <trkpt lat="48.74423" lon="-3.45262">
        <ele>65.51</ele>
        <time>2013-05-05T10:20:25Z</time>
      </trkpt>
      <trkpt lat="48.74431" lon="-3.4527">
        <ele>65.03</ele>
        <time>2013-05-05T10:20:27Z</time>
      </trkpt>
      <trkpt lat="48.74435" lon="-3.45275">
        <ele>65.03</ele>
        <time>2013-05-05T10:20:28Z</time>
      </trkpt>
      <trkpt lat="48.74484" lon="-3.45336">
        <ele>61.66</ele>
        <time>2013-05-05T10:20:37Z</time>
      </trkpt>
      <trkpt lat="48.74528" lon="-3.45396">
        <ele>56.86</ele>
        <time>2013-05-05T10:20:43Z</time>
      </trkpt>
      <trkpt lat="48.74571" lon="-3.45479">
        <ele>57.82</ele>
        <time>2013-05-05T10:20:51Z</time>
      </trkpt>
      <trkpt lat="48.74598" lon="-3.4551">
        <ele>60.22</ele>
        <time>2013-05-05T10:20:59Z</time>
      </trkpt>
      <trkpt lat="48.74601" lon="-3.45508">
        <ele>61.66</ele>
        <time>2013-05-05T10:21:00Z</time>
      </trkpt>
      <trkpt lat="48.74604" lon="-3.45504">
        <ele>61.66</ele>
        <time>2013-05-05T10:21:01Z</time>
      </trkpt>
      <trkpt lat="48.74618" lon="-3.45473">
        <ele>63.58</ele>
        <time>2013-05-05T10:21:07Z</time>
      </trkpt>
      <trkpt lat="48.74621" lon="-3.45469">
        <ele>64.07</ele>
        <time>2013-05-05T10:21:08Z</time>
      </trkpt>
      <trkpt lat="48.74624" lon="-3.45467">
        <ele>64.07</ele>
        <time>2013-05-05T10:21:09Z</time>
      </trkpt>
      <trkpt lat="48.74627" lon="-3.45467">
        <ele>64.55</ele>
        <time>2013-05-05T10:21:10Z</time>
      </trkpt>
      <trkpt lat="48.7463" lon="-3.45469">
        <ele>65.03</ele>
        <time>2013-05-05T10:21:11Z</time>
      </trkpt>
      <trkpt lat="48.74633" lon="-3.45471">
        <ele>65.03</ele>
        <time>2013-05-05T10:21:12Z</time>
      </trkpt>
      <trkpt lat="48.74665" lon="-3.45505">
        <ele>68.39</ele>
        <time>2013-05-05T10:21:25Z</time>
      </trkpt>
      <trkpt lat="48.7467" lon="-3.4551">
        <ele>68.39</ele>
        <time>2013-05-05T10:21:28Z</time>
      </trkpt>
      <trkpt lat="48.74672" lon="-3.4551">
        <ele>68.39</ele>
        <time>2013-05-05T10:21:29Z</time>
      </trkpt>
      <trkpt lat="48.74674" lon="-3.4551">
        <ele>68.39</ele>
        <time>2013-05-05T10:21:30Z</time>
      </trkpt>
      <trkpt lat="48.74676" lon="-3.45511">
        <ele>68.39</ele>
        <time>2013-05-05T10:21:31Z</time>
      </trkpt>
      <trkpt lat="48.74678" lon="-3.45513">
        <ele>68.87</ele>
        <time>2013-05-05T10:21:32Z</time>
      </trkpt>
      <trkpt lat="48.7468" lon="-3.45516">
        <ele>68.87</ele>
        <time>2013-05-05T10:21:33Z</time>
      </trkpt>
      <trkpt lat="48.74681" lon="-3.45518">
        <ele>68.87</ele>
        <time>2013-05-05T10:21:34Z</time>
      </trkpt>
      <trkpt lat="48.74684" lon="-3.45519">
        <ele>68.87</ele>
        <time>2013-05-05T10:21:35Z</time>
      </trkpt>
      <trkpt lat="48.74686" lon="-3.45519">
        <ele>68.87</ele>
        <time>2013-05-05T10:21:36Z</time>
      </trkpt>
      <trkpt lat="48.74688" lon="-3.45517">
        <ele>69.35</ele>
        <time>2013-05-05T10:21:37Z</time>
      </trkpt>
      <trkpt lat="48.74691" lon="-3.45515">
        <ele>69.35</ele>
        <time>2013-05-05T10:21:38Z</time>
      </trkpt>
      <trkpt lat="48.74692" lon="-3.45512">
        <ele>69.35</ele>
        <time>2013-05-05T10:21:39Z</time>
      </trkpt>
      <trkpt lat="48.74693" lon="-3.45509">
        <ele>69.35</ele>
        <time>2013-05-05T10:21:40Z</time>
      </trkpt>
      <trkpt lat="48.74694" lon="-3.45505">
        <ele>69.35</ele>
        <time>2013-05-05T10:21:41Z</time>
      </trkpt>
      <trkpt lat="48.74694" lon="-3.45503">
        <ele>69.35</ele>
        <time>2013-05-05T10:21:42Z</time>
      </trkpt>
      <trkpt lat="48.74694" lon="-3.455">
        <ele>69.35</ele>
        <time>2013-05-05T10:21:43Z</time>
      </trkpt>
      <trkpt lat="48.74693" lon="-3.455">
        <ele>69.83</ele>
        <time>2013-05-05T10:21:54Z</time>
      </trkpt>
      <trkpt lat="48.74696" lon="-3.45499">
        <ele>69.83</ele>
        <time>2013-05-05T10:22:09Z</time>
      </trkpt>
      <trkpt lat="48.74693" lon="-3.45497">
        <ele>69.83</ele>
        <time>2013-05-05T10:22:26Z</time>
      </trkpt>
      <trkpt lat="48.74693" lon="-3.45499">
        <ele>70.31</ele>
        <time>2013-05-05T10:22:46Z</time>
      </trkpt>
      <trkpt lat="48.74687" lon="-3.45493">
        <ele>70.31</ele>
        <time>2013-05-05T10:23:02Z</time>
      </trkpt>
    </trkseg>
  </trk>
</gpx>